[[[{"header":{"parameterUnit":"kt","parameterCategory":2,"dx":1,"dy":1,"la1":29.587661999999998,"la2":31.0,"lo1":-88.76705300000003,"lo2":-86.6583820000003,"nx":115,"ny":88,"refTime":"2022-09-21T06:00:00:Z","depth":0,"parameterNumber":1,"parameterNumberName":"U-component_of_WINDS"},"data":[7.0009,7.0009,7.0009,7.0009,7.0009,7.0009,7.0009,7.0009,7.0009,7.0009,7.0009,7.0009,7.0274,7.0464,7.0464,7.1072,7.2476,7.2514,7.4602,7.6729,7.6349,7.8057,7.95,7.9994,8.0032,8.0032,8.007,8.007,8.007,8.007,8.007,8.007,8.007,8.007,8.007,8.007,8.007,8.007,8.007,8.007,8.007,8.007,8.007,8.007,8.007,8.0032,7.9971,7.9918,7.9923,7.9923,7.9901,7.9846,7.9806,7.9747,7.9698,7.9695,7.9666,7.9674,7.968,7.9646,7.9629,7.9573,7.982,8.0952,8.25,8.3973,8.5861,8.8164,8.9335,8.9335,8.9372,8.9372,8.9372,8.9372,8.9372,8.9372,8.9372,8.9372,8.9372,8.9372,8.9372,8.9372,8.9372,8.9372,8.9372,8.9372,8.9372,8.9372,8.9372,8.9372,8.9372,8.9372,8.9372,8.9372,8.9372,8.9372,8.9372,8.9372,8.9372,8.9372,8.9372,8.9372,8.9372,8.9372,8.9372,8.9372,8.9372,8.9372,8.9372,8.9372,8.9372,8.9372,8.9372,8.941,8.9389,7.0009,7.0009,7.0009,7.0009,7.0009,7.0009,7.0009,7.0009,7.0009,7.0009,7.0009,7.0009,7.0958,7.1717,7.2173,7.2325,7.2325,7.2059,7.3426,7.5058,7.5514,7.7488,7.8964,7.9908,7.994,7.9978,8.0028,8.007,8.007,8.007,8.007,8.007,8.007,8.007,8.007,8.007,8.007,8.007,8.007,8.007,8.007,8.007,8.007,8.007,8.007,8.007,8.0066,8.0016,7.9951,7.9945,7.9894,7.9901,7.9846,7.9827,7.9796,7.9711,7.9685,7.9657,7.9651,7.968,7.9663,7.9646,7.9536,8.0386,8.201,8.3595,8.5219,8.7069,8.8655,8.9259,8.9335,8.9372,8.9372,8.9372,8.9372,8.9372,8.9372,8.9372,8.9372,8.9372,8.9372,8.9372,8.9372,8.9372,8.9372,8.9372,8.9372,8.9372,8.9372,8.9372,8.9372,8.9372,8.9372,8.9372,8.9372,8.9372,8.9372,8.9372,8.9372,8.9372,8.9372,8.9372,8.9372,8.9372,8.9372,8.9372,8.9372,8.9372,8.9372,8.9372,8.9372,8.9372,8.9372,8.941,8.941,6.9995,6.9998,7.0009,7.0009,7.0009,7.0007,7.0006,7.0006,7.0006,7.0003,6.9995,7.0033,7.035,7.092,7.111,7.0996,7.0996,7.111,7.278,7.4413,7.5552,7.7175,7.8646,7.989,7.9913,7.9923,7.9981,7.9989,7.9956,7.9953,7.9989,7.9994,7.9956,7.9956,7.9994,8.007,8.007,8.0095,8.007,8.007,8.007,8.007,8.007,8.007,8.007,8.007,8.007,8.0068,8.005,7.9989,7.9939,7.9925,7.9901,7.9901,7.9875,7.9806,7.9735,7.9673,7.9671,7.9651,7.9663,7.9646,7.9591,8.0159,8.1745,8.25,8.4124,8.5823,8.7447,8.907,8.9146,8.9372,8.9372,8.9372,8.9372,8.9372,8.9372,8.9372,8.9372,8.9372,8.9372,8.9372,8.9372,8.9372,8.9372,8.9372,8.9372,8.9372,8.9372,8.9372,8.9372,8.9372,8.9372,8.9372,8.9372,8.9372,8.9372,8.9372,8.9372,8.9372,8.9372,8.9372,8.9372,8.9372,8.9372,8.9372,8.9372,8.9372,8.9372,8.9372,8.9372,8.9372,8.9372,8.941,8.941,6.9913,6.9958,6.9916,6.993,7.0006,7.0,6.9998,6.9998,6.9992,7.0014,6.9998,7.0004,7.0102,7.0197,7.0198,7.0198,7.016,7.054,7.2135,7.4103,7.4971,7.6778,7.9338,7.9901,7.9894,7.9901,7.9913,7.9923,7.989,7.9895,7.9899,7.9899,7.989,7.9928,7.9933,7.9978,8.0019,7.9999,8.0022,8.0032,7.9994,8.0032,8.0031,8.0032,8.0032,8.0032,8.0032,8.0028,8.0069,8.0084,7.9961,7.9894,7.9901,7.9925,7.991,7.9875,7.9769,7.9758,7.9761,7.9709,7.9689,7.9658,7.9797,8.046,8.1066,8.167,8.2803,8.4539,8.6201,8.7824,8.8919,8.9184,8.9372,8.9372,8.9372,8.9372,8.9372,8.9372,8.9372,8.9372,8.9372,8.9372,8.9372,8.9372,8.9372,8.9372,8.9372,8.9372,8.9372,8.9372,8.9372,8.9372,8.9372,8.9372,8.9372,8.9372,8.9372,8.9372,8.9372,8.9372,8.9372,8.9372,8.9372,8.9372,8.9372,8.9372,8.9372,8.9372,8.9372,8.9372,8.9372,8.9372,8.9372,8.9372,8.9372,6.9807,6.9776,6.9837,6.9857,6.9971,6.9992,6.9957,6.9995,6.9986,6.9996,6.9958,6.9986,6.9976,6.9992,6.9998,6.9998,6.9998,7.0112,7.1776,7.4947,7.4942,7.6752,7.9045,7.9893,7.9893,7.9913,7.9922,7.991,7.991,7.9894,7.9913,7.9913,7.9907,7.9913,7.9923,7.9933,7.9961,7.9945,7.9966,7.994,7.9905,7.9905,7.9908,7.9905,7.9905,7.9902,7.9923,7.9928,7.9975,8.0031,8.0057,7.9961,7.9918,7.989,7.9907,7.9887,7.9855,7.9837,7.9844,7.9723,7.9709,7.9666,7.968,7.9911,8.0347,8.0951,8.2273,8.3897,8.5427,8.7013,8.8448,8.8977,8.9279,8.9372,8.9372,8.9372,8.9372,8.9372,8.9372,8.9372,8.9372,8.9372,8.9372,8.9372,8.9372,8.9372,8.9372,8.9372,8.9372,8.9372,8.9372,8.9372,8.9372,8.9372,8.9372,8.9372,8.9372,8.9372,8.9372,8.9372,8.9372,8.9372,8.9372,8.9372,8.9372,8.9372,8.9372,8.9372,8.9372,8.9372,8.9372,8.9372,8.9372,8.9372,8.941,6.9654,6.9689,6.9752,6.982,6.9867,6.9883,6.9845,6.9867,6.9831,6.9859,6.9869,6.9858,6.9883,6.9993,6.9998,6.9998,6.9998,7.0156,7.1749,7.4273,7.4873,7.7133,7.8869,7.9913,7.9903,7.9903,7.9903,7.9903,7.9922,7.9901,7.991,7.991,7.991,7.9925,7.9901,7.9907,7.9894,7.9917,7.9917,7.9894,7.9894,7.9894,7.9894,7.9894,7.9894,7.9925,7.9917,7.9928,7.994,7.9953,7.9987,7.9916,7.9916,7.9981,7.9989,7.9913,7.9887,7.9901,7.9884,7.9758,7.9685,7.9671,7.9689,7.9642,7.9982,8.0343,8.1666,8.3102,8.4671,8.6239,8.7562,8.8713,8.9053,8.9372,8.9372,8.9372,8.9372,8.9372,8.9372,8.9372,8.9372,8.9372,8.9372,8.9372,8.9372,8.9372,8.9372,8.9372,8.9372,8.9372,8.9372,8.9372,8.9372,8.9372,8.9372,8.9372,8.9372,8.9372,8.9372,8.9372,8.9372,8.9372,8.9372,8.9372,8.9372,8.9372,8.9372,8.9372,8.9372,8.9372,8.9372,8.9372,8.9372,8.9372,8.941,6.9542,6.9542,6.9603,6.9692,6.9714,6.9667,6.9629,6.9691,6.9653,6.9692,6.9767,6.974,6.9811,6.9916,6.9925,6.9896,6.9905,7.0368,7.2158,7.3712,7.4917,7.7136,7.8794,7.992,7.992,7.992,7.992,7.992,7.9903,7.9913,7.9913,7.9913,7.9903,7.9922,7.9901,7.9917,7.9893,7.9922,7.9922,7.9893,7.9901,7.9893,7.9893,7.9893,7.9893,7.9901,7.9901,7.9907,7.9923,7.9895,7.9918,7.9918,7.9918,7.9994,8.0022,7.9905,7.9913,7.9917,7.9864,7.9789,7.9709,7.9711,7.9681,7.9651,7.9666,7.9969,8.0619,8.2018,8.3514,8.5407,8.7014,8.7958,8.8544,8.8977,8.9372,8.9372,8.9372,8.9372,8.9372,8.9372,8.9372,8.9372,8.9372,8.9372,8.9372,8.9372,8.9372,8.9372,8.9372,8.9372,8.9372,8.9372,8.9372,8.9372,8.9372,8.9372,8.9372,8.9372,8.9372,8.9372,8.9372,8.9372,8.9372,8.9372,8.9372,8.9372,8.9372,8.9372,8.9372,8.9372,8.9372,8.9372,8.9372,8.9372,8.941,6.9397,6.9419,6.9419,6.95,6.9554,6.9345,6.9317,6.943,6.9428,6.9512,6.9587,6.9577,6.9642,6.9793,6.9789,6.9773,6.9793,6.9802,7.1962,7.3999,7.4794,7.7208,7.8902,7.9874,7.9886,7.9874,7.9924,7.9898,7.992,7.992,7.9893,7.9893,7.9909,7.992,7.9893,7.9913,7.9903,7.9893,7.9893,7.9903,7.9913,7.9913,7.9903,7.9903,7.9913,7.9922,7.9893,7.991,7.9894,7.9901,7.9907,7.9923,7.9899,7.9908,7.9899,7.9908,7.9911,7.9923,7.9894,7.988,7.9846,7.9741,7.9711,7.9698,7.9736,7.9785,8.039,8.1436,8.2466,8.4476,8.6143,8.6881,8.7656,8.843,8.9015,8.9279,8.9279,8.9335,8.9335,8.9372,8.9372,8.9372,8.9372,8.9372,8.9372,8.9372,8.9372,8.9372,8.9372,8.9372,8.9372,8.9372,8.9372,8.9372,8.9372,8.9372,8.9372,8.9372,8.9372,8.9372,8.9372,8.9372,8.9372,8.9372,8.9372,8.9372,8.9372,8.9372,8.9372,8.9372,8.9372,8.9372,8.9372,8.9372,8.873,6.9273,6.9285,6.9261,6.929,6.9312,6.9239,6.9247,6.9247,6.9252,6.9354,6.9486,6.95,6.9496,6.9543,6.9601,6.9642,6.9692,6.9793,7.1596,7.4335,7.4726,7.6883,7.8827,7.9774,7.9811,7.9912,7.9912,7.9912,7.9886,7.9886,7.9898,7.9898,7.9924,7.9886,7.9898,7.9898,7.9898,7.9898,7.9898,7.9909,7.992,7.9909,7.9909,7.9909,7.992,7.9903,7.9913,7.9922,7.9893,7.9901,7.991,7.9917,7.9901,7.9913,7.9918,7.9923,7.9913,7.9917,7.9908,7.9899,7.9886,7.9793,7.9811,7.9855,7.9844,7.9796,8.0315,8.0859,8.1718,8.2865,8.3782,8.5081,8.6047,8.7335,8.7958,8.8619,8.8713,8.9015,8.909,8.9335,8.9372,8.9372,8.9372,8.9372,8.9372,8.9372,8.9372,8.9372,8.9372,8.9372,8.9372,8.9372,8.9372,8.9372,8.9372,8.9372,8.9372,8.9372,8.9372,8.9372,8.9372,8.9372,8.9372,8.9372,8.9372,8.9372,8.9372,8.9372,8.9372,8.9372,8.9221,8.9184,8.9372,8.8655,8.7691,6.9132,6.9132,6.9132,6.9136,6.9171,6.9147,6.9136,6.9136,6.917,6.9202,6.9327,6.9332,6.9316,6.9374,6.9463,6.9528,6.9565,6.9776,7.1506,7.4289,7.4635,7.6843,7.8735,7.9695,7.9723,7.9811,7.9912,7.9912,7.9912,7.9912,7.9912,7.9912,7.9912,7.9912,7.9912,7.9912,7.9912,7.9912,7.9912,7.9912,7.9912,7.9912,7.9912,7.9912,7.9898,7.9909,7.9893,7.9903,7.9913,7.9922,7.9922,7.9922,7.9901,7.9925,7.9894,7.9894,7.9901,7.989,7.9905,7.9915,7.9918,7.9916,7.9908,7.9875,7.9917,7.9917,7.9901,8.0216,8.0857,8.1553,8.2109,8.338,8.4471,8.58,8.6446,8.7108,8.7618,8.7939,8.8373,8.8524,8.873,8.8579,8.9184,8.9372,8.9372,8.9372,8.9372,8.9372,8.9259,8.9259,8.9372,8.9372,8.9372,8.9372,8.9372,8.9372,8.9372,8.9372,8.9372,8.9372,8.9372,8.9372,8.9372,8.9372,8.9372,8.9372,8.9372,8.9372,8.9372,8.9033,8.8466,8.8277,8.8051,8.7371,8.6445,6.902,6.902,6.902,6.8982,6.9009,6.902,6.8982,6.9009,6.8986,6.9061,6.9208,6.9217,6.9202,6.9231,6.9336,6.9374,6.9392,6.9823,7.1459,7.4043,7.4961,7.6785,7.8577,7.9629,7.9695,7.9709,7.9774,7.9874,7.9912,7.9912,7.9912,7.9912,7.9912,7.9912,7.9912,7.9912,7.9912,7.9912,7.9912,7.9912,7.9912,7.9912,7.9912,7.9912,7.9912,7.9886,7.9909,7.992,7.992,7.9893,7.9893,7.9903,7.9913,7.9901,7.9893,7.9913,7.9913,7.9922,7.9922,7.9901,7.9901,7.9895,7.9916,7.9915,7.9902,7.9895,7.9923,7.9901,8.012,8.0775,8.1451,8.2298,8.3219,8.41,8.4471,8.5006,8.5442,8.5803,8.6503,8.6881,8.7108,8.7484,8.8466,8.9166,8.9053,8.8977,8.9242,8.9259,8.907,8.9146,8.9372,8.9372,8.9372,8.9372,8.9372,8.9372,8.9259,8.9372,8.9372,8.9372,8.9372,8.9372,8.9372,8.9372,8.9372,8.9372,8.9372,8.9335,8.8957,8.8542,8.79,8.7182,8.6578,8.5916,8.4915,6.902,6.902,6.902,6.902,6.902,6.902,6.902,6.8982,6.9009,6.9035,6.9035,6.9074,6.9085,6.9109,6.9209,6.9252,6.9536,7.0631,7.2424,7.4046,7.5669,7.7537,7.8838,7.9588,7.9636,7.9671,7.9736,7.9799,7.9874,7.9912,7.9912,7.9912,7.9912,7.9912,7.9912,7.9912,7.9912,7.9912,7.9912,7.9912,7.9912,7.9912,7.9912,7.9912,7.9912,7.9912,7.9924,7.9886,7.9898,7.9898,7.9898,7.9909,7.992,7.9903,7.9913,7.9913,7.9913,7.9913,7.9913,7.9913,7.9913,7.991,7.9923,7.9905,7.9913,7.9917,7.9917,7.9908,7.9899,8.0037,8.0318,8.0832,8.1588,8.255,8.2929,8.3281,8.3645,8.3865,8.453,8.527,8.5349,8.554,8.6523,8.7297,8.6957,8.6447,8.707,8.7769,8.7824,8.8126,8.8504,8.8617,8.8655,8.8957,8.9259,8.8768,8.8315,8.8428,8.8428,8.8693,8.8844,8.9372,8.9372,8.9184,8.9184,8.9335,8.9146,8.873,8.8353,8.7938,8.7258,8.6465,8.5672,8.4067,8.3179,6.902,6.902,6.902,6.902,6.902,6.902,6.902,6.902,6.902,6.902,6.8982,6.8971,6.8986,6.9048,6.9085,6.9119,6.9381,7.0981,7.2605,7.4267,7.6005,7.775,7.8874,7.9443,7.9553,7.9598,7.9695,7.976,7.9811,7.9774,7.9811,7.9824,7.9862,7.99,7.9912,7.9912,7.9912,7.9912,7.9912,7.9912,7.9912,7.9912,7.9912,7.9912,7.9912,7.9912,7.9912,7.9912,7.9912,7.9912,7.9912,7.9924,7.9898,7.9909,7.9909,7.992,7.992,7.9893,7.9893,7.992,7.9909,7.9893,7.9893,7.9894,7.9901,7.9913,7.989,7.9905,7.9915,7.9917,7.9949,7.9961,8.0183,8.0917,8.1495,8.1815,8.2046,8.207,8.2609,8.3517,8.3714,8.3854,8.4631,8.5407,8.4669,8.4119,8.5238,8.6145,8.6296,8.6541,8.6616,8.6692,8.6654,8.6843,8.6843,8.7107,8.7409,8.7296,8.7182,8.6956,8.6729,8.7635,8.8524,8.8806,8.8768,8.8957,8.8844,8.824,8.7371,8.6427,8.5861,8.5408,8.3935,8.2217,8.1461,6.902,6.902,6.902,6.902,6.902,6.902,6.902,6.902,6.902,6.902,6.902,6.8982,6.8982,6.9084,6.9236,6.9298,6.9086,7.0872,7.2609,7.4297,7.6036,7.7838,7.8759,7.9322,7.948,7.948,7.9604,7.9666,7.9695,7.9657,7.9671,7.9685,7.9824,7.9862,7.9912,7.9912,7.9912,7.9912,7.9912,7.9912,7.9912,7.9912,7.9912,7.9912,7.9912,7.9912,7.9912,7.9912,7.9912,7.9912,7.9912,7.9912,7.9912,7.9924,7.9924,7.9924,7.9924,7.9898,7.9909,7.9898,7.9898,7.9909,7.9903,7.9913,7.9922,7.9903,7.9913,7.991,7.9913,7.9902,7.9915,7.9917,7.9949,8.0396,8.0607,8.0855,8.0896,8.085,8.1235,8.1844,8.2272,8.2533,8.3162,8.3313,8.276,8.2277,8.3212,8.3854,8.4122,8.5182,8.5106,8.505,8.4936,8.4861,8.4823,8.5163,8.5937,8.6107,8.6069,8.5635,8.5163,8.5785,8.6825,8.7089,8.7296,8.8202,8.8617,8.7107,8.5823,8.4917,8.4086,8.3407,8.2198,8.1047,8.0291,6.902,6.902,6.902,6.902,6.902,6.902,6.902,6.902,6.902,6.902,6.902,6.902,6.902,6.9169,7.0056,7.0131,6.942,7.2082,7.3494,7.4906,7.6785,7.8451,7.8953,7.9191,7.9272,7.9326,7.9461,7.9533,7.9566,7.956,7.9629,7.9671,7.9811,7.9862,7.9912,7.9912,7.9912,7.9912,7.9912,7.9912,7.9912,7.9912,7.9912,7.9912,7.9912,7.9912,7.9912,7.9912,7.9912,7.9912,7.9912,7.9912,7.9912,7.9912,7.9912,7.9912,7.9912,7.9912,7.9912,7.9912,7.9912,7.9924,7.9898,7.9909,7.992,7.992,7.9893,7.9913,7.9901,7.9901,7.9925,7.9895,7.9908,7.9915,7.9917,7.9913,7.9975,8.0222,8.0584,8.0925,8.1095,8.1326,8.1463,8.1413,8.1124,8.0631,8.0831,8.1459,8.2639,8.4081,8.4178,8.4215,8.414,8.4102,8.4215,8.4442,8.4669,8.4951,8.4989,8.4707,8.4311,8.4671,8.5144,8.5238,8.5295,8.5748,8.5748,8.505,8.4237,8.3369,8.25,8.167,8.099,8.0197,7.9518,6.902,6.902,6.902,6.902,6.902,6.902,6.902,6.902,6.902,6.902,6.902,6.902,6.902,6.9319,7.0638,7.1161,7.1824,7.3899,7.505,7.5798,7.7502,7.8906,7.9036,7.9126,7.9128,7.9257,7.9343,7.9442,7.9443,7.948,7.9588,7.9704,7.9747,7.9811,7.9774,7.9824,7.9874,7.9912,7.9912,7.9912,7.9912,7.9912,7.9912,7.9912,7.9912,7.9912,7.9912,7.9912,7.9912,7.9912,7.9912,7.9912,7.9912,7.9912,7.9912,7.9912,7.9912,7.9912,7.9912,7.9912,7.9912,7.9912,7.9912,7.9912,7.9886,7.9898,7.9909,7.9903,7.9893,7.9903,7.9922,7.9917,7.9894,7.9901,7.9913,7.9902,7.9916,7.9917,7.9908,7.9918,8.0031,8.028,8.0482,8.0546,8.0448,8.0178,8.0417,8.0695,8.1488,8.2556,8.2783,8.2995,8.3033,8.2995,8.3147,8.3109,8.3071,8.2882,8.292,8.2866,8.285,8.3157,8.3367,8.35,8.3897,8.3424,8.2442,8.2215,8.2084,8.1593,8.1009,8.0631,8.0235,7.948,7.948,6.902,6.902,6.902,6.902,6.902,6.902,6.902,6.902,6.902,6.902,6.902,6.902,6.9143,6.9554,7.0712,7.1908,7.3506,7.5105,7.6115,7.634,7.7969,7.8897,7.8934,7.9036,7.9077,7.9091,7.9225,7.9286,7.9316,7.9384,7.9518,7.9625,7.9651,7.9695,7.9723,7.9811,7.99,7.9912,7.9912,7.9912,7.9912,7.9912,7.9912,7.9912,7.9912,7.9912,7.9912,7.9912,7.9912,7.9912,7.9912,7.9912,7.9912,7.9912,7.9912,7.9912,7.9912,7.9912,7.9912,7.9912,7.9912,7.9912,7.9912,7.9912,7.9912,7.9912,7.9886,7.992,7.992,7.992,7.9893,7.9913,7.9903,7.9913,7.9922,7.9925,7.9913,7.9899,7.9913,7.9917,7.9913,7.9916,7.9917,7.9913,7.9905,7.9894,7.9913,7.9909,8.0215,8.0544,8.0809,8.1061,8.1174,8.1137,8.1212,8.101,8.082,8.0542,8.0504,8.0452,8.093,8.1482,8.1678,8.2153,8.2834,8.2699,8.1548,8.0662,7.9982,7.9928,8.0288,7.9969,7.9518,7.9499,7.9499,6.902,6.902,6.902,6.902,6.902,6.902,6.902,6.902,6.902,6.902,6.902,6.9057,6.9666,7.0376,7.0226,7.0488,7.2086,7.5152,7.6311,7.6826,7.806,7.8771,7.8801,7.8859,7.8953,7.8998,7.9103,7.9164,7.9202,7.9294,7.9401,7.9499,7.9536,7.9566,7.9657,7.9747,7.9774,7.9862,7.9912,7.9912,7.9912,7.9912,7.9912,7.9912,7.9912,7.9912,7.9912,7.9912,7.9912,7.9912,7.9912,7.9912,7.9912,7.9912,7.9912,7.9912,7.9912,7.9912,7.9912,7.9912,7.9912,7.9912,7.9912,7.9912,7.9912,7.9912,7.9912,7.9912,7.9924,7.9886,7.9898,7.9898,7.9898,7.9909,7.992,7.9903,7.9893,7.9917,7.9913,7.989,7.9895,7.9899,7.9905,7.9913,7.9916,7.9923,7.9925,7.9855,7.9844,7.9844,7.9806,7.9796,7.9784,7.9784,7.9822,7.9811,7.9811,7.9837,7.9799,7.9761,7.9976,8.0152,8.0239,8.0574,8.1308,8.1715,8.0726,7.9712,7.9689,7.9674,7.968,7.9663,7.9608,7.9591,7.9518,6.902,6.902,6.902,6.902,6.902,6.902,6.902,6.902,6.902,6.902,6.902,6.9057,6.9479,7.0002,6.9927,7.16,7.3619,7.5862,7.6722,7.7544,7.8292,7.8704,7.8734,7.8801,7.8868,7.8925,7.8971,7.9014,7.904,7.9177,7.9294,7.9401,7.9461,7.9518,7.9566,7.9651,7.9733,7.9774,7.9862,7.9912,7.9912,7.9912,7.9912,7.9912,7.9912,7.9912,7.9912,7.9912,7.9912,7.9912,7.9912,7.9912,7.9912,7.9912,7.9912,7.9912,7.9912,7.9912,7.9912,7.9912,7.9912,7.9912,7.9912,7.9912,7.9912,7.9912,7.9912,7.9912,7.9912,7.9912,7.9912,7.9912,7.9912,7.9898,7.9898,7.9909,7.9931,7.9903,7.9901,7.9887,7.9907,7.9918,7.9918,7.9902,7.9917,7.9911,7.9923,7.9894,7.9893,7.9884,7.9884,7.9875,7.9855,7.9855,7.9855,7.9855,7.9893,7.9893,7.9855,7.9855,7.9958,7.9985,7.9886,7.9786,7.9799,8.0391,7.9761,7.9709,7.9671,7.9657,7.9666,7.9658,7.968,7.9646,7.9573,6.8993,6.902,6.902,6.902,6.902,6.902,6.902,6.902,6.902,6.902,6.902,6.902,6.902,6.9329,7.0451,7.2534,7.4254,7.5376,7.6535,7.7769,7.8031,7.8479,7.8591,7.8734,7.8801,7.8868,7.8897,7.8916,7.8934,7.9002,7.9153,7.9286,7.9376,7.9442,7.9518,7.9625,7.9689,7.9709,7.9811,7.9862,7.9912,7.9912,7.9912,7.9912,7.9912,7.9912,7.9912,7.9912,7.9912,7.9912,7.9912,7.9912,7.9912,7.9912,7.9912,7.9912,7.9912,7.9912,7.9912,7.9912,7.9912,7.9912,7.9912,7.9912,7.9912,7.9912,7.9912,7.9912,7.9912,7.9912,7.9912,7.9912,7.9912,7.9912,7.9912,7.9924,7.9909,7.9893,7.9922,7.9917,7.9901,7.9913,7.989,7.9905,7.9917,7.9915,7.9902,7.9918,7.9925,7.9917,7.9917,7.9901,7.9893,7.9922,7.9893,7.9893,7.9893,7.9901,7.9901,7.9864,7.9884,7.9884,7.9922,7.9865,7.9875,7.9875,7.9817,7.9796,7.9747,7.9735,7.9723,7.9666,7.9674,7.9658,7.9625,6.8883,6.902,6.902,6.902,6.902,6.902,6.902,6.902,6.902,6.902,6.902,6.902,6.902,6.9057,6.9394,7.0366,7.216,7.3469,7.5114,7.6535,7.6722,7.7358,7.8292,7.8479,7.8509,7.8734,7.8734,7.8801,7.8897,7.8991,7.9036,7.9103,7.9164,7.9257,7.9422,7.9518,7.955,7.9657,7.9747,7.9811,7.9862,7.9912,7.9912,7.9912,7.9912,7.9912,7.9912,7.9912,7.9912,7.9912,7.9912,7.9912,7.9912,7.9912,7.9912,7.99,7.9862,7.9862,7.99,7.9862,7.9912,7.9912,7.9912,7.9912,7.9912,7.9912,7.9912,7.9912,7.9912,7.9912,7.9912,7.9912,7.9912,7.9912,7.9912,7.9912,7.9886,7.9931,7.9893,7.9925,7.9907,7.989,7.9899,7.9908,7.9916,7.9917,7.9911,7.9899,7.9918,7.9901,7.9901,7.9894,7.9925,7.9925,7.9925,7.9925,7.9894,7.9894,7.9894,7.9887,7.9917,7.991,7.991,7.991,7.991,7.9901,7.9884,7.9837,7.9827,7.9827,7.9796,7.9736,7.9695,7.9651,7.9658,6.8751,6.8771,6.8891,6.8908,6.8908,6.902,6.902,6.902,6.902,6.902,6.902,6.902,6.902,6.902,6.9057,6.9356,7.0403,7.1787,7.3432,7.4666,7.5114,7.5937,7.7171,7.747,7.747,7.7582,7.8285,7.8696,7.8801,7.8897,7.8963,7.9009,7.9051,7.914,7.9257,7.9364,7.9461,7.9604,7.9681,7.976,7.9811,7.9862,7.9912,7.9912,7.9912,7.9912,7.9912,7.9912,7.9912,7.9862,7.9836,7.9809,7.9823,7.9809,7.9823,7.9823,7.9785,7.9823,7.9811,7.9811,7.9862,7.99,7.9912,7.9912,7.9912,7.9912,7.9912,7.9912,7.9912,7.9912,7.9912,7.9912,7.9912,7.9912,7.9912,7.9924,7.9898,7.9893,7.9893,7.9925,7.9913,7.9899,7.9911,7.9916,7.9917,7.9913,7.9902,7.989,7.9907,7.9907,7.9907,7.9907,7.9907,7.9907,7.9907,7.9907,7.9907,7.9907,7.9907,7.9901,7.9894,7.9894,7.9894,7.9894,7.9894,7.9925,7.9917,7.991,7.9901,7.9893,7.9837,7.9758,7.9723,7.9723,7.9719,6.8566,6.8633,6.8696,6.8779,6.8769,6.8854,6.8929,6.8956,6.8966,6.8956,6.8993,6.902,6.902,6.902,6.902,6.902,6.9319,7.0301,7.145,7.2833,7.3058,7.4179,7.4965,7.5712,7.6049,7.6834,7.7993,7.8696,7.8771,7.8838,7.8905,7.8897,7.8906,7.8988,7.9078,7.9219,7.9326,7.9499,7.9582,7.9681,7.9747,7.9811,7.9862,7.9862,7.9862,7.9862,7.9811,7.9849,7.9798,7.9771,7.9674,7.9604,7.9658,7.9658,7.9636,7.9636,7.9674,7.9689,7.9695,7.9709,7.976,7.9862,7.9862,7.9912,7.9912,7.9912,7.9912,7.9912,7.9912,7.9912,7.9912,7.9912,7.9912,7.9912,7.9912,7.9874,7.9834,7.9855,7.9922,7.9917,7.9913,7.9905,7.9913,7.9917,7.9911,7.9902,7.989,7.9913,7.9907,7.9907,7.9907,7.9907,7.9907,7.9907,7.9907,7.9907,7.9907,7.9907,7.9907,7.9907,7.9907,7.9907,7.9901,7.9907,7.9907,7.9907,7.9901,7.9894,7.9925,7.9917,7.9901,7.9846,7.9779,7.9784,7.9748,6.8505,6.8649,6.864,6.8659,6.863,6.8631,6.8743,6.8799,6.8836,6.8901,6.8993,6.902,6.902,6.902,6.902,6.902,6.902,6.9356,6.9655,7.0179,7.1039,7.1684,7.2282,7.3441,7.4711,7.6012,7.7881,7.8442,7.8479,7.8666,7.8771,7.8771,7.883,7.8944,7.8923,7.9051,7.9263,7.9422,7.9499,7.955,7.9666,7.9695,7.9747,7.9747,7.9747,7.9695,7.9704,7.9689,7.9604,7.9367,7.9348,7.9405,7.9518,7.9518,7.9516,7.9533,7.9512,7.9528,7.9576,7.9416,7.9596,7.9533,7.966,7.9912,7.9912,7.9912,7.9912,7.9912,7.9912,7.9912,7.9912,7.9912,7.9912,7.9862,7.9862,7.9837,7.9773,7.9834,7.9903,7.9901,7.9894,7.9913,7.9902,7.9917,7.9918,7.989,7.9918,7.9907,7.9907,7.9907,7.9907,7.9907,7.9907,7.9907,7.9907,7.9907,7.9907,7.9907,7.9907,7.9907,7.9907,7.9907,7.9907,7.9907,7.9907,7.9907,7.9907,7.9907,7.9907,7.9901,7.9887,7.988,7.9864,7.9827,7.9796,6.8297,6.8397,6.8387,6.8453,6.8519,6.8581,6.8656,6.8714,6.8771,6.8836,6.8901,6.8993,6.902,6.902,6.902,6.902,6.902,6.902,6.902,6.9143,6.9703,6.9937,7.0218,7.1458,7.2644,7.3615,7.5892,7.7012,7.731,7.8174,7.8547,7.8617,7.8642,7.8666,7.8688,7.8912,7.9078,7.9164,7.936,7.9461,7.9571,7.9582,7.9614,7.9666,7.9614,7.956,7.9566,7.9478,7.9346,7.9136,7.9065,7.915,7.9272,7.9309,7.9316,7.9364,7.9384,7.8895,7.8345,7.8114,7.8146,7.8229,7.8271,7.8789,7.9509,7.9862,7.9912,7.9874,7.9912,7.9912,7.9912,7.9912,7.9862,7.9811,7.9785,7.9733,7.9695,7.9711,7.9822,7.9893,7.9893,7.9894,7.9908,7.9916,7.9895,7.9913,7.9907,7.9907,7.9907,7.9907,7.9907,7.9907,7.9907,7.9907,7.9907,7.9907,7.9907,7.9907,7.9907,7.9907,7.9907,7.9907,7.9907,7.9907,7.9907,7.9907,7.9907,7.9907,7.9761,7.9647,7.9869,7.9894,7.988,7.9893,7.9827,6.7671,6.811,6.8224,6.8312,6.8387,6.8504,6.8573,6.8589,6.8685,6.8714,6.8808,6.8901,6.8864,6.8864,6.8918,6.8918,6.8929,6.8929,6.8929,6.8929,6.8891,6.8808,6.8983,7.0295,7.1152,7.1599,7.3983,7.5515,7.6036,7.7153,7.7972,7.8385,7.8419,7.8382,7.8478,7.868,7.8794,7.8859,7.9078,7.9279,7.9384,7.9424,7.9498,7.9553,7.9498,7.9424,7.9386,7.9288,7.9126,7.8813,7.8755,7.8672,7.8296,7.8221,7.8,7.7749,7.7721,7.7299,7.648,7.631,7.6401,7.6505,7.6527,7.7046,7.8295,7.8814,7.918,7.9256,7.9711,7.9912,7.9862,7.9824,7.9774,7.9695,7.9689,7.9642,7.962,7.9629,7.9723,7.9824,7.9871,7.988,7.9902,7.9917,7.9905,7.9918,7.9907,7.9907,7.9907,7.9907,7.9907,7.9907,7.9907,7.9907,7.9907,7.9907,7.9907,7.9907,7.9907,7.9907,7.9907,7.9913,7.9913,7.9913,7.9913,7.9869,7.9869,7.9755,7.9344,7.897,7.904,7.8926,7.9142,7.9197,7.9067,6.6529,6.785,6.8147,6.8174,6.8245,6.8386,6.8452,6.8442,6.8573,6.8596,6.8581,6.8648,6.8648,6.8639,6.8687,6.8752,6.8836,6.8836,6.8836,6.8743,6.8677,6.8619,6.8738,6.998,7.0612,7.0947,7.2556,7.412,7.5161,7.5755,7.6684,7.7651,7.769,7.7985,7.7946,7.8361,7.8404,7.8554,7.8803,7.8978,7.9134,7.9241,7.9294,7.9294,7.9294,7.9249,7.9115,7.9077,7.8888,7.8449,7.8233,7.7555,7.6601,7.6363,7.5779,7.4872,7.4447,7.4544,7.4491,7.4518,7.4632,7.476,7.4766,7.49,7.5467,7.6654,7.7363,7.74,7.8562,7.9559,7.9533,7.9482,7.943,7.9576,7.9004,7.8989,7.9348,7.9213,7.8955,7.9241,7.9711,7.9817,7.9641,7.9685,7.9763,7.9814,7.9913,7.9913,7.9907,7.9907,7.9907,7.9907,7.9907,7.9907,7.9907,7.9907,7.9907,7.9907,7.9907,7.9907,7.9907,7.9913,7.9918,7.9913,7.9913,7.9837,7.9717,7.9452,7.9078,7.8178,7.7689,7.7689,7.7679,7.7668,7.7763,6.5794,6.6492,6.7523,6.8036,6.8103,6.8143,6.8214,6.8316,6.841,6.8504,6.8498,6.8559,6.8656,6.8619,6.8648,6.8677,6.8714,6.8714,6.8619,6.8467,6.8367,6.8373,6.8489,6.9045,6.9231,6.9528,7.0833,7.191,7.2539,7.3575,7.4391,7.4873,7.4985,7.5429,7.6392,7.661,7.7309,7.8236,7.851,7.8659,7.8729,7.8886,7.895,7.904,7.8976,7.8896,7.8822,7.8617,7.835,7.8024,7.706,7.5871,7.4563,7.4374,7.4212,7.3868,7.3768,7.3365,7.2657,7.2695,7.2797,7.2898,7.2951,7.3358,7.4524,7.5046,7.5581,7.5557,7.6327,7.7008,7.7903,7.813,7.7541,7.6555,7.6462,7.6329,7.631,7.633,7.6456,7.6686,7.6744,7.7284,7.8013,7.838,7.874,7.9723,7.9895,7.9907,7.9907,7.9875,7.9907,7.9907,7.9913,7.9913,7.9913,7.9907,7.9907,7.9761,7.9647,7.9539,7.9202,7.9131,7.9177,7.9102,7.9126,7.8975,7.84,7.8357,7.7917,7.7006,7.5989,7.5989,7.5985,7.5977,7.653,6.4172,6.4905,6.6456,6.7192,6.7299,6.7853,6.8073,6.818,6.8279,6.8345,6.8377,6.8447,6.851,6.8504,6.8467,6.8498,6.8492,6.8498,6.8404,6.8275,6.8242,6.8245,6.8248,6.8248,6.8211,6.8362,6.9217,6.9957,7.0695,7.1693,7.2543,7.2875,7.3023,7.3577,7.4538,7.4725,7.5207,7.6429,7.7241,7.76,7.7662,7.8206,7.8567,7.8666,7.8598,7.851,7.8375,7.7689,7.7279,7.7088,7.5499,7.3911,7.2764,7.243,7.2273,7.2063,7.2015,7.154,7.0782,7.0834,7.0952,7.1083,7.1088,7.1804,7.28,7.3455,7.3843,7.3836,7.438,7.5023,7.6104,7.6353,7.5872,7.4574,7.4441,7.4629,7.4722,7.4554,7.4444,7.4567,7.4697,7.5268,7.6264,7.6682,7.7104,7.7981,7.8162,7.8528,7.8946,7.8984,7.924,7.9848,7.9918,7.9923,7.9913,7.9907,7.9463,7.8937,7.879,7.8638,7.7966,7.7666,7.7825,7.7863,7.7932,7.7659,7.7006,7.6479,7.5846,7.5016,7.4444,7.4249,7.4246,7.4619,7.517,6.1512,6.314,6.4801,6.55,6.5757,6.7154,6.7927,6.789,6.8143,6.8214,6.8214,6.8254,6.8286,6.8248,6.8279,6.8242,6.8205,6.8245,6.8214,6.8214,6.8214,6.8214,6.818,6.8182,6.8147,6.8037,6.8002,6.8739,7.0104,7.0325,7.1062,7.2315,7.2243,7.2317,7.2721,7.2875,7.2986,7.3614,7.4911,7.5686,7.583,7.7204,7.8022,7.8207,7.7874,7.7653,7.7531,7.6199,7.5384,7.5116,7.3642,7.2096,7.1028,7.0621,6.9991,6.8979,6.86,6.8715,6.8883,6.9009,6.9085,6.9209,6.9219,6.9166,6.9638,7.0879,7.1836,7.202,7.3185,7.4486,7.4475,7.4385,7.4085,7.4324,7.3814,7.3792,7.3899,7.4102,7.4206,7.4085,7.4017,7.4587,7.4849,7.4955,7.5246,7.5509,7.5665,7.6121,7.7298,7.7523,7.8238,7.9149,7.9374,7.9295,7.9587,7.9761,7.879,7.7966,7.7631,7.7405,7.6689,7.6425,7.6576,7.6537,7.6577,7.65,7.5852,7.5133,7.4337,7.3159,7.2893,7.2513,7.2503,7.2675,7.3424,5.9825,6.1549,6.314,6.3772,6.3957,6.5609,6.6307,6.649,6.7557,6.8073,6.8108,6.818,6.8251,6.8214,6.8248,6.8143,6.7964,6.7928,6.8002,6.7929,6.7965,6.7965,6.7965,6.7929,6.7929,6.7892,6.7855,6.8076,6.8592,6.8666,6.8924,6.9439,6.9403,6.9956,7.0951,7.1137,7.1802,7.2649,7.3392,7.4354,7.5429,7.6059,7.6837,7.7503,7.5648,7.4387,7.4345,7.3866,7.3531,7.3307,7.1981,7.0951,7.0362,6.9367,6.8518,6.8182,6.8143,6.8279,6.8424,6.767,6.7236,6.7313,6.653,6.5865,6.6078,6.7585,6.8451,6.8958,7.0124,7.1671,7.22,7.1593,7.0922,7.0915,7.09,7.09,7.0862,7.0922,7.1041,7.1199,7.1387,7.1931,7.2694,7.303,7.3666,7.4804,7.4898,7.5104,7.5682,7.5844,7.6112,7.6537,7.7602,7.817,7.8018,7.745,7.6532,7.6117,7.5771,7.5777,7.5471,7.535,7.5302,7.5184,7.5116,7.5087,7.467,7.3946,7.2728,7.1207,7.0987,7.1299,7.1055,7.092,7.1755,5.8793,5.9889,6.1449,6.2118,6.2341,6.3917,6.4614,6.4724,6.579,6.623,6.6304,6.693,6.726,6.7223,6.6632,6.623,6.6087,6.6088,6.6088,6.6087,6.6088,6.6088,6.6087,6.6123,6.6123,6.6087,6.6051,6.6382,6.6898,6.6971,6.7266,6.7745,6.7855,6.8297,6.9218,6.9439,6.9918,7.0876,7.1688,7.2501,7.3425,7.4167,7.4945,7.5866,7.3866,7.2681,7.2681,7.2129,7.1871,7.1871,7.0324,6.9439,6.9329,6.8445,6.7892,6.7892,6.7485,6.7292,6.727,6.6126,6.5368,6.5443,6.4606,6.4234,6.4454,6.5267,6.5983,6.6342,6.7547,6.8393,6.8918,6.8098,6.7407,6.7482,6.7918,6.8354,6.8361,6.8908,6.9343,6.9424,6.9487,6.9911,7.0963,7.1256,7.177,7.2786,7.2985,7.327,7.3788,7.4031,7.4349,7.4974,7.5867,7.6369,7.5905,7.4987,7.4668,7.4342,7.3976,7.3874,7.3126,7.2806,7.2958,7.2762,7.2692,7.2627,7.2523,7.1873,7.1612,7.0317,7.0208,7.0349,7.0014,7.0345,7.0806,5.8135,5.8393,5.9839,6.0538,6.0648,6.2188,6.2882,6.2885,6.3103,6.3103,6.3472,6.4724,6.535,6.5129,6.3877,6.3069,6.3069,6.3218,6.3255,6.329,6.3218,6.3071,6.2993,6.299,6.3101,6.34,6.3439,6.4064,6.5278,6.5352,6.6161,6.7413,6.734,6.7561,6.7745,6.7745,6.7782,6.8297,6.9587,7.0397,7.0655,7.1836,7.2426,7.2499,7.2386,7.2202,7.2165,7.0987,7.025,7.025,6.8776,6.7929,6.7855,6.7745,6.7634,6.7524,6.6343,6.5598,6.544,6.4266,6.3581,6.3734,6.3499,6.3647,6.3484,6.3928,6.4157,6.4214,6.5605,6.5827,6.4691,6.4684,6.4549,6.4587,6.5734,6.6432,6.6574,6.7888,6.8999,6.9139,6.9256,6.9562,6.9656,6.9601,6.992,7.007,6.9944,7.0474,7.1849,7.2175,7.2727,7.3771,7.434,7.4118,7.2757,7.2859,7.3224,7.2765,7.2104,7.1839,7.0683,6.9905,7.0064,7.0224,7.0649,7.0694,7.0201,7.0056,7.0106,7.0118,7.0014,6.9998,7.0,7.0018,7.017,5.7972,5.8046,5.8452,5.8667,5.8839,6.0458,6.1157,6.1234,6.248,6.2993,6.3066,6.3472,6.2997,6.2046,6.2597,6.2891,6.2818,6.2852,6.2924,6.2997,6.2999,6.2997,6.2995,6.2993,6.2995,6.2997,6.285,6.3036,6.3479,6.3552,6.3736,6.414,6.425,6.4875,6.5904,6.6088,6.6714,6.7782,6.8261,6.9145,7.0029,6.955,6.9182,6.9182,6.9145,6.9182,6.9145,6.8739,6.8518,6.8518,6.8113,6.7855,6.7819,6.6787,6.6161,6.6013,6.4649,6.3761,6.3685,6.2475,6.1831,6.1886,6.086,6.0346,6.0661,6.1626,6.2343,6.2515,6.2831,6.2997,6.2481,6.3334,6.3946,6.4045,6.4405,6.4826,6.4924,6.6304,6.7422,6.7556,6.8463,6.939,6.9411,6.9538,6.955,6.9611,6.9686,6.9951,7.0206,7.0409,7.055,7.0954,7.2152,7.2076,7.0752,7.1069,7.0863,7.0398,7.0537,7.0448,7.0017,6.9831,6.9811,6.9831,6.9905,6.9958,6.9958,6.9973,7.0062,6.9998,7.0018,7.0,7.0008,7.0008,7.0009,5.7841,5.7843,5.788,5.7873,5.7969,5.889,5.9367,5.9512,6.0501,6.0903,6.0903,6.0939,6.0356,5.9482,6.0362,6.0765,6.0802,6.0836,6.0871,6.0907,6.0942,6.0905,6.0939,6.0905,6.0942,6.0907,6.0834,6.0834,6.0948,6.1498,6.2158,6.2746,6.2856,6.3369,6.4177,6.4434,6.5279,6.6714,6.6824,6.6972,6.7155,6.6272,6.6051,6.664,6.6713,6.7008,6.767,6.778,6.7449,6.6787,6.6713,6.6456,6.5794,6.4911,6.4396,6.436,6.344,6.2631,6.1964,6.0686,5.998,6.0141,5.938,5.8968,5.9134,5.9965,6.0623,6.0683,6.0601,6.0579,6.0691,6.1416,6.1991,6.2065,6.265,6.3109,6.3132,6.4609,6.5651,6.5823,6.7276,6.8333,6.8449,6.8997,6.9468,6.9521,6.9521,6.95,6.9533,6.9496,6.9512,6.9641,7.0299,7.0439,6.9843,6.95,6.9571,6.955,6.9634,6.9701,6.9715,6.9692,6.9691,6.9729,6.9811,6.9887,6.9905,6.9958,7.0018,6.9993,7.0014,6.9988,6.9988,6.9988,6.9992,5.7625,5.7655,5.7655,5.7662,5.7619,5.7731,5.7839,5.7981,5.7942,5.7871,5.7985,5.7837,5.7912,5.7873,5.7875,5.7985,5.7985,5.7877,5.795,5.7983,5.7902,5.7939,5.8091,5.7981,5.7908,5.8018,5.802,5.8166,5.8168,5.9485,6.0876,6.2123,6.2269,6.2269,6.2562,6.2636,6.3516,6.5022,6.5058,6.4323,6.2856,6.2782,6.3443,6.4873,6.4909,6.5643,6.6965,6.7183,6.645,6.5093,6.4909,6.4286,6.3039,6.2636,6.2526,6.2562,6.2342,6.1718,6.0283,5.8977,5.8493,5.8685,5.8819,5.8933,5.9052,5.897,5.8857,5.8947,5.9037,5.9224,5.9089,5.9238,5.9425,5.9635,6.0607,6.1379,6.1574,6.2878,6.3956,6.4095,6.5564,6.662,6.6808,6.7977,6.8978,6.8903,6.9167,6.943,6.9449,6.9449,6.9449,6.943,6.9449,6.9447,6.9447,6.9411,6.943,6.9411,6.9523,6.9541,6.9576,6.9587,6.9596,6.9639,6.973,6.9789,6.9821,6.9887,6.9966,6.9973,6.9986,6.9998,6.9998,7.0004,6.9587,5.709,5.7143,5.7143,5.713,5.7151,5.7369,5.7553,5.777,5.7731,5.7553,5.7215,5.7176,5.7215,5.7179,5.714,5.7254,5.7328,5.7288,5.7475,5.7626,5.7734,5.7734,5.777,5.777,5.7698,5.7626,5.7552,5.7479,5.7515,5.7843,5.828,5.8535,5.8679,5.9375,6.0658,6.0804,6.1719,6.3183,6.2122,6.1866,6.2746,6.2782,6.2929,6.3296,6.3259,6.3479,6.3846,6.392,6.37,6.3333,6.3333,6.3149,6.2782,6.1536,6.0841,6.0694,5.9487,5.8574,5.8354,5.8192,5.8267,5.8544,5.8702,5.8821,5.8832,5.7878,5.7152,5.728,5.8252,5.8977,5.8977,5.9014,5.9089,5.9089,5.9486,5.9747,5.9808,6.1163,6.2181,6.2391,6.3849,6.4926,6.5189,6.6395,6.7451,6.7676,6.8617,6.9332,6.9407,6.9407,6.9407,6.9407,6.9407,6.9386,6.9424,6.9407,6.9407,6.9407,6.9447,6.9429,6.9449,6.9523,6.9593,6.955,6.9611,6.9553,6.9703,6.9707,6.9651,6.9609,6.9549,6.9752,6.9683,6.9689,6.9202,5.6747,5.6707,5.6663,5.6675,5.6729,5.6953,5.7215,5.7294,5.6492,5.6012,5.5738,5.5018,5.4729,5.4733,5.4733,5.4772,5.4886,5.5605,5.6009,5.6274,5.7076,5.7441,5.7478,5.7441,5.7439,5.7365,5.7215,5.7176,5.7176,5.7137,5.7212,5.7173,5.7239,5.7716,5.8679,5.8864,5.9779,6.1462,5.9816,5.9414,6.0364,6.0438,6.0804,6.1462,6.1425,6.1791,6.2484,6.2557,6.2153,6.1386,6.1389,6.1023,6.029,5.9375,5.8426,5.7622,5.6673,5.5837,5.5186,5.5401,5.5705,5.6106,5.6357,5.6487,5.6463,5.5837,5.542,5.5464,5.6233,5.7168,5.7878,5.7953,5.8229,5.8916,5.9052,5.9052,5.9164,5.998,6.0436,6.0623,6.2043,6.3177,6.3177,6.4683,6.5906,6.6846,6.7523,6.8538,6.9252,6.9402,6.9402,6.9402,6.9402,6.9402,6.9402,6.9402,6.9365,6.9284,6.9306,6.9327,6.9306,6.9352,6.9411,6.9411,6.8783,6.8561,6.8481,6.8002,6.7593,6.7642,6.7668,6.7653,6.7628,6.7635,6.7034,5.6421,5.6273,5.6261,5.6258,5.6309,5.6556,5.6711,5.6675,5.4696,5.3902,5.3872,5.2586,5.194,5.194,5.1976,5.1979,5.2057,5.3351,5.4078,5.4264,5.5753,5.6515,5.6769,5.6769,5.6913,5.7094,5.6941,5.6901,5.6901,5.6901,5.6937,5.6896,5.6916,5.6952,5.7004,5.7176,5.7986,5.9483,5.8095,5.7365,5.7513,5.7662,5.8319,5.9445,5.9518,6.017,6.1435,6.1472,6.0814,5.9434,5.9297,5.8568,5.688,5.6732,5.593,5.4182,5.3962,5.3387,5.2093,5.221,5.2569,5.3046,5.3528,5.3474,5.2952,5.3352,5.3629,5.3659,5.4075,5.4753,5.5949,5.6174,5.6652,5.7875,5.8235,5.8258,5.8048,5.8192,5.8349,5.8708,6.0147,6.1034,6.1505,6.2934,6.4495,6.5718,6.6169,6.7109,6.8387,6.8876,6.8763,6.8989,6.9215,6.9402,6.9381,6.9402,6.9343,6.924,6.8977,6.8654,6.8631,6.8361,6.8124,6.8425,6.7359,6.6788,6.6702,6.5567,6.5241,6.5235,6.5303,6.5226,6.5295,6.4657,6.417,5.593,5.5878,5.5856,5.5878,5.5882,5.619,5.627,5.6109,5.3093,0.0,0.0,5.1437,5.133,5.1252,5.128,5.128,5.133,5.1671,5.1939,5.2093,5.2701,5.3603,5.4743,5.4946,5.5702,5.6808,5.6808,5.6772,5.6802,5.6802,5.676,5.6632,5.6608,5.652,5.6368,5.6553,5.6874,5.7143,5.7086,5.7176,5.7515,5.7662,5.7808,5.7952,5.7952,5.8024,5.8238,5.82,5.8016,5.7647,5.7608,5.6805,5.5021,5.481,5.3926,5.2205,5.1819,5.1628,5.1344,5.1552,5.1832,5.2139,5.2902,5.2171,4.9177,5.0613,5.1682,5.1778,5.3076,5.4016,5.4276,5.4314,5.4439,5.4689,5.4763,5.4825,5.4774,5.4761,5.5478,5.6727,5.7376,5.804,5.9568,6.1222,6.2446,6.2841,6.4006,6.5417,6.6696,6.6244,6.5868,6.7147,6.8237,6.9193,6.9209,6.9074,6.924,6.8894,6.7895,6.7182,6.692,6.5982,6.5201,6.5447,6.5076,6.4874,6.4907,6.4563,6.4649,6.4724,6.4786,6.4791,6.4669,6.2736,6.0935,5.554,5.5497,5.5498,5.5529,0.0,5.4952,5.4209,5.3349,5.1749,5.069,4.9877,4.9051,4.862,4.8655,4.8605,4.8605,4.8691,4.9552,4.9991,5.0195,5.1226,5.2098,5.2884,5.3002,5.3437,5.4069,5.4027,5.3949,5.4021,5.4021,5.3978,5.3848,5.3796,5.3707,5.3572,5.4462,5.5031,5.5214,5.6299,5.7058,5.7441,5.7626,5.7662,5.7552,5.7552,0.0,0.0,0.0,0.0,0.0,0.0,0.0,0.0,5.3193,0.0,4.8853,4.8464,4.7711,4.6124,4.6189,4.6747,4.7765,4.8458,4.811,4.6391,4.8233,4.9594,4.9778,5.0619,5.1509,5.2288,5.2362,5.267,5.3444,5.3608,5.3634,5.3623,5.3711,5.4144,5.5059,5.5972,5.6772,5.7778,5.9414,6.0713,6.1675,6.2559,6.3648,6.5021,6.4157,6.3686,6.5339,6.6391,6.6804,6.6724,6.6686,6.662,6.6489,6.5866,6.5355,6.5231,6.4582,6.4045,6.4092,6.3477,6.3019,6.3029,6.2391,6.1882,6.2014,6.2064,6.1914,6.1019,5.9693,5.8524,5.48,5.4642,5.4365,5.4349,5.4318,5.2849,5.1513,5.0299,5.0117,4.9352,4.8085,4.6763,4.6195,4.6195,4.6068,4.6026,4.6216,4.752,4.8097,4.8303,4.9715,5.0585,5.0953,5.0953,5.1137,5.1415,5.133,5.1287,5.1244,5.128,5.1236,5.107,5.107,5.0936,5.0849,0.0,0.0,0.0,5.5162,5.6693,5.7366,5.7662,5.7698,5.7589,5.7552,0.0,5.7173,5.7098,5.6946,5.6454,5.5143,0.0,0.0,0.0,0.0,0.0,0.0,0.0,0.0,0.0,0.0,0.0,4.3346,4.3456,4.3918,4.5686,4.7062,4.7572,4.8114,4.8994,5.0173,5.0284,5.078,5.1951,5.2252,5.2375,5.2375,5.2449,5.2793,5.3216,5.4776,5.5929,5.6555,5.7953,5.959,6.0935,6.1239,6.186,6.3119,6.2102,6.1952,6.3436,6.3908,6.402,6.4262,6.4331,6.4391,6.3922,6.3761,6.3449,6.3297,6.3136,6.2901,6.2851,6.198,6.1079,6.1095,6.0142,5.9513,5.9493,5.9501,5.8891,5.7044,5.6674,5.6683,5.2858,5.2698,5.1338,5.0906,5.0888,4.9217,4.8588,4.8632,4.7402,4.6747,4.6536,4.6223,4.6068,4.6068,4.5845,4.5722,4.5757,4.6054,4.6246,4.6289,4.6721,4.7655,4.8921,4.8987,4.9736,5.1105,5.1122,5.1122,5.1175,5.1175,5.1042,5.0814,5.0814,5.0627,5.0207,4.9098,4.8697,4.8972,5.2854,5.5799,5.7626,5.7841,5.7804,5.7735,5.7735,5.7515,5.7173,5.7098,5.64,5.4861,5.4451,5.2807,4.9644,4.7613,4.5583,0.0,4.1821,0.0,0.0,0.0,0.0,0.0,0.0,0.0,0.0,4.2247,4.3379,4.5328,4.6959,4.793,4.8051,4.8051,4.8061,4.8187,4.8292,4.8456,4.8544,4.8635,4.936,5.113,5.268,5.4342,5.5915,5.7691,5.8772,5.9178,5.9284,5.9344,5.956,5.9486,5.998,6.1732,6.2038,6.2547,6.359,6.3858,6.3785,6.3673,6.2663,6.1779,6.1679,6.0598,5.9592,5.9617,5.9542,5.9306,5.9266,5.9201,5.9179,5.9192,5.9139,5.823,5.5595,5.4851,5.4974,5.0872,5.0715,5.0078,4.8707,4.6966,4.6326,4.6297,4.6739,4.6348,4.6201,4.6284,4.6201,4.6076,4.5897,4.5678,4.5499,4.5488,4.5589,4.5713,4.5801,4.5975,4.6488,4.7204,4.7219,4.757,4.8308,4.8229,4.8229,4.8211,4.8167,4.7953,4.7724,4.7724,4.7442,4.692,4.6515,4.6927,4.8218,5.1363,5.4561,5.7589,5.7839,5.7837,5.7732,5.7732,5.7589,5.729,5.6343,5.5389,5.4307,5.2419,5.0095,4.7374,4.5409,4.3141,0.0,0.0,0.0,0.0,0.0,0.0,0.0,0.0,0.0,0.0,0.0,4.0937,4.2992,4.4907,4.6407,4.713,4.6412,4.5769,4.563,4.563,4.5736,4.5977,4.6837,4.7831,4.8872,5.0462,5.1928,5.2928,5.5322,5.7053,5.7268,5.6335,5.5662,5.58,5.6747,5.7691,5.8594,5.9523,6.0481,6.1121,6.1096,6.1056,6.0902,6.029,5.9817,5.9789,5.9185,5.8665,5.8665,5.8718,5.8781,5.8784,5.8846,5.856,5.7953,5.7104,5.5665,5.3471,5.3036,5.3171,4.8879,4.86,4.7411,4.5411,4.3072,4.3359,4.3816,4.4339,4.474,4.4977,4.5025,4.5113,4.499,4.475,4.4506,4.4467,4.4754,4.4811,4.5108,4.5589,4.5713,4.5801,4.5897,4.5897,4.5862,4.5819,4.5757,4.5633,4.5668,4.5533,4.5282,4.5049,4.4237,4.383,4.3729,4.4265,4.5591,4.7721,5.0111,5.3004,5.6458,5.7471,5.7905,5.7766,5.7731,5.7406,5.6785,5.5511,5.4231,5.3079,5.0076,4.7511,4.5509,4.327,0.0,0.0,0.0,0.0,0.0,0.0,0.0,0.0,0.0,3.3828,3.6525,0.0,3.8288,0.0,4.2532,4.4381,4.5446,4.445,0.0,0.0,4.3371,4.3446,4.3702,4.5234,4.6344,4.6594,4.853,4.9966,5.0231,5.287,5.4673,5.441,5.3425,5.2824,5.3113,5.4378,5.5349,5.573,5.6723,5.7567,5.7565,5.746,5.7415,5.7228,5.7228,5.7264,5.7243,5.7264,5.7285,5.7322,5.7405,5.7497,5.7402,5.7476,5.6896,5.5532,5.4253,5.2861,5.1349,5.1149,5.1223,4.692,4.6289,4.1388,3.9349,3.9318,3.9867,4.0377,4.083,4.1366,4.1596,4.1631,4.1724,4.175,4.156,4.1187,0.0,4.3153,4.3153,4.3953,4.535,4.5316,4.5362,4.5362,4.5362,4.5316,4.5211,4.5177,4.513,4.4988,4.4892,4.465,4.4334,4.1288,4.049,4.1969,4.2631,4.4066,4.6389,4.8852,5.1124,5.3243,5.6402,5.8042,5.7871,5.7805,5.6897,5.5296,5.482,5.3105,4.9954,4.7901,4.5842,4.366,0.0,0.0,0.0,0.0,0.0,0.0,0.0,0.0,0.0,0.0,0.0,0.0,0.0,0.0,3.6799,3.9915,0.0,4.1842,4.1626,0.0,0.0,0.0,4.1323,4.1475,4.296,4.4068,4.419,0.0,0.0,4.9429,5.1126,5.1814,5.0116,5.1309,5.2428,5.2702,5.3002,5.3327,5.3481,5.3806,5.3898,5.4046,5.3952,5.3938,5.3842,5.3614,5.3835,5.3871,5.3915,5.3917,5.4065,5.3972,5.4174,5.41,5.4127,5.3534,5.1757,5.1357,5.0904,4.9507,4.9257,4.9387,4.1806,4.1037,3.8791,3.8165,3.8527,3.8976,3.9476,4.0117,4.058,4.0841,4.0827,4.1075,4.1065,4.0822,4.058,0.0,0.0,0.0,4.2187,4.3748,4.3839,4.4319,4.5142,4.5083,4.4988,4.4844,4.4665,4.4092,4.315,4.3004,4.1722,3.9307,0.0,3.7877,3.8897,4.1372,4.3416,4.5038,4.8245,5.0904,5.2943,5.5334,5.654,5.6372,5.5358,5.4312,5.3261,5.2171,5.0357,4.7747,4.5726,4.2905,0.0,0.0,0.0,0.0,0.0,0.0,0.0,0.0,0.0,0.0,0.0,2.9759,3.0775,0.0,0.0,0.0,3.6748,3.8977,4.0852,4.0154,0.0,0.0,0.0,0.0,0.0,0.0,0.0,4.3223,4.4745,4.6119,4.7273,4.7946,4.8123,4.7606,4.8377,4.9144,4.9465,0.0,5.1348,5.1494,5.2368,5.2923,5.2801,5.2735,5.2599,5.2496,5.2671,5.2772,5.2772,5.297,5.3095,5.3126,5.3246,5.3399,5.3399,5.1569,4.9852,4.9236,4.9112,4.9079,4.8563,4.8534,4.8704,3.6238,0.0,0.0,0.0,0.0,3.6154,3.6647,3.7279,3.7687,3.7944,3.7971,3.8171,0.0,0.0,0.0,0.0,0.0,0.0,4.0015,4.195,4.2108,4.2665,4.3644,4.3537,4.3327,4.3135,4.2924,4.2206,4.1023,3.9518,3.7161,3.4005,0.0,0.0,0.0,0.0,4.2279,4.427,4.7563,5.0536,5.3002,5.4295,5.5103,5.5452,5.372,5.2136,5.0802,4.9427,4.7549,4.5057,4.2626,0.0,0.0,0.0,0.0,0.0,0.0,0.0,0.0,0.0,0.0,0.0,0.0,0.0,0.0,0.0,0.0,0.0,0.0,0.0,3.8414,3.8071,3.7649,0.0,0.0,0.0,0.0,0.0,0.0,0.0,0.0,0.0,4.4948,4.5114,4.5417,0.0,0.0,4.6985,4.7277,4.8494,4.9422,4.9443,5.0321,0.0,5.0839,5.0657,5.0509,5.0433,5.0583,5.0767,5.0767,5.1016,5.1224,5.1221,5.1453,5.1182,5.0175,4.7884,4.6351,4.627,4.6364,4.6419,4.6502,4.6674,4.6948,0.0,0.0,0.0,0.0,2.9733,0.0,0.0,0.0,3.1386,3.1665,0.0,3.1836,0.0,0.0,0.0,0.0,3.5257,3.544,0.0,0.0,4.0086,4.0187,4.0199,4.0142,3.9831,3.9433,3.9337,3.9044,3.8453,3.3939,3.0773,0.0,0.0,0.0,0.0,0.0,4.0353,4.4201,4.6656,4.9575,5.2954,5.3356,5.4166,5.5444,5.3548,5.0911,4.7778,4.7023,4.508,4.1514,3.8253,0.0,0.0,0.0,0.0,0.0,0.0,0.0,0.0,0.0,0.0,0.0,0.0,0.0,0.0,0.0,0.0,0.0,0.0,0.0,0.0,3.492,0.0,0.0,0.0,0.0,0.0,0.0,0.0,0.0,0.0,4.2575,4.2654,4.3098,4.4078,4.5859,0.0,0.0,0.0,0.0,4.749,4.7384,4.7277,4.7167,4.6974,4.6703,4.6512,4.6506,0.0,0.0,4.6796,4.7094,4.7348,4.7384,4.7559,4.6479,4.3132,4.2669,4.2557,4.2623,4.2757,4.2606,4.2638,4.3076,4.3648,0.0,0.0,0.0,0.0,0.0,0.0,0.0,0.0,0.0,3.0878,3.0914,3.0947,0.0,0.0,0.0,0.0,0.0,0.0,0.0,0.0,3.6721,3.7758,3.9537,3.9205,3.8962,3.8599,3.7456,3.5207,0.0,0.0,0.0,0.0,0.0,0.0,0.0,0.0,3.9615,4.2675,4.6076,4.9534,5.2844,5.2128,5.2385,5.3834,5.2013,4.9178,4.5414,4.387,4.1521,0.0,0.0,0.0,0.0,0.0,0.0,0.0,0.0,0.0,0.0,0.0,0.0,0.0,0.0,0.0,0.0,0.0,0.0,0.0,0.0,0.0,0.0,0.0,3.431,0.0,0.0,0.0,0.0,0.0,0.0,0.0,0.0,0.0,3.9176,4.1357,4.3279,4.414,4.5696,4.6799,4.7025,0.0,0.0,0.0,0.0,0.0,0.0,0.0,4.5731,4.5643,4.5564,4.5609,4.5836,4.6054,4.5867,4.5105,0.0,0.0,4.1661,4.1422,4.1606,4.1606,4.1609,4.1611,4.1611,4.1894,4.231,0.0,0.0,0.0,0.0,0.0,0.0,0.0,0.0,0.0,2.9126,2.9161,0.0,0.0,0.0,0.0,0.0,0.0,0.0,0.0,0.0,0.0,0.0,3.6048,3.5728,0.0,0.0,0.0,0.0,0.0,0.0,0.0,0.0,0.0,0.0,0.0,0.0,3.833,4.1788,4.5283,4.8732,5.2111,5.1253,5.1217,5.2154,5.085,4.8277,4.4414,0.0,0.0,0.0,0.0,0.0,0.0,0.0,0.0,0.0,0.0,0.0,0.0,0.0,0.0,0.0,0.0,0.0,0.0,0.0,0.0,0.0,0.0,0.0,0.0,0.0,3.3219,0.0,0.0,0.0,0.0,0.0,0.0,0.0,0.0,0.0,0.0,3.9692,4.204,4.3054,4.5142,4.6683,4.6987,4.7097,4.7133,0.0,0.0,0.0,0.0,0.0,0.0,0.0,0.0,0.0,0.0,0.0,0.0,0.0,4.2071,4.1089,3.9311,3.9117,3.9138,3.8693,0.0,0.0,0.0,0.0,0.0,0.0,0.0,0.0,0.0,0.0,0.0,0.0,0.0,0.0,0.0,2.6072,0.0,0.0,2.5908,0.0,0.0,0.0,0.0,0.0,0.0,0.0,0.0,0.0,0.0,0.0,0.0,0.0,0.0,0.0,0.0,0.0,0.0,0.0,0.0,0.0,0.0,3.6349,4.1717,4.4241,4.7238,5.0644,5.0666,5.0637,5.0597,5.0097,4.824,4.47,0.0,0.0,0.0,0.0,0.0,0.0,0.0,0.0,0.0,0.0,0.0,0.0,0.0,0.0,0.0,0.0,0.0,0.0,0.0,0.0,0.0,0.0,0.0,0.0,0.0,0.0,3.3076,3.4484,3.54,0.0,0.0,0.0,0.0,0.0,0.0,0.0,0.0,0.0,4.2535,4.4789,4.6416,4.6946,4.7057,4.6984,4.6834,4.6526,4.6166,4.5854,4.5668,4.5316,0.0,0.0,0.0,0.0,0.0,0.0,0.0,0.0,0.0,0.0,0.0,0.0,0.0,0.0,0.0,0.0,0.0,0.0,0.0,0.0,0.0,0.0,0.0,0.0,0.0,0.0,0.0,0.0,0.0,0.0,0.0,0.0,0.0,0.0,0.0,0.0,0.0,0.0,0.0,0.0,0.0,0.0,0.0,0.0,0.0,0.0,0.0,0.0,0.0,0.0,0.0,0.0,0.0,0.0,3.6174,4.1612,4.4205,4.7201,5.0644,4.9581,4.9441,5.045,4.8915,4.6344,0.0,0.0,0.0,0.0,0.0,0.0,0.0,0.0,0.0,0.0,0.0,0.0,0.0,0.0,0.0,0.0,0.0,0.0,0.0,0.0,0.0,0.0,0.0,0.0,0.0,0.0,0.0,0.0,3.3416,3.4092,3.495,0.0,0.0,0.0,0.0,0.0,0.0,0.0,0.0,0.0,0.0,4.4902,4.6389,4.6757,4.6757,4.657,4.6325,4.6033,4.5722,4.5362,4.494,4.4418,0.0,0.0,0.0,0.0,0.0,0.0,0.0,0.0,0.0,0.0,0.0,0.0,0.0,0.0,0.0,0.0,0.0,0.0,0.0,0.0,0.0,0.0,0.0,0.0,0.0,0.0,0.0,0.0,0.0,0.0,0.0,0.0,0.0,0.0,0.0,0.0,0.0,0.0,0.0,0.0,0.0,0.0,0.0,0.0,0.0,0.0,0.0,0.0,0.0,0.0,0.0,0.0,0.0,3.5479,4.147,4.3492,4.6217,4.9551,4.8745,4.8614,4.9445,4.7987,4.5416,0.0,0.0,0.0,0.0,0.0,0.0,0.0,0.0,0.0,0.0,0.0,0.0,0.0,0.0,0.0,0.0,0.0,0.0,0.0,0.0,0.0,0.0,0.0,0.0,0.0,0.0,0.0,0.0,3.1932,3.3073,3.3911,0.0,0.0,0.0,0.0,0.0,0.0,0.0,0.0,0.0,0.0,4.3959,4.5914,4.6284,0.0,0.0,4.6033,4.5888,4.5668,4.527,4.4762,4.4047,4.2249,0.0,0.0,0.0,0.0,0.0,0.0,0.0,0.0,0.0,0.0,0.0,0.0,0.0,0.0,0.0,0.0,0.0,0.0,0.0,0.0,0.0,0.0,0.0,0.0,0.0,0.0,0.0,0.0,0.0,0.0,0.0,0.0,0.0,0.0,0.0,0.0,0.0,0.0,0.0,0.0,0.0,0.0,0.0,0.0,0.0,0.0,0.0,0.0,0.0,0.0,0.0,0.0,3.4409,4.1328,4.2458,4.4665,4.8057,4.8232,4.8072,4.7832,4.7309,4.5197,0.0,0.0,0.0,0.0,0.0,0.0,0.0,0.0,0.0,0.0,0.0,0.0,0.0,0.0,0.0,0.0,0.0,0.0,0.0,0.0,0.0,0.0,0.0,0.0,0.0,0.0,0.0,0.0,0.0,0.0,0.0,0.0,0.0,0.0,0.0,0.0,0.0,0.0,0.0,0.0,0.0,4.329,4.5312,4.5687,4.5775,0.0,4.5678,4.5544,4.5453,4.512,4.451,4.3504,0.0,0.0,0.0,0.0,0.0,0.0,0.0,0.0,0.0,0.0,0.0,0.0,0.0,0.0,0.0,0.0,0.0,0.0,0.0,0.0,0.0,0.0,0.0,0.0,0.0,0.0,0.0,0.0,0.0,0.0,0.0,0.0,0.0,0.0,0.0,0.0,0.0,0.0,0.0,0.0,0.0,0.0,0.0,0.0,0.0,0.0,0.0,0.0,0.0,0.0,0.0,0.0,0.0,0.0,4.129,4.2327,4.4571,4.8072,4.824,4.8072,4.7832,4.7133,0.0,0.0,0.0,0.0,0.0,0.0,0.0,0.0,0.0,0.0,0.0,0.0,0.0,0.0,0.0,0.0,0.0,0.0,0.0,0.0,0.0,0.0,0.0,0.0,0.0,0.0,0.0,2.5601,0.0,0.0,0.0,0.0,0.0,0.0,0.0,0.0,0.0,0.0,0.0,0.0,0.0,0.0,4.1528,4.4422,4.4906,4.5001,0.0,0.0,4.481,4.4892,4.37,4.2488,0.0,0.0,0.0,0.0,0.0,0.0,0.0,0.0,0.0,0.0,0.0,0.0,0.0,0.0,0.0,0.0,0.0,0.0,0.0,0.0,0.0,0.0,0.0,0.0,0.0,0.0,0.0,0.0,0.0,0.0,0.0,0.0,0.0,0.0,0.0,0.0,0.0,0.0,0.0,0.0,0.0,0.0,0.0,0.0,0.0,0.0,0.0,0.0,0.0,0.0,0.0,0.0,0.0,0.0,3.4082,4.0964,4.2128,4.4416,4.8043,4.8248,4.805,4.7807,4.7062,4.4897,0.0,0.0,0.0,0.0,0.0,0.0,0.0,0.0,0.0,0.0,0.0,0.0,0.0,0.0,0.0,0.0,0.0,0.0,0.0,0.0,0.0,0.0,0.0,0.0,0.0,0.0,0.0,0.0,0.0,0.0,0.0,0.0,0.0,0.0,0.0,0.0,0.0,0.0,0.0,0.0,0.0,0.0,4.3526,4.3461,0.0,0.0,0.0,4.2316,4.2494,0.0,0.0,0.0,0.0,0.0,0.0,0.0,0.0,0.0,0.0,0.0,0.0,0.0,0.0,0.0,0.0,0.0,0.0,0.0,0.0,0.0,0.0,0.0,0.0,0.0,0.0,0.0,0.0,0.0,0.0,0.0,0.0,0.0,0.0,0.0,0.0,0.0,0.0,0.0,0.0,0.0,0.0,0.0,0.0,0.0,0.0,0.0,0.0,0.0,0.0,0.0,0.0,0.0,0.0,0.0,0.0,0.0,4.0179,4.1713,4.4149,4.7685,4.808,4.81,4.7816,4.7026,4.4745,0.0,0.0,0.0,0.0,0.0,0.0,0.0,0.0,0.0,0.0,0.0,0.0,0.0,0.0,0.0,0.0,0.0,0.0,0.0,0.0,0.0,0.0,0.0,0.0,0.0,0.0,0.0,0.0,0.0,0.0,0.0,0.0,0.0,0.0,0.0,0.0,0.0,0.0,0.0,0.0,0.0,3.9591,4.2581,4.1848,4.108,0.0,0.0,3.9187,3.9457,3.9135,0.0,0.0,0.0,0.0,0.0,0.0,0.0,0.0,0.0,0.0,0.0,0.0,0.0,0.0,0.0,0.0,0.0,0.0,0.0,0.0,0.0,0.0,0.0,0.0,0.0,0.0,0.0,0.0,0.0,0.0,0.0,0.0,0.0,0.0,0.0,0.0,0.0,0.0,0.0,0.0,0.0,0.0,0.0,0.0,0.0,0.0,0.0,0.0,0.0,0.0,0.0,0.0,0.0,0.0,0.0,0.0,3.7073,4.0466,4.3462,4.5962,4.7466,4.81,4.778,4.6954,4.4631,0.0,0.0,0.0,0.0,0.0,0.0,0.0,0.0,0.0,0.0,0.0,0.0,0.0,0.0,0.0,0.0,0.0,0.0,0.0,0.0,0.0,0.0,0.0,0.0,0.0,0.0,0.0,0.0,0.0,0.0,0.0,0.0,0.0,0.0,0.0,0.0,0.0,0.0,0.0,0.0,0.0,3.8655,4.1483,4.0832,0.0,0.0,0.0,0.0,3.8498,3.7456,0.0,0.0,0.0,0.0,0.0,0.0,0.0,0.0,0.0,0.0,0.0,0.0,0.0,0.0,0.0,0.0,0.0,0.0,0.0,0.0,0.0,0.0,0.0,0.0,0.0,0.0,0.0,0.0,0.0,0.0,0.0,0.0,0.0,0.0,0.0,0.0,0.0,0.0,0.0,0.0,0.0,0.0,0.0,0.0,0.0,0.0,0.0,0.0,0.0,0.0,0.0,0.0,0.0,0.0,0.0,0.0,3.592,3.9881,4.3069,4.5437,4.7224,4.8034,4.778,4.6953,4.4516,0.0,0.0,0.0,0.0,0.0,0.0,0.0,0.0,0.0,0.0,0.0,0.0,0.0,0.0,0.0,0.0,0.0,0.0,0.0,0.0,0.0,0.0,0.0,0.0,0.0,0.0,0.0,0.0,0.0,0.0,0.0,0.0,0.0,0.0,0.0,0.0,0.0,0.0,0.0,0.0,3.6647,3.7652,3.9802,0.0,0.0,0.0,0.0,0.0,0.0,3.5025,3.435,0.0,0.0,0.0,0.0,0.0,0.0,0.0,0.0,0.0,0.0,0.0,0.0,0.0,0.0,0.0,0.0,0.0,0.0,0.0,0.0,0.0,0.0,0.0,0.0,0.0,0.0,0.0,0.0,0.0,0.0,0.0,0.0,0.0,0.0,0.0,0.0,0.0,0.0,0.0,0.0,0.0,0.0,0.0,0.0,0.0,0.0,0.0,0.0,0.0,0.0,0.0,0.0,0.0,0.0,0.0,3.4939,3.9035,4.2454,4.4978,4.6698,4.7681,4.778,4.6703,4.409,3.9967,0.0,0.0,0.0,0.0,0.0,0.0,0.0,0.0,0.0,0.0,0.0,0.0,0.0,0.0,0.0,0.0,0.0,0.0,0.0,0.0,0.0,0.0,0.0,0.0,0.0,0.0,0.0,0.0,0.0,0.0,0.0,0.0,0.0,0.0,0.0,0.0,0.0,0.0,0.0,3.5713,3.6621,0.0,0.0,0.0,0.0,0.0,0.0,0.0,0.0,3.2655,0.0,0.0,0.0,0.0,0.0,0.0,0.0,0.0,0.0,0.0,0.0,0.0,0.0,0.0,0.0,0.0,0.0,0.0,0.0,0.0,0.0,0.0,0.0,0.0,0.0,0.0,0.0,0.0,0.0,0.0,0.0,0.0,0.0,0.0,0.0,0.0,0.0,0.0,0.0,0.0,0.0,0.0,0.0,0.0,0.0,0.0,0.0,0.0,0.0,0.0,0.0,0.0,0.0,0.0,0.0,0.0,3.6622,4.0549,4.3131,4.4935,4.6522,4.7743,4.5666,4.2431,3.8106,0.0,0.0,0.0,0.0,0.0,0.0,0.0,0.0,0.0,0.0,0.0,0.0,0.0,0.0,0.0,0.0,0.0,0.0,0.0,0.0,0.0,0.0,0.0,0.0,0.0,0.0,0.0,0.0,0.0,0.0,0.0,0.0,0.0,0.0,0.0,0.0,0.0,0.0,3.1659,3.3783,0.0,0.0,0.0,0.0,0.0,0.0,0.0,0.0,3.2127,0.0,0.0,0.0,0.0,0.0,0.0,0.0,0.0,0.0,0.0,0.0,0.0,0.0,0.0,0.0,0.0,0.0,0.0,0.0,0.0,0.0,0.0,0.0,0.0,0.0,0.0,0.0,0.0,0.0,0.0,0.0,0.0,0.0,0.0,0.0,0.0,0.0,0.0,0.0,0.0,0.0,0.0,0.0,0.0,0.0,0.0,0.0,0.0,0.0,0.0,0.0,0.0,0.0,0.0,0.0,0.0,0.0,0.0,3.9496,4.1302,4.3124,4.4446,4.5007,4.2743,4.0175,0.0,0.0,0.0,0.0,0.0,0.0,0.0,0.0,0.0,0.0,0.0,0.0,0.0,0.0,0.0,0.0,0.0,0.0,0.0,0.0,0.0,0.0,0.0,0.0,0.0,0.0,0.0,0.0,0.0,0.0,0.0,0.0,0.0,0.0,0.0,0.0,0.0,0.0,0.0,0.0,0.0,0.0,0.0,0.0,0.0,0.0,0.0,0.0,0.0,0.0,0.0,0.0,0.0,0.0,0.0,0.0,0.0,0.0,0.0,0.0,0.0,0.0,0.0,0.0,0.0,0.0,0.0,0.0,0.0,0.0,0.0,0.0,0.0,0.0,0.0,0.0,0.0,0.0,0.0,0.0,0.0,0.0,0.0,0.0,0.0,0.0,0.0,0.0,0.0,0.0,0.0,0.0,0.0,0.0,0.0,0.0,0.0,0.0,0.0,0.0,0.0,0.0,0.0,0.0,0.0,0.0,0.0,0.0,3.8127,3.9944,4.1536,4.2486,4.2685,3.9949,3.7864,0.0,0.0,0.0,0.0,0.0,0.0,0.0,0.0,0.0,0.0,0.0,0.0,0.0,0.0,0.0,0.0,0.0,0.0,0.0,0.0,0.0,0.0,0.0,0.0,0.0,0.0,0.0,0.0,0.0,0.0,0.0,0.0,0.0,0.0,0.0,0.0,0.0,0.0,0.0,0.0,0.0,0.0,0.0,0.0,0.0,0.0,0.0,0.0,3.1371,0.0,0.0,0.0,0.0,0.0,0.0,0.0,0.0,0.0,0.0,0.0,0.0,0.0,0.0,0.0,0.0,0.0,0.0,0.0,0.0,0.0,0.0,0.0,0.0,0.0,0.0,0.0,0.0,0.0,0.0,0.0,0.0,0.0,0.0,0.0,0.0,0.0,0.0,0.0,0.0,0.0,0.0,0.0,0.0,0.0,0.0,0.0,0.0,0.0,0.0,0.0,0.0,0.0,0.0,0.0,0.0,0.0,0.0,0.0,3.5654,3.9583,4.0252,4.1188,4.2417,3.8722,3.5604,0.0,0.0,0.0,0.0,0.0,0.0,0.0,0.0,0.0,0.0,0.0,0.0,0.0,0.0,0.0,0.0,0.0,0.0,0.0,0.0,0.0,0.0,0.0,0.0,0.0,0.0,0.0,0.0,0.0,0.0,0.0,0.0,0.0,0.0,0.0,0.0,0.0,0.0,0.0,0.0,0.0,0.0,0.0,0.0,0.0,0.0,0.0,0.0,0.0,0.0,0.0,0.0,0.0,0.0,0.0,0.0,0.0,0.0,0.0,0.0,0.0,0.0,0.0,0.0,0.0,0.0,0.0,0.0,0.0,0.0,0.0,0.0,0.0,0.0,0.0,0.0,0.0,0.0,0.0,0.0,0.0,0.0,0.0,0.0,0.0,0.0,0.0,0.0,0.0,0.0,0.0,0.0,0.0,0.0,0.0,0.0,0.0,0.0,0.0,0.0,0.0,0.0,0.0,0.0,0.0,0.0,0.0,0.0,3.4507,3.7758,3.8233,3.8624,3.907,3.6279,3.4113,0.0,0.0,0.0,0.0,0.0,0.0,0.0,0.0,0.0,0.0,0.0,0.0,0.0,0.0,0.0,0.0,0.0,0.0,0.0,0.0,0.0,0.0,0.0,0.0,0.0,0.0,0.0,0.0,0.0,0.0,0.0,0.0,0.0,0.0,0.0,0.0,0.0,0.0,0.0,0.0,0.0,0.0,0.0,0.0,0.0,0.0,0.0,0.0,0.0,0.0,0.0,0.0,0.0,0.0,0.0,0.0,0.0,0.0,0.0,0.0,0.0,0.0,0.0,0.0,0.0,0.0,0.0,0.0,0.0,0.0,0.0,0.0,0.0,0.0,0.0,0.0,0.0,0.0,0.0,0.0,0.0,0.0,0.0,0.0,0.0,0.0,0.0,0.0,0.0,0.0,0.0,0.0,0.0,0.0,0.0,0.0,0.0,0.0,0.0,0.0,0.0,0.0,0.0,0.0,0.0,0.0,0.0,0.0,0.0,3.5679,3.5959,3.5966,3.5685,3.4189,3.2759,0.0,0.0,0.0,0.0,0.0,0.0,0.0,0.0,0.0,0.0,0.0,0.0,0.0,0.0,0.0,0.0,0.0,0.0,0.0,0.0,0.0,0.0,0.0,0.0,0.0,0.0,0.0,0.0,0.0,0.0,0.0,0.0,0.0,0.0,0.0,0.0,0.0,0.0,0.0,0.0,0.0,0.0,0.0,0.0,0.0,0.0,0.0,0.0,0.0,0.0,0.0,0.0,0.0,0.0,0.0,0.0,0.0,0.0,0.0,0.0,0.0,0.0,0.0,0.0,0.0,0.0,0.0,0.0,0.0,0.0,0.0,0.0,0.0,0.0,0.0,0.0,0.0,0.0,0.0,0.0,0.0,0.0,0.0,0.0,0.0,0.0,0.0,0.0,0.0,0.0,0.0,0.0,0.0,0.0,0.0,0.0,0.0,0.0,0.0,0.0,0.0,0.0,0.0,0.0,0.0,0.0,0.0,0.0,0.0,3.3754,3.3571,3.3459,3.3456,3.3091,3.1336,0.0,0.0,0.0,0.0,0.0,0.0,0.0,0.0,0.0,0.0,0.0,0.0,0.0,0.0,0.0,0.0,0.0,0.0,0.0,0.0,0.0,0.0,0.0,0.0,0.0,0.0,0.0,0.0,0.0,0.0,0.0,0.0,0.0,0.0,0.0,0.0,0.0,0.0,0.0,0.0,0.0,0.0,0.0,0.0,0.0,0.0,0.0,0.0,0.0,0.0,0.0,0.0,0.0,0.0,0.0,0.0,0.0,0.0,0.0,0.0,0.0,0.0,0.0,0.0,0.0,0.0,0.0,0.0,0.0,0.0,0.0,0.0,0.0,0.0,0.0,0.0,0.0,0.0,0.0,0.0,0.0,0.0,0.0,0.0,0.0,0.0,0.0,0.0,0.0,0.0,0.0,0.0,0.0,0.0,0.0,0.0,0.0,0.0,0.0,0.0,0.0,0.0,0.0,0.0,0.0,0.0,0.0,0.0,0.0,2.9706,3.0773,3.1308,3.1417,3.0226,2.8871,2.7415,0.0,0.0,0.0,0.0,0.0,0.0,0.0,0.0,0.0,0.0,0.0,0.0,0.0,0.0,0.0,0.0,0.0,0.0,0.0,0.0,0.0,0.0,0.0,0.0,0.0,0.0,0.0,0.0,0.0,0.0,0.0,0.0,0.0,0.0,0.0,0.0,0.0,0.0,0.0,0.0,0.0,0.0,0.0,0.0,0.0,0.0,0.0,0.0,0.0,0.0,0.0,0.0,0.0,0.0,0.0,0.0,0.0,0.0,0.0,0.0,0.0,0.0,0.0,0.0,0.0,0.0,0.0,0.0,0.0,0.0,0.0,0.0,0.0,0.0,0.0,0.0,0.0,0.0,0.0,0.0,0.0,0.0,0.0,0.0,0.0,0.0,0.0,0.0,0.0,0.0,0.0,0.0,0.0,0.0,0.0,0.0,0.0,0.0,0.0,0.0,0.0,0.0,0.0,0.0,0.0,0.0,0.0,0.0,2.7128,2.8501,2.9173,2.925,2.8049,2.7039,0.0,0.0,0.0,0.0,0.0,0.0,0.0,0.0,0.0,0.0,0.0,0.0,0.0,0.0,0.0,0.0,0.0,0.0,0.0,0.0,0.0,0.0,0.0,0.0,0.0,0.0,0.0,0.0,0.0,0.0,0.0,0.0,0.0,0.0,0.0,0.0,0.0,0.0,0.0,0.0,0.0,0.0,0.0,0.0,0.0,0.0,0.0,0.0,0.0,0.0,0.0,0.0,0.0,0.0,0.0,0.0,0.0,0.0,0.0,0.0,0.0,0.0,0.0,0.0,0.0,0.0,0.0,0.0,0.0,0.0,0.0,0.0,0.0,0.0,0.0,0.0,0.0,0.0,0.0,0.0,0.0,0.0,0.0,0.0,0.0,0.0,0.0,0.0,0.0,0.0,0.0,0.0,0.0,0.0,0.0,0.0,0.0,0.0,0.0,0.0,0.0,0.0,0.0,0.0,0.0,0.0,0.0,0.0,2.415,2.6487,2.6903,2.7053,2.7053,2.688,2.5977,0.0,0.0,0.0,0.0,0.0,0.0,0.0,0.0,0.0,0.0,0.0,0.0,0.0,0.0,0.0,0.0,0.0,0.0,0.0,0.0,0.0,0.0,0.0,0.0,0.0,0.0,0.0,0.0,0.0,0.0,0.0,0.0,0.0,0.0,0.0,0.0,0.0,0.0,0.0,0.0,0.0,0.0,0.0,0.0,0.0,0.0,0.0,0.0,0.0,0.0,0.0,0.0,0.0,0.0,0.0,0.0,0.0,0.0,0.0,0.0,0.0,0.0,0.0,0.0,0.0,0.0,0.0,0.0,0.0,0.0,0.0,0.0,0.0,0.0,0.0,0.0,0.0,0.0,0.0,0.0,0.0,0.0,0.0,0.0,0.0,0.0,0.0,0.0,0.0,0.0,0.0,0.0,0.0,0.0,0.0,0.0,0.0,0.0,0.0,0.0,0.0,0.0,0.0,0.0,0.0,0.0,0.0,0.0,0.0,2.4233,0.0,2.4988,2.5137,2.5059,2.4616,0.0,0.0,0.0,0.0,0.0,0.0,0.0,0.0,0.0,0.0,0.0,0.0,0.0,0.0,0.0,0.0,0.0,0.0,0.0,0.0,0.0,0.0,0.0,0.0,0.0,0.0,0.0,0.0,0.0,0.0,0.0,0.0,0.0,0.0,0.0,0.0,0.0,0.0,0.0,0.0,0.0,0.0,0.0,0.0,0.0,0.0,0.0,0.0,0.0,0.0,0.0,0.0,0.0,0.0,0.0,0.0,0.0,0.0,0.0,0.0,0.0,0.0,0.0,0.0,0.0,0.0,0.0,0.0,0.0,0.0,0.0,0.0,0.0,0.0,0.0,0.0,0.0,0.0,0.0,0.0,0.0,0.0,0.0,0.0,0.0,0.0,0.0,0.0,0.0,0.0,0.0,0.0,0.0,0.0,0.0,0.0,0.0,0.0,0.0,0.0,0.0,0.0,0.0,0.0,0.0,0.0,0.0,0.0,0.0,2.2834,2.3361,2.3795,2.4062,2.3993,2.3874,0.0,0.0,0.0,0.0,0.0,0.0,0.0,0.0,0.0,0.0,0.0,0.0,0.0,0.0,0.0,0.0,0.0,0.0,0.0,0.0,0.0,0.0,0.0,0.0,0.0,0.0,0.0,0.0,0.0,0.0,0.0,0.0,0.0,0.0,0.0,0.0,0.0,0.0,0.0,0.0,0.0,0.0,0.0,0.0,0.0,0.0,0.0,0.0,0.0,0.0,0.0,0.0,0.0,0.0,0.0,0.0,0.0,0.0,0.0,0.0,0.0,0.0,0.0,0.0,0.0,0.0,0.0,0.0,0.0,0.0,0.0,0.0,0.0,0.0,0.0,0.0,0.0,0.0,0.0,0.0,0.0,0.0,0.0,0.0,0.0,0.0,0.0,0.0,0.0,0.0,0.0,0.0,0.0,0.0,0.0,0.0,0.0,0.0,0.0,0.0,0.0,0.0,0.0,0.0,0.0,0.0,0.0,0.0,0.0,2.2363,2.2834,2.3309,2.3665,2.3755,2.3675,0.0,0.0,0.0,0.0,0.0,0.0,0.0,0.0,0.0,0.0,0.0,0.0,0.0,0.0,0.0,0.0,0.0,0.0,0.0,0.0,0.0,0.0,0.0,0.0,0.0,0.0,0.0,0.0,0.0,0.0,0.0,0.0,0.0,0.0,0.0,0.0,0.0,0.0,0.0,0.0,0.0,0.0,0.0,0.0,0.0,0.0,0.0,0.0,0.0,0.0,0.0,0.0,0.0,0.0,0.0,0.0,0.0,0.0,0.0,0.0,0.0,0.0,0.0,0.0,0.0,0.0,0.0,0.0,0.0,0.0,0.0,0.0,0.0,0.0,0.0,0.0,0.0,0.0,0.0,0.0,0.0,0.0,0.0,0.0,0.0,0.0,0.0,0.0,0.0,0.0,0.0,0.0,0.0,0.0,0.0,0.0,0.0,0.0,0.0,0.0,0.0,0.0,0.0,0.0,0.0,0.0,0.0,0.0,0.0,0.0,2.2579,2.2989,2.3279,2.3564,2.3685,2.3665,0.0,0.0,0.0,0.0,0.0,0.0,0.0,0.0,0.0,0.0,0.0,0.0,0.0,0.0,0.0,0.0,0.0,0.0,0.0,0.0,0.0,0.0,0.0,0.0,0.0,0.0,0.0,0.0,0.0,0.0,0.0,0.0,0.0,0.0,0.0,0.0,0.0,0.0,0.0,0.0,0.0,0.0,0.0,0.0,0.0,0.0,0.0,0.0,0.0,0.0,0.0,0.0,0.0,0.0,0.0,0.0,0.0,0.0,0.0,0.0,0.0,0.0,0.0,0.0,0.0,0.0,0.0,0.0,0.0,0.0,0.0,0.0,0.0,0.0,0.0,0.0,0.0,0.0,0.0,0.0,0.0,0.0,0.0,0.0,0.0,0.0,0.0,0.0,0.0,0.0,0.0,0.0,0.0,0.0,0.0,0.0,0.0,0.0,0.0,0.0,0.0,0.0,0.0,0.0,0.0,0.0,0.0,0.0,0.0,0.0,2.2693,2.3031,2.3443,2.3675,0.0,0.0,0.0,0.0,0.0,0.0,0.0,0.0,0.0,0.0,0.0,0.0,0.0,0.0,0.0,0.0,0.0,0.0,0.0,0.0,0.0,0.0,0.0,0.0,0.0,0.0,0.0,0.0,0.0,0.0,0.0,0.0,0.0,0.0,0.0,0.0,0.0,0.0,0.0,0.0,0.0,0.0,0.0,0.0,0.0,0.0,0.0,0.0,0.0,0.0,0.0,0.0,0.0,0.0,0.0,0.0,0.0,0.0,0.0,0.0,0.0,0.0,0.0,0.0,0.0,0.0,0.0,0.0,0.0,0.0,0.0,0.0,0.0,0.0,0.0,0.0,0.0,0.0,0.0,0.0,0.0,0.0,0.0,0.0,0.0,0.0,0.0,0.0,0.0,0.0,0.0,0.0,0.0,0.0,0.0,0.0,0.0,0.0,0.0,0.0,0.0,0.0,0.0,0.0,0.0,0.0,0.0,0.0,0.0,0.0,0.0,2.2376,2.2918,2.3309,0.0,2.3914,0.0,0.0,0.0,0.0,0.0,0.0,0.0,0.0,0.0,0.0,0.0,0.0,0.0,0.0,0.0,0.0,0.0,0.0,0.0,0.0,0.0,0.0,0.0,0.0,0.0,0.0,0.0,0.0,0.0,0.0,0.0,0.0,0.0,0.0,0.0,0.0,0.0,0.0,0.0,0.0,0.0,0.0,0.0,0.0,0.0,0.0,0.0,0.0,0.0,0.0,0.0,0.0,0.0,0.0,0.0,0.0,0.0,0.0,0.0,0.0,0.0,0.0,0.0,0.0,0.0,0.0,0.0,0.0,0.0,0.0,0.0,0.0,0.0,0.0,0.0,0.0,0.0,0.0,0.0,0.0,0.0,0.0,0.0,0.0,0.0,0.0,0.0,0.0,0.0,0.0,0.0,0.0,0.0,0.0,0.0,0.0,0.0,0.0,0.0,0.0,0.0,0.0,0.0,0.0,0.0,0.0,0.0,0.0,0.0,0.0,0.0,0.0,2.3268,2.3705,2.4032,0.0,0.0,0.0,0.0,0.0,0.0,0.0,0.0,0.0,0.0,0.0,0.0,0.0,0.0,0.0,0.0,0.0,0.0,0.0,0.0,0.0,0.0,0.0,0.0,0.0,0.0,0.0,0.0,0.0,0.0,0.0,0.0,0.0,0.0,0.0,0.0,0.0,0.0,0.0,0.0,0.0,0.0,0.0,0.0,0.0,0.0,0.0,0.0,0.0,0.0,0.0,0.0,0.0,0.0,0.0,0.0,0.0,0.0,0.0,0.0,0.0,0.0,0.0,0.0,0.0,0.0,0.0,0.0,0.0,0.0,0.0,0.0,0.0,0.0,0.0,0.0,0.0,0.0,0.0,0.0,0.0,0.0,0.0,0.0,0.0,0.0,0.0,0.0,0.0,0.0,0.0,0.0,0.0,0.0,0.0,0.0,0.0,0.0,0.0,0.0,0.0,0.0,0.0,0.0,0.0,0.0,0.0,0.0,0.0,0.0,2.2325,2.2536,2.3197,2.3665,2.3993,0.0,0.0,0.0,0.0,0.0,0.0,0.0,0.0,0.0,0.0,0.0,0.0,0.0,0.0,0.0,0.0,0.0,0.0,0.0,0.0,0.0,0.0,0.0,0.0,0.0,0.0,0.0,0.0,0.0,0.0,0.0,0.0,0.0,0.0,0.0,0.0,0.0,0.0,0.0,0.0,0.0,0.0,0.0,0.0,0.0,0.0,0.0,0.0,0.0,0.0,0.0,0.0,0.0,0.0,0.0,0.0,0.0,0.0,0.0,0.0,0.0,0.0,0.0,0.0,0.0,0.0,0.0,0.0,0.0,0.0,0.0,0.0,0.0,0.0,0.0,0.0,0.0,0.0,0.0,0.0,0.0,0.0,0.0,0.0,0.0,0.0,0.0,0.0,0.0,0.0,0.0,0.0,0.0,0.0,0.0,0.0,0.0,0.0,0.0,0.0,0.0,0.0,0.0,0.0,0.0,0.0,0.0,0.0,0.0,0.0,0.0,0.0,0.0,0.0,2.3914,0.0,0.0,0.0,0.0,0.0,0.0,0.0,0.0,0.0,0.0,0.0,0.0,0.0,0.0,0.0,0.0,0.0,0.0,0.0,0.0,0.0,0.0,0.0,0.0,0.0,0.0,0.0,0.0,0.0,0.0,0.0,0.0,0.0,0.0,0.0,0.0,0.0,0.0,0.0,0.0,0.0,0.0,0.0,0.0,0.0,0.0,0.0,0.0,0.0,0.0,0.0,0.0,0.0,0.0,0.0,0.0,0.0,0.0,0.0,0.0,0.0,0.0,0.0,0.0,0.0,0.0,0.0,0.0,0.0,0.0,0.0,0.0,0.0,0.0,0.0,0.0,0.0,0.0,0.0,0.0,0.0,0.0,0.0,0.0,0.0,0.0,0.0,0.0,0.0,0.0,0.0,0.0,0.0,0.0,0.0,0.0,0.0,0.0,0.0,0.0,0.0,0.0,0.0,0.0,0.0,0.0,0.0,0.0,0.0,0.0,0.0,0.0,0.0,0.0,0.0,0.0,0.0,0.0,0.0,0.0,0.0,0.0,0.0,0.0,0.0,0.0,0.0,0.0,0.0,0.0,0.0,0.0,0.0,0.0,0.0,0.0,0.0,0.0,0.0,0.0,0.0,0.0,0.0,0.0,0.0,0.0,0.0,0.0,0.0,0.0,0.0,0.0,0.0,0.0,0.0,0.0,0.0,0.0,0.0,0.0,0.0,0.0,0.0,0.0,0.0,0.0,0.0,0.0,0.0,0.0,0.0,0.0,0.0,0.0,0.0,0.0,0.0,0.0,0.0,0.0,0.0,0.0,0.0,0.0,0.0,0.0,0.0,0.0,0.0,0.0,0.0,0.0,0.0,0.0,0.0,0.0,0.0,0.0,0.0,0.0,0.0,0.0,0.0,0.0,0.0,0.0,0.0,0.0,0.0,0.0,0.0,0.0,0.0,0.0,0.0,0.0,0.0,0.0,0.0,0.0,0.0,0.0,0.0,0.0,0.0,0.0,0.0,0.0,0.0,0.0,0.0,0.0,0.0,0.0,0.0,0.0,0.0,0.0,0.0,0.0,0.0,0.0,0.0,0.0,0.0,0.0,0.0,0.0,0.0,0.0,0.0,0.0,0.0,0.0,0.0,0.0,0.0,0.0,0.0,0.0,0.0,0.0,0.0,0.0,0.0,0.0,0.0,0.0,0.0,0.0,0.0,0.0,0.0,0.0,0.0,0.0,0.0,0.0,0.0,0.0,0.0,0.0,0.0,0.0,0.0,0.0,0.0,0.0,0.0,0.0,0.0,0.0,0.0,0.0,0.0,0.0,0.0,0.0,0.0,0.0,0.0,0.0,0.0,0.0,0.0,0.0,0.0,0.0,0.0,0.0,0.0,0.0,0.0,0.0,0.0,0.0,0.0,0.0,0.0,0.0,0.0,0.0,0.0,0.0,0.0,0.0,0.0,0.0,0.0,0.0,0.0,0.0,0.0,0.0,0.0,0.0,0.0,0.0,0.0,0.0,0.0,0.0,0.0,0.0,0.0,0.0,0.0,0.0,0.0,0.0,0.0,0.0,0.0,0.0,0.0,0.0,0.0,0.0,0.0,0.0,0.0,0.0,0.0,0.0,0.0,0.0,0.0,0.0,0.0,0.0,0.0,0.0,0.0,0.0,0.0,0.0,0.0,0.0,0.0,0.0,0.0,0.0,0.0,0.0,0.0,0.0,0.0,0.0,0.0,0.0,0.0,0.0,0.0,0.0,0.0,0.0,0.0,0.0,0.0,0.0,0.0,0.0,0.0,0.0,0.0,0.0,0.0,0.0,0.0,0.0,0.0,0.0,0.0,0.0,0.0,0.0,0.0,0.0,0.0,0.0,0.0,0.0,0.0,0.0,0.0,0.0,0.0,0.0,0.0,0.0,0.0,0.0,0.0,0.0,0.0,0.0,0.0,0.0,0.0,0.0,0.0,0.0,0.0,0.0,0.0,0.0,0.0,0.0,0.0,0.0,0.0,0.0,0.0,0.0,0.0,0.0,0.0,0.0,0.0,0.0,0.0,0.0,0.0,0.0,0.0,0.0,0.0,0.0,0.0,0.0,0.0,0.0,0.0,0.0,0.0,0.0,0.0,0.0,0.0,0.0,0.0,0.0,0.0,0.0,0.0,0.0,0.0,0.0,0.0,0.0,0.0,0.0,0.0,0.0,0.0,0.0,0.0,0.0,0.0,0.0,0.0,0.0,0.0,0.0,0.0,0.0,0.0,0.0,0.0,0.0,0.0,0.0,0.0,0.0,0.0,0.0,0.0,0.0,0.0,0.0,0.0,0.0,0.0,0.0,0.0,0.0,0.0,0.0,0.0,0.0,0.0,0.0,0.0,0.0,0.0,0.0,0.0,0.0,0.0,0.0,0.0,0.0,0.0,0.0,0.0,0.0,0.0,0.0,0.0,0.0,0.0,0.0,0.0,0.0,0.0,0.0,0.0,0.0,0.0,0.0,0.0,0.0,0.0,0.0,0.0,0.0,0.0,0.0,0.0,0.0,0.0,0.0,0.0,0.0,0.0,0.0,0.0,0.0,0.0,0.0,0.0,0.0,0.0,0.0,0.0,0.0,0.0,0.0,0.0,0.0,0.0,0.0,0.0,0.0,0.0,0.0,0.0,0.0,0.0,0.0,0.0,0.0,0.0,0.0,0.0,0.0,0.0,0.0,0.0,0.0,0.0,0.0,0.0,0.0,0.0,0.0,0.0,0.0,0.0,0.0,0.0,0.0,0.0,0.0,0.0,0.0,0.0,0.0,0.0,0.0,0.0,0.0,0.0,0.0,0.0,0.0,0.0,0.0,0.0,0.0,0.0,0.0,0.0,0.0,0.0,0.0,0.0,0.0,0.0,0.0,0.0,0.0,0.0,0.0,0.0,0.0,0.0,0.0,0.0,0.0,0.0,0.0,0.0,0.0,0.0,0.0,0.0,0.0,0.0,0.0,0.0,0.0,0.0,0.0,0.0,0.0,0.0,0.0,0.0,0.0,0.0,0.0,0.0,0.0,0.0,0.0,0.0,0.0,0.0,0.0,0.0,0.0,0.0,0.0,0.0,0.0,0.0,0.0,0.0,0.0,0.0,0.0,0.0,0.0,0.0,0.0,0.0,0.0,0.0,0.0,0.0,0.0,0.0,0.0,0.0,0.0,0.0,0.0,0.0,0.0,0.0,0.0,0.0,0.0,0.0,0.0,0.0,0.0,0.0,0.0,0.0,0.0,0.0,0.0,0.0,0.0,0.0,0.0,0.0,0.0,0.0,0.0,0.0,0.0,0.0,0.0,0.0,0.0,0.0,0.0,0.0,0.0,0.0,0.0,0.0,0.0,0.0,0.0,0.0,0.0,0.0,0.0,0.0,0.0,0.0,0.0,0.0,0.0,0.0,0.0,0.0,0.0,0.0,0.0,0.0,0.0,0.0,0.0,0.0,0.0,0.0,0.0,0.0,0.0,0.0,0.0,0.0,0.0,0.0,0.0,0.0,0.0,0.0,0.0,0.0,0.0,0.0,0.0,0.0,0.0,0.0,0.0,0.0,0.0,0.0,0.0,0.0,0.0,0.0,0.0,0.0,0.0,0.0,0.0,0.0,0.0,0.0,0.0,0.0,0.0,0.0,0.0,0.0,0.0,0.0,0.0,0.0,0.0,0.0,0.0,0.0,0.0,0.0,0.0,0.0,0.0,0.0,0.0,0.0,0.0,0.0,0.0,0.0,0.0,0.0,0.0,0.0,0.0,0.0,0.0,0.0,0.0,0.0,0.0,0.0,0.0,0.0,0.0,0.0,0.0,0.0,0.0,0.0,0.0,0.0,0.0,0.0,0.0,0.0,0.0,0.0,0.0,0.0,0.0,0.0,0.0,0.0,0.0,0.0,0.0,0.0,0.0,0.0,0.0,0.0,0.0,0.0,0.0,0.0,0.0,0.0,0.0,0.0,0.0,0.0,0.0,0.0,0.0,0.0,0.0,0.0,0.0,0.0,0.0,0.0,0.0,0.0,0.0,0.0,0.0,0.0,0.0,0.0,0.0,0.0,0.0,0.0,0.0,0.0,0.0,0.0,0.0,0.0,0.0,0.0,0.0,0.0,0.0,0.0,0.0,0.0,0.0,0.0,0.0,0.0,0.0,0.0,0.0,0.0,0.0,0.0,0.0,0.0,0.0,0.0,0.0,0.0,0.0,0.0,0.0,0.0,0.0,0.0,0.0,0.0,0.0,0.0,0.0,0.0,0.0,0.0,0.0,0.0,0.0,0.0,0.0,0.0,0.0,0.0,0.0,0.0,0.0,0.0,0.0,0.0,0.0,0.0,0.0,0.0,0.0,0.0,0.0,0.0,0.0,0.0,0.0,0.0,0.0]}],[{"header":{"parameterUnit":"kt","parameterCategory":2,"dx":1,"dy":1,"la1":29.587661999999998,"la2":31.0,"lo1":-88.76705300000003,"lo2":-86.6583820000003,"nx":115,"ny":88,"refTime":"2022-09-21T06:00:00:Z","depth":0,"parameterNumber":2,"parameterNumberName":"V-component_of_WINDS"},"data":[0.0,0.0,0.0,0.0,0.0,0.0,0.0,0.0,0.0,0.0,0.0,0.0,0.0,0.0,0.0,0.0,0.0,0.0,0.0,0.0,0.0,0.0,0.0,0.0,0.0,0.0,0.0,0.0,0.0,0.0,0.0,0.0,0.0,0.0,0.0,0.0,0.0,0.0,0.0,0.0,0.0,0.0,0.0,0.0,0.0,0.0,0.192,0.2442,0.2267,0.2267,0.2965,0.4185,0.4881,0.5227,0.5923,0.6447,0.6795,0.7146,0.7497,0.7844,0.8018,0.8188,0.8389,0.8508,0.8671,0.8826,0.9024,0.9266,0.9389,0.9389,0.9393,0.9393,0.9393,0.9393,0.9393,0.9393,0.9393,0.9393,0.9393,0.9393,0.9393,0.9393,0.9393,0.9393,0.9393,0.9393,0.9393,0.9393,0.9393,0.9393,0.9393,0.9393,0.9393,0.9393,0.9393,0.9393,0.9393,0.9393,0.9393,0.9393,0.9393,0.9393,0.9393,0.9393,0.9393,0.9393,0.9393,0.9393,0.9393,0.9393,0.9393,0.9393,0.9393,0.9397,0.9592,0.0,0.0,0.0,0.0,0.0,0.0,0.0,0.0,0.0,0.0,0.0,0.0,0.0,0.0,0.0,0.0,0.0,0.0,0.0,0.0,0.0,0.0,-0.0861,-0.122,-0.157,-0.1571,-0.0698,0.0,0.0,0.0,0.0,0.0,0.0,0.0,0.0,0.0,0.0,0.0,0.0,0.0,0.0,0.0,0.0,0.0,0.0,0.0,0.0699,0.1571,0.2617,0.2792,0.3139,0.3838,0.4185,0.4533,0.5055,0.5749,0.6096,0.6444,0.6969,0.7497,0.7671,0.7844,0.8184,0.8449,0.862,0.8786,0.8957,0.9151,0.9318,0.9382,0.9389,0.9393,0.9393,0.9393,0.9393,0.9393,0.9393,0.9393,0.9393,0.9393,0.9393,0.9393,0.9393,0.9393,0.9393,0.9393,0.9393,0.9393,0.9393,0.9393,0.9393,0.9393,0.9393,0.9393,0.9393,0.9393,0.9393,0.9393,0.9393,0.9393,0.9393,0.9393,0.9393,0.9393,0.9393,0.9393,0.9393,0.9393,0.9393,0.9393,0.9393,0.9393,0.9393,0.9397,0.9397,-0.1375,-0.1222,0.0,0.0,0.0,-0.0458,-0.0611,-0.0611,-0.0611,-0.0916,-0.1375,-0.1375,0.0,0.0,0.0,0.0,0.0,0.0,0.0,0.0,0.0,-0.1179,-0.1716,-0.2092,-0.2616,-0.2267,-0.1396,-0.0873,0.0,-0.0698,-0.0873,0.0,0.0,0.0,0.0,0.0,0.0,-0.1398,0.0,0.0,0.0,0.0,0.0,0.0,0.0,0.0,0.0,0.0524,0.1747,0.2619,0.2966,0.3315,0.3838,0.3838,0.4361,0.4881,0.5401,0.5746,0.627,0.6969,0.7671,0.7844,0.8014,0.8425,0.8592,0.8671,0.8842,0.902,0.9191,0.9362,0.937,0.9393,0.9393,0.9393,0.9393,0.9393,0.9393,0.9393,0.9393,0.9393,0.9393,0.9393,0.9393,0.9393,0.9393,0.9393,0.9393,0.9393,0.9393,0.9393,0.9393,0.9393,0.9393,0.9393,0.9393,0.9393,0.9393,0.9393,0.9393,0.9393,0.9393,0.9393,0.9393,0.9393,0.9393,0.9393,0.9393,0.9393,0.9393,0.9393,0.9393,0.9393,0.9393,0.9397,0.9397,-0.3664,-0.3513,-0.1526,-0.061,-0.0611,-0.1069,-0.1222,-0.1222,-0.1527,-0.2139,-0.2597,-0.2445,-0.1683,-0.0459,0.0,0.0,0.0,0.0,0.0,-0.097,-0.1309,-0.2011,-0.2771,-0.2965,-0.3139,-0.2965,-0.2616,-0.2267,-0.2092,-0.1918,-0.1743,-0.1743,-0.2092,-0.2093,-0.1919,-0.1571,-0.1397,-0.227,-0.1222,0.0,0.0,0.0,-0.0349,0.0,0.0,0.0,0.0,-0.0698,0.0349,0.1922,0.2268,0.3139,0.3838,0.3315,0.3664,0.4361,0.4879,0.5053,0.5577,0.6273,0.6972,0.732,0.7859,0.8102,0.852,0.8584,0.8703,0.8885,0.906,0.9231,0.9346,0.9374,0.9393,0.9393,0.9393,0.9393,0.9393,0.9393,0.9393,0.9393,0.9393,0.9393,0.9393,0.9393,0.9393,0.9393,0.9393,0.9393,0.9393,0.9393,0.9393,0.9393,0.9393,0.9393,0.9393,0.9393,0.9393,0.9393,0.9393,0.9393,0.9393,0.9393,0.9393,0.9393,0.9393,0.9393,0.9393,0.9393,0.9393,0.9393,0.9393,0.9393,0.9393,0.9393,0.9393,-0.7029,-0.6565,-0.366,-0.2287,-0.2291,-0.1527,-0.1374,-0.1375,-0.2903,-0.3515,-0.3513,-0.2903,-0.2138,-0.1527,-0.1222,-0.1222,-0.1222,-0.1224,-0.1566,-0.229,-0.2453,-0.2848,-0.3451,-0.4012,-0.4012,-0.4363,-0.4189,-0.3664,-0.3664,-0.3139,-0.2616,-0.2616,-0.279,-0.2616,-0.2267,-0.1919,-0.2268,-0.2792,-0.2094,-0.157,-0.1395,-0.1395,-0.122,-0.1395,-0.1395,-0.1569,-0.2267,-0.2093,-0.1745,0.0175,0.1397,0.2268,0.2442,0.2092,0.279,0.3313,0.401,0.4359,0.4883,0.5575,0.6273,0.6795,0.7497,0.7871,0.809,0.8151,0.8284,0.8448,0.879,0.8954,0.9101,0.9156,0.9187,0.9393,0.9393,0.9393,0.9393,0.9393,0.9393,0.9393,0.9393,0.9393,0.9393,0.9393,0.9393,0.9393,0.9393,0.9393,0.9393,0.9393,0.9393,0.9393,0.9393,0.9393,0.9393,0.9393,0.9393,0.9393,0.9393,0.9393,0.9393,0.9393,0.9393,0.9393,0.9393,0.9393,0.9393,0.9393,0.9393,0.9393,0.9393,0.9393,0.9393,0.9393,0.9397,-0.809,-0.7786,-0.503,-0.3965,-0.3814,-0.351,-0.3508,-0.3814,-0.4424,-0.4579,-0.4426,-0.3967,-0.351,-0.275,-0.2597,-0.2597,-0.2597,-0.245,-0.2506,-0.308,-0.3269,-0.3705,-0.3961,-0.4363,-0.4537,-0.4537,-0.4537,-0.4537,-0.4189,-0.3838,-0.3664,-0.3664,-0.3664,-0.3315,-0.2965,-0.279,-0.3139,-0.3489,-0.3489,-0.3139,-0.3139,-0.3139,-0.3139,-0.3139,-0.3139,-0.3315,-0.3489,-0.2093,-0.157,-0.0698,-0.1047,-0.0523,-0.0523,0.1396,0.2619,0.2616,0.3313,0.3838,0.4187,0.5053,0.5572,0.627,0.6972,0.7493,0.7525,0.7736,0.7864,0.8002,0.8339,0.8684,0.8817,0.9128,0.9163,0.9393,0.9393,0.9393,0.9393,0.9393,0.9393,0.9393,0.9393,0.9393,0.9393,0.9393,0.9393,0.9393,0.9393,0.9393,0.9393,0.9393,0.9393,0.9393,0.9393,0.9393,0.9393,0.9393,0.9393,0.9393,0.9393,0.9393,0.9393,0.9393,0.9393,0.9393,0.9393,0.9393,0.9393,0.9393,0.9393,0.9393,0.9393,0.9393,0.9393,0.9393,0.9397,-0.9001,-0.9001,-0.7162,-0.5791,-0.5028,-0.5636,-0.6092,-0.625,-0.6247,-0.5791,-0.5338,-0.5183,-0.4729,-0.4276,-0.4124,-0.3969,-0.3816,-0.3688,-0.3624,-0.3702,-0.3926,-0.438,-0.4647,-0.4888,-0.4888,-0.4888,-0.4888,-0.4888,-0.4537,-0.4363,-0.4363,-0.4363,-0.4537,-0.4189,-0.3838,-0.3489,-0.4012,-0.4189,-0.4189,-0.4012,-0.3838,-0.4012,-0.4012,-0.4012,-0.4012,-0.3838,-0.3838,-0.279,-0.2267,-0.1918,-0.2442,-0.2442,-0.2442,-0.0,0.1222,0.1395,0.2616,0.3489,0.3836,0.4531,0.5224,0.5749,0.6621,0.6969,0.6795,0.6821,0.7231,0.7356,0.7674,0.8224,0.857,0.8663,0.8916,0.9156,0.9393,0.9393,0.9393,0.9393,0.9393,0.9393,0.9393,0.9393,0.9393,0.9393,0.9393,0.9393,0.9393,0.9393,0.9393,0.9393,0.9393,0.9393,0.9393,0.9393,0.9393,0.9393,0.9393,0.9393,0.9393,0.9393,0.9393,0.9393,0.9393,0.9393,0.9393,0.9393,0.9393,0.9393,0.9393,0.9393,0.9393,0.9393,0.9393,0.9393,0.9397,-1.0062,-1.0685,-0.9911,-0.7765,-0.5627,-0.7441,-0.8358,-0.8371,-0.8064,-0.7306,-0.6547,-0.624,-0.594,-0.5493,-0.5033,-0.4726,-0.4422,-0.4269,-0.4401,-0.4688,-0.4738,-0.506,-0.5344,-0.5585,-0.5411,-0.5585,-0.5414,-0.5237,-0.4888,-0.4888,-0.4712,-0.4712,-0.5062,-0.4888,-0.4712,-0.4363,-0.4537,-0.4712,-0.4712,-0.4537,-0.4363,-0.4363,-0.4537,-0.4537,-0.4363,-0.4189,-0.4012,-0.3664,-0.3139,-0.2965,-0.279,-0.2267,-0.1743,-0.122,-0.1743,-0.122,0.1046,0.2267,0.3139,0.3488,0.4185,0.4703,0.5749,0.5923,0.5925,0.6279,0.6327,0.6588,0.7034,0.7576,0.8105,0.8366,0.8633,0.8904,0.916,0.9187,0.9187,0.9389,0.9389,0.9393,0.9393,0.9393,0.9393,0.9393,0.9393,0.9393,0.9393,0.9393,0.9393,0.9393,0.9393,0.9393,0.9393,0.9393,0.9393,0.9393,0.9393,0.9393,0.9393,0.9393,0.9393,0.9393,0.9393,0.9393,0.9393,0.9393,0.9393,0.9393,0.9393,0.9393,0.9393,0.9393,0.9393,0.9393,0.9326,-1.1592,-1.175,-1.1435,-0.9738,-0.7744,-0.9269,-1.004,-1.004,-0.9733,-0.8977,-0.8224,-0.7765,-0.7458,-0.7003,-0.6395,-0.594,-0.5791,-0.5493,-0.532,-0.585,-0.5717,-0.5882,-0.5858,-0.5928,-0.5931,-0.5588,-0.5588,-0.5588,-0.5411,-0.5411,-0.5237,-0.5237,-0.5414,-0.5411,-0.5237,-0.5237,-0.5237,-0.5237,-0.5237,-0.5062,-0.4888,-0.5062,-0.5062,-0.5062,-0.4888,-0.4537,-0.4363,-0.4189,-0.4012,-0.3838,-0.3664,-0.3489,-0.2965,-0.2616,-0.2442,-0.2267,-0.0872,0.0174,0.122,0.1743,0.2266,0.2786,0.331,0.401,0.4883,0.5055,0.5264,0.5654,0.5893,0.634,0.6778,0.7631,0.7907,0.8409,0.8663,0.8923,0.9128,0.916,0.9167,0.9389,0.9393,0.9393,0.9393,0.9393,0.9393,0.9393,0.9393,0.9393,0.9393,0.9393,0.9393,0.9393,0.9393,0.9393,0.9393,0.9393,0.9393,0.9393,0.9393,0.9393,0.9393,0.9393,0.9393,0.9393,0.9393,0.9393,0.9393,0.9393,0.9393,0.9393,0.9378,0.9374,0.9393,0.9318,0.941,-1.219,-1.219,-1.219,-1.1259,-1.0029,-1.0952,-1.1259,-1.1259,-1.0801,-1.0342,-0.9743,-0.9436,-0.8972,-0.8518,-0.7761,-0.7154,-0.7158,-0.6565,-0.6413,-0.6826,-0.6366,-0.6385,-0.6542,-0.6447,-0.6099,-0.5931,-0.5588,-0.5588,-0.5588,-0.5588,-0.5588,-0.5588,-0.5588,-0.5588,-0.5588,-0.5588,-0.5588,-0.5588,-0.5588,-0.5588,-0.5588,-0.5588,-0.5588,-0.5588,-0.5237,-0.5062,-0.4712,-0.4537,-0.4363,-0.4189,-0.4189,-0.4189,-0.3838,-0.3315,-0.3139,-0.3139,-0.2965,-0.2092,-0.1395,-0.0697,-0.0,0.0523,0.122,0.2615,0.3489,0.3489,0.3838,0.4379,0.5122,0.5524,0.5742,0.6562,0.7205,0.7695,0.8133,0.8388,0.863,0.8855,0.9093,0.9109,0.9326,0.931,0.9374,0.9393,0.9393,0.9393,0.9393,0.9393,0.9382,0.9382,0.9393,0.9393,0.9393,0.9393,0.9393,0.9393,0.9393,0.9393,0.9393,0.9393,0.9393,0.9393,0.9393,0.9393,0.9393,0.9393,0.9393,0.9393,0.9393,0.9358,0.9298,0.9278,0.9255,0.9183,0.9276,-1.217,-1.217,-1.217,-1.2163,-1.2013,-1.217,-1.2163,-1.2013,-1.1699,-1.1247,-1.0807,-1.0499,-1.0342,-0.9884,-0.8821,-0.8518,-0.8367,-0.7955,-0.7668,-0.7782,-0.7383,-0.7056,-0.7047,-0.6792,-0.6447,-0.6273,-0.5928,-0.5585,-0.5588,-0.5588,-0.5588,-0.5588,-0.5588,-0.5588,-0.5588,-0.5588,-0.5588,-0.5588,-0.5588,-0.5588,-0.5588,-0.5588,-0.5588,-0.5588,-0.5588,-0.5411,-0.5062,-0.4888,-0.4888,-0.4712,-0.4712,-0.4537,-0.4363,-0.3838,-0.4012,-0.4363,-0.4363,-0.4189,-0.4189,-0.3838,-0.2965,-0.1918,-0.0523,0.0697,0.1569,0.1918,0.2267,0.2965,0.4024,0.4587,0.5339,0.5755,0.6184,0.6619,0.7205,0.7624,0.7851,0.8073,0.8329,0.8366,0.8771,0.9195,0.9298,0.9175,0.9163,0.9156,0.9183,0.9382,0.9362,0.937,0.9393,0.9393,0.9393,0.9393,0.9393,0.9393,0.9382,0.9393,0.9393,0.9393,0.9393,0.9393,0.9393,0.9393,0.9393,0.9393,0.9393,0.9389,0.935,0.9306,0.9239,0.9163,0.91,0.922,0.93,-1.217,-1.217,-1.217,-1.217,-1.217,-1.217,-1.217,-1.2163,-1.2013,-1.1862,-1.1862,-1.1404,-1.1097,-1.0946,-1.0035,-0.9733,-0.9618,-0.9456,-0.9214,-0.9092,-0.8956,-0.8663,-0.8286,-0.7663,-0.7142,-0.627,-0.5925,-0.558,-0.5585,-0.5588,-0.5588,-0.5588,-0.5588,-0.5588,-0.5588,-0.5588,-0.5588,-0.5588,-0.5588,-0.5588,-0.5588,-0.5588,-0.5588,-0.5588,-0.5588,-0.5588,-0.5414,-0.5411,-0.5237,-0.5237,-0.5237,-0.5062,-0.4888,-0.4537,-0.4363,-0.4363,-0.4363,-0.4363,-0.4363,-0.4363,-0.4363,-0.3664,-0.2267,-0.1395,-0.0872,-0.0174,0.0174,0.122,0.1743,0.2271,0.298,0.4236,0.499,0.5411,0.5981,0.6372,0.6583,0.7153,0.7395,0.7648,0.803,0.8425,0.8522,0.879,0.8756,0.8514,0.8768,0.9031,0.9231,0.9262,0.9302,0.9314,0.9318,0.935,0.9382,0.933,0.9282,0.9294,0.9294,0.9322,0.9338,0.9393,0.9393,0.9374,0.9374,0.9389,0.937,0.9326,0.9286,0.9243,0.9171,0.9088,0.9004,0.9021,0.911,-1.217,-1.217,-1.217,-1.217,-1.217,-1.217,-1.217,-1.217,-1.217,-1.217,-1.2163,-1.2006,-1.1699,-1.1555,-1.1097,-1.0638,-1.0679,-1.0767,-1.0689,-1.0603,-1.0513,-1.0064,-0.9335,-0.87,-0.8011,-0.7139,-0.6447,-0.6102,-0.5931,-0.5928,-0.5931,-0.5757,-0.576,-0.5762,-0.5588,-0.5588,-0.5588,-0.5588,-0.5588,-0.5588,-0.5588,-0.5588,-0.5588,-0.5588,-0.5588,-0.5588,-0.5588,-0.5588,-0.5588,-0.5588,-0.5588,-0.5414,-0.5237,-0.5062,-0.5062,-0.4888,-0.4888,-0.4712,-0.4712,-0.4888,-0.5062,-0.4712,-0.4012,-0.3139,-0.2965,-0.2616,-0.2092,-0.1395,-0.0697,0.0349,0.1047,0.2268,0.3501,0.4064,0.4628,0.5004,0.5557,0.6279,0.6683,0.6756,0.714,0.7705,0.7963,0.8224,0.7966,0.7729,0.8395,0.8864,0.888,0.9096,0.9104,0.9112,0.9108,0.9128,0.9128,0.9155,0.9187,0.9175,0.9163,0.9139,0.9116,0.9211,0.9109,0.9334,0.933,0.935,0.9338,0.9274,0.9183,0.9084,0.9024,0.8977,0.8822,0.8823,0.9101,-1.217,-1.217,-1.217,-1.217,-1.217,-1.217,-1.217,-1.217,-1.217,-1.217,-1.217,-1.2163,-1.2163,-1.2026,-1.1586,-1.1441,-1.1561,-1.1701,-1.1663,-1.1435,-1.1364,-1.1113,-1.0544,-0.974,-0.8705,-0.8354,-0.749,-0.6795,-0.6447,-0.6444,-0.627,-0.6096,-0.5757,-0.576,-0.5588,-0.5588,-0.5588,-0.5588,-0.5588,-0.5588,-0.5588,-0.5588,-0.5588,-0.5588,-0.5588,-0.5588,-0.5588,-0.5588,-0.5588,-0.5588,-0.5588,-0.5588,-0.5588,-0.5414,-0.5414,-0.5414,-0.5414,-0.5237,-0.5062,-0.5237,-0.5237,-0.5062,-0.4537,-0.4363,-0.4189,-0.4537,-0.4363,-0.3664,-0.2616,-0.1569,-0.0697,0.0349,0.1047,0.1579,0.2287,0.2824,0.3709,0.4591,0.5146,0.5723,0.6114,0.6677,0.691,0.6923,0.6695,0.7017,0.7646,0.7705,0.81,0.8577,0.857,0.8752,0.874,0.8732,0.8728,0.8763,0.8653,0.8481,0.8477,0.8623,0.8763,0.9016,0.8934,0.8961,0.9175,0.927,0.9314,0.9155,0.902,0.8925,0.8838,0.8766,0.8639,0.8697,0.8971,-1.217,-1.217,-1.217,-1.217,-1.217,-1.217,-1.217,-1.217,-1.217,-1.217,-1.217,-1.217,-1.217,-1.2196,-1.2195,-1.2208,-1.2085,-1.2062,-1.2134,-1.2199,-1.199,-1.19,-1.1624,-1.1306,-1.0436,-0.9389,-0.8527,-0.7833,-0.7486,-0.7136,-0.6792,-0.627,-0.5931,-0.576,-0.5588,-0.5588,-0.5588,-0.5588,-0.5588,-0.5588,-0.5588,-0.5588,-0.5588,-0.5588,-0.5588,-0.5588,-0.5588,-0.5588,-0.5588,-0.5588,-0.5588,-0.5588,-0.5588,-0.5588,-0.5588,-0.5588,-0.5588,-0.5588,-0.5588,-0.5588,-0.5588,-0.5414,-0.5237,-0.5062,-0.4888,-0.4888,-0.4712,-0.4363,-0.3838,-0.3838,-0.3315,-0.1918,-0.122,-0.0697,-0.0174,0.0872,0.1745,0.2451,0.299,0.3887,0.496,0.5509,0.5161,0.5336,0.5673,0.6169,0.6539,0.6769,0.723,0.7726,0.792,0.7924,0.7917,0.7913,0.7924,0.7945,0.7966,0.7806,0.7809,0.797,0.8118,0.8339,0.8574,0.8771,0.8965,0.9012,0.8634,0.8752,0.8854,0.8762,0.8671,0.8584,0.8512,0.8429,0.8709,-1.217,-1.217,-1.217,-1.217,-1.217,-1.217,-1.217,-1.217,-1.217,-1.217,-1.217,-1.217,-1.217,-1.2223,-1.2614,-1.2708,-1.2665,-1.2698,-1.2727,-1.2854,-1.2796,-1.2674,-1.2341,-1.2002,-1.1473,-1.0258,-0.9566,-0.9051,-0.87,-0.8354,-0.7663,-0.6798,-0.6276,-0.5931,-0.5928,-0.5757,-0.5585,-0.5588,-0.5588,-0.5588,-0.5588,-0.5588,-0.5588,-0.5588,-0.5588,-0.5588,-0.5588,-0.5588,-0.5588,-0.5588,-0.5588,-0.5588,-0.5588,-0.5588,-0.5588,-0.5588,-0.5588,-0.5588,-0.5588,-0.5588,-0.5588,-0.5588,-0.5588,-0.5588,-0.5411,-0.5237,-0.5062,-0.4537,-0.4712,-0.4537,-0.4189,-0.3489,-0.3139,-0.2965,-0.2616,-0.1569,-0.0523,0.0174,0.122,0.2442,0.3494,0.2979,0.2635,0.2989,0.3512,0.4377,0.5447,0.582,0.6413,0.686,0.6879,0.7079,0.7082,0.7079,0.7092,0.7088,0.7085,0.7069,0.7072,0.725,0.7431,0.7824,0.8027,0.8224,0.8448,0.8217,0.812,0.8098,0.8265,0.8216,0.8336,0.8297,0.8433,0.8354,0.8705,-1.217,-1.217,-1.217,-1.217,-1.217,-1.217,-1.217,-1.217,-1.217,-1.217,-1.217,-1.217,-1.2347,-1.2421,-1.2628,-1.2841,-1.2961,-1.3074,-1.325,-1.3289,-1.3222,-1.3203,-1.3209,-1.2341,-1.1818,-1.1468,-1.0782,-1.0614,-1.009,-0.922,-0.8358,-0.7667,-0.6969,-0.6447,-0.6099,-0.5931,-0.5762,-0.5588,-0.5588,-0.5588,-0.5588,-0.5588,-0.5588,-0.5588,-0.5588,-0.5588,-0.5588,-0.5588,-0.5588,-0.5588,-0.5588,-0.5588,-0.5588,-0.5588,-0.5588,-0.5588,-0.5588,-0.5588,-0.5588,-0.5588,-0.5588,-0.5588,-0.5588,-0.5588,-0.5588,-0.5588,-0.5411,-0.4888,-0.4888,-0.4888,-0.4712,-0.4363,-0.4537,-0.4363,-0.4189,-0.3315,-0.2616,-0.1743,-0.0872,0.0349,0.0872,0.0523,0.0349,0.0872,0.1395,0.3139,0.4363,0.5062,0.5609,0.5809,0.5828,0.6024,0.6032,0.6029,0.6035,0.6198,0.6183,0.6339,0.6336,0.6508,0.6725,0.695,0.7325,0.7549,0.7611,0.7417,0.7493,0.7589,0.7525,0.7696,0.7908,0.8052,0.8358,0.8531,0.8531,-1.217,-1.217,-1.217,-1.217,-1.217,-1.217,-1.217,-1.217,-1.217,-1.217,-1.217,-1.2177,-1.2441,-1.2568,-1.2541,-1.2588,-1.2711,-1.3251,-1.3456,-1.3374,-1.3589,-1.3712,-1.354,-1.3196,-1.2858,-1.2335,-1.1646,-1.095,-1.0955,-1.0263,-0.9398,-0.8531,-0.8184,-0.7486,-0.6444,-0.6276,-0.5928,-0.576,-0.5588,-0.5588,-0.5588,-0.5588,-0.5588,-0.5588,-0.5588,-0.5588,-0.5588,-0.5588,-0.5588,-0.5588,-0.5588,-0.5588,-0.5588,-0.5588,-0.5588,-0.5588,-0.5588,-0.5588,-0.5588,-0.5588,-0.5588,-0.5588,-0.5588,-0.5588,-0.5588,-0.5588,-0.5588,-0.5588,-0.5414,-0.5411,-0.5237,-0.5237,-0.5237,-0.5062,-0.4888,-0.4537,-0.4012,-0.3489,-0.2616,-0.2092,-0.1918,-0.1743,-0.1395,-0.0872,0.0523,0.2267,0.3315,0.401,0.4883,0.4883,0.4881,0.5055,0.5229,0.5229,0.5232,0.5406,0.5406,0.5583,0.558,0.5577,0.5768,0.5956,0.6315,0.6872,0.6756,0.6431,0.6885,0.7149,0.6972,0.7146,0.7497,0.7671,0.7841,0.8014,0.8358,-1.217,-1.217,-1.217,-1.217,-1.217,-1.217,-1.217,-1.217,-1.217,-1.217,-1.217,-1.2177,-1.2407,-1.2501,-1.2487,-1.2625,-1.2981,-1.3377,-1.3528,-1.3673,-1.3805,-1.3878,-1.3706,-1.354,-1.3375,-1.3031,-1.2508,-1.1985,-1.1813,-1.1128,-1.0263,-0.9398,-0.8878,-0.8358,-0.7486,-0.6969,-0.645,-0.5928,-0.576,-0.5588,-0.5588,-0.5588,-0.5588,-0.5588,-0.5588,-0.5588,-0.5588,-0.5588,-0.5588,-0.5588,-0.5588,-0.5588,-0.5588,-0.5588,-0.5588,-0.5588,-0.5588,-0.5588,-0.5588,-0.5588,-0.5588,-0.5588,-0.5588,-0.5588,-0.5588,-0.5588,-0.5588,-0.5588,-0.5588,-0.5588,-0.5588,-0.5588,-0.5588,-0.5237,-0.5237,-0.5062,-0.4714,-0.4537,-0.3838,-0.3313,-0.279,-0.2442,-0.2442,-0.1569,-0.0174,0.1046,0.2267,0.3139,0.4012,0.4187,0.4187,0.4361,0.4709,0.4709,0.4709,0.4709,0.4712,0.4712,0.4709,0.4709,0.489,0.5067,0.5411,0.5754,0.558,0.5269,0.5577,0.6273,0.627,0.6444,0.6795,0.732,0.7497,0.7844,0.8188,-1.2321,-1.217,-1.217,-1.217,-1.217,-1.217,-1.217,-1.217,-1.217,-1.217,-1.217,-1.217,-1.217,-1.2381,-1.2581,-1.279,-1.3093,-1.3291,-1.3495,-1.3713,-1.3759,-1.3838,-1.3858,-1.3706,-1.354,-1.3375,-1.3203,-1.2852,-1.2502,-1.1807,-1.13,-1.0614,-0.9922,-0.9051,-0.8358,-0.7667,-0.6972,-0.6273,-0.5931,-0.576,-0.5588,-0.5588,-0.5588,-0.5588,-0.5588,-0.5588,-0.5588,-0.5588,-0.5588,-0.5588,-0.5588,-0.5588,-0.5588,-0.5588,-0.5588,-0.5588,-0.5588,-0.5588,-0.5588,-0.5588,-0.5588,-0.5588,-0.5588,-0.5588,-0.5588,-0.5588,-0.5588,-0.5588,-0.5588,-0.5588,-0.5588,-0.5588,-0.5588,-0.5588,-0.5588,-0.5414,-0.5062,-0.4712,-0.4189,-0.3489,-0.2965,-0.2616,-0.2092,-0.1395,-0.0349,0.0697,0.1569,0.2442,0.3315,0.3489,0.3489,0.3838,0.4012,0.4189,0.4012,0.4012,0.4012,0.3838,0.3838,0.3836,0.4187,0.4187,0.4189,0.4535,0.4361,0.4361,0.4707,0.5055,0.5227,0.5401,0.6099,0.6795,0.7146,0.732,0.7667,-1.2922,-1.217,-1.217,-1.217,-1.217,-1.217,-1.217,-1.217,-1.217,-1.217,-1.217,-1.217,-1.217,-1.2177,-1.2236,-1.2407,-1.2724,-1.2955,-1.3245,-1.3495,-1.3528,-1.364,-1.3805,-1.3838,-1.3667,-1.3706,-1.3706,-1.354,-1.3203,-1.2864,-1.2341,-1.1646,-1.095,-1.0258,-0.9225,-0.8358,-0.766,-0.6444,-0.6276,-0.5931,-0.576,-0.5588,-0.5588,-0.5588,-0.5588,-0.5588,-0.5588,-0.5588,-0.5588,-0.5588,-0.5588,-0.5588,-0.5588,-0.5588,-0.5588,-0.5762,-0.576,-0.576,-0.5762,-0.576,-0.5588,-0.5588,-0.5588,-0.5588,-0.5588,-0.5588,-0.5588,-0.5588,-0.5588,-0.5588,-0.5588,-0.5588,-0.5588,-0.5588,-0.5588,-0.5588,-0.5411,-0.4714,-0.4012,-0.3315,-0.279,-0.2092,-0.1743,-0.122,-0.0523,0.0349,0.1046,0.1743,0.2442,0.2965,0.2965,0.3139,0.3315,0.3315,0.3315,0.3315,0.3139,0.3139,0.3139,0.3313,0.3489,0.3664,0.3664,0.3664,0.3664,0.3838,0.4187,0.4359,0.4533,0.4533,0.5055,0.5925,0.6447,0.6969,0.732,-1.3208,-1.2901,-1.2458,-1.215,-1.215,-1.217,-1.217,-1.217,-1.217,-1.217,-1.217,-1.217,-1.217,-1.217,-1.2177,-1.2229,-1.2414,-1.2658,-1.2948,-1.3166,-1.3245,-1.339,-1.3607,-1.366,-1.366,-1.368,-1.3628,-1.3699,-1.354,-1.3203,-1.3037,-1.2514,-1.1991,-1.1122,-1.0258,-0.9393,-0.8527,-0.749,-0.6621,-0.6102,-0.5931,-0.576,-0.5588,-0.5588,-0.5588,-0.5588,-0.5588,-0.5588,-0.5588,-0.576,-0.6108,-0.6456,-0.6282,-0.6456,-0.6282,-0.6282,-0.6279,-0.6282,-0.5931,-0.5931,-0.576,-0.5762,-0.5588,-0.5588,-0.5588,-0.5588,-0.5588,-0.5588,-0.5588,-0.5588,-0.5588,-0.5588,-0.5588,-0.5588,-0.5588,-0.5414,-0.5237,-0.4712,-0.4012,-0.3315,-0.2616,-0.1743,-0.1046,-0.0523,0.0174,0.0872,0.1569,0.2092,0.279,0.279,0.279,0.279,0.279,0.279,0.279,0.279,0.279,0.279,0.279,0.2965,0.3139,0.3139,0.3139,0.3139,0.3139,0.3315,0.3489,0.3664,0.3838,0.4012,0.4359,0.5053,0.5575,0.6099,0.6624,-1.395,-1.3808,-1.2887,-1.2437,-1.2281,-1.2451,-1.2464,-1.2314,-1.2471,-1.2314,-1.2321,-1.217,-1.217,-1.217,-1.217,-1.217,-1.2223,-1.2554,-1.2599,-1.2843,-1.2882,-1.308,-1.3218,-1.335,-1.3409,-1.3548,-1.3752,-1.3699,-1.3712,-1.3547,-1.3381,-1.3203,-1.2674,-1.2157,-1.129,-1.0254,-0.9389,-0.8531,-0.7313,-0.6621,-0.6276,-0.5931,-0.576,-0.576,-0.576,-0.576,-0.5931,-0.5934,-0.6105,-0.6453,-0.7146,-0.749,-0.732,-0.732,-0.7142,-0.7142,-0.7146,-0.6972,-0.6447,-0.6273,-0.6102,-0.576,-0.576,-0.5588,-0.5588,-0.5588,-0.5588,-0.5588,-0.5588,-0.5588,-0.5588,-0.5588,-0.5588,-0.5588,-0.5588,-0.5585,-0.5058,-0.4709,-0.4189,-0.3489,-0.2616,-0.1395,-0.0872,-0.0349,0.1046,0.1569,0.2092,0.2616,0.279,0.279,0.279,0.279,0.279,0.279,0.279,0.279,0.279,0.279,0.279,0.279,0.279,0.279,0.2965,0.279,0.279,0.279,0.2965,0.3139,0.3315,0.3489,0.3838,0.4185,0.4705,0.5229,0.5751,-1.5501,-1.5376,-1.3965,-1.288,-1.241,-1.303,-1.3051,-1.2751,-1.2758,-1.2615,-1.2321,-1.217,-1.217,-1.217,-1.217,-1.217,-1.217,-1.2229,-1.2282,-1.2374,-1.2526,-1.2801,-1.2908,-1.3115,-1.3342,-1.3403,-1.3733,-1.3831,-1.3838,-1.3871,-1.3712,-1.3712,-1.3368,-1.268,-1.2324,-1.0934,-0.9908,-0.9225,-0.8531,-0.766,-0.6795,-0.6447,-0.6276,-0.6276,-0.6276,-0.6447,-0.6798,-0.6972,-0.749,-0.8692,-0.8865,-0.8696,-0.8358,-0.8358,-0.8007,-0.7833,-0.7656,-0.7483,-0.6962,-0.6599,-0.6264,-0.6085,-0.592,-0.5588,-0.5588,-0.5588,-0.5588,-0.5588,-0.5588,-0.5588,-0.5588,-0.5588,-0.5588,-0.576,-0.576,-0.5583,-0.5403,-0.5058,-0.4537,-0.3838,-0.3139,-0.2616,-0.1569,0.0174,0.2442,0.2092,0.2442,0.279,0.279,0.279,0.279,0.279,0.279,0.279,0.279,0.279,0.279,0.279,0.279,0.279,0.279,0.279,0.279,0.279,0.279,0.279,0.279,0.279,0.279,0.2965,0.3313,0.3488,0.3836,0.4533,0.5055,-1.6554,-1.5633,-1.4069,-1.3151,-1.3009,-1.3486,-1.3501,-1.3201,-1.2901,-1.2758,-1.2615,-1.2321,-1.217,-1.217,-1.217,-1.217,-1.217,-1.217,-1.217,-1.2347,-1.2447,-1.2647,-1.3014,-1.3405,-1.3464,-1.3644,-1.4066,-1.4273,-1.4329,-1.4665,-1.4735,-1.4571,-1.4221,-1.3871,-1.3521,-1.2146,-1.129,-1.095,-0.9744,-0.8878,-0.7837,-0.7313,-0.6965,-0.6795,-0.6965,-0.7136,-0.7486,-0.8003,-0.9216,-1.0594,-1.1112,-1.0772,-1.0436,-1.0441,-1.009,-0.9393,-0.922,-0.8815,-0.7889,-0.7521,-0.7181,-0.6672,-0.616,-0.5855,-0.5909,-0.576,-0.5588,-0.5585,-0.5588,-0.5588,-0.5588,-0.5588,-0.576,-0.5931,-0.6279,-0.645,-0.6447,-0.5749,-0.5232,-0.4712,-0.4012,-0.3139,-0.122,0.0523,0.1918,0.2616,0.279,0.279,0.279,0.279,0.279,0.279,0.279,0.279,0.279,0.279,0.279,0.279,0.279,0.279,0.279,0.279,0.279,0.279,0.279,0.279,0.279,0.279,0.2611,0.2607,0.2789,0.3139,0.3488,0.4012,0.4533,-1.7186,-1.6195,-1.4657,-1.4054,-1.4069,-1.4249,-1.4107,-1.3643,-1.3351,-1.3201,-1.2908,-1.2615,-1.2608,-1.2608,-1.2307,-1.2307,-1.2464,-1.2464,-1.2464,-1.2464,-1.2458,-1.2908,-1.3409,-1.3823,-1.3992,-1.408,-1.4548,-1.5021,-1.5125,-1.5347,-1.551,-1.577,-1.5599,-1.5591,-1.4899,-1.3343,-1.2656,-1.249,-1.129,-1.0086,-0.922,-0.8523,-0.818,-0.8011,-0.818,-0.8523,-0.8869,-0.9384,-1.0945,-1.3012,-1.3356,-1.3165,-1.2401,-1.2389,-1.1831,-1.0927,-1.0577,-1.0005,-0.8883,-0.8357,-0.7862,-0.7198,-0.6527,-0.6233,-0.6334,-0.603,-0.571,-0.5716,-0.5749,-0.5588,-0.576,-0.5757,-0.5928,-0.6447,-0.6972,-0.7493,-0.7316,-0.6792,-0.6099,-0.5757,-0.506,-0.3488,-0.1569,0.0174,0.1395,0.2442,0.279,0.279,0.279,0.279,0.279,0.279,0.279,0.279,0.279,0.279,0.279,0.279,0.279,0.279,0.279,0.2616,0.2616,0.2616,0.2616,0.2789,0.2789,0.2785,0.2597,0.2413,0.2588,0.2584,0.2937,0.3458,0.3798,-1.7206,-1.7705,-1.6203,-1.5583,-1.5442,-1.5161,-1.4862,-1.4548,-1.4107,-1.38,-1.3486,-1.3344,-1.3344,-1.3187,-1.273,-1.2587,-1.2758,-1.2758,-1.2758,-1.3051,-1.3194,-1.3494,-1.3673,-1.4238,-1.4366,-1.4434,-1.5092,-1.5586,-1.5805,-1.593,-1.6125,-1.6505,-1.7046,-1.7468,-1.6213,-1.47,-1.3825,-1.3851,-1.2834,-1.1451,-0.9716,-1.0081,-1.0263,-1.0263,-1.0263,-1.0609,-1.1295,-1.1818,-1.3024,-1.5249,-1.5562,-1.5075,-1.4197,-1.3809,-1.3191,-1.1691,-1.1459,-1.0808,-0.9807,-0.8985,-0.8338,-0.7858,-0.7035,-0.6388,-0.6437,-0.6369,-0.6089,-0.6092,-0.5838,-0.5738,-0.6085,-0.6255,-0.6426,-0.6962,-0.7781,-0.8302,-0.8865,-0.7976,-0.7081,-0.641,-0.5749,-0.4707,-0.2781,-0.0869,0.0696,0.209,0.2616,0.2616,0.279,0.279,0.279,0.279,0.279,0.279,0.279,0.279,0.279,0.279,0.279,0.279,0.279,0.2616,0.2442,0.2616,0.2616,0.2614,0.2784,0.2775,0.2589,0.2218,0.2034,0.2034,0.2373,0.2712,0.3225,-1.671,-1.6578,-1.6523,-1.6177,-1.5723,-1.5889,-1.5749,-1.5302,-1.4697,-1.4249,-1.4092,-1.3793,-1.3501,-1.3494,-1.3344,-1.3194,-1.3201,-1.3201,-1.3494,-1.4241,-1.4532,-1.4689,-1.487,-1.4991,-1.5031,-1.5096,-1.5703,-1.6107,-1.6248,-1.6311,-1.6492,-1.677,-1.7139,-1.7241,-1.6936,-1.6109,-1.5729,-1.574,-1.4728,-1.3693,-1.2822,-1.2318,-1.2152,-1.1813,-1.1979,-1.2496,-1.319,-1.4571,-1.5941,-1.6941,-1.6907,-1.63,-1.5509,-1.5301,-1.4762,-1.3524,-1.3007,-1.2442,-1.0859,-1.0055,-0.9584,-0.8789,-0.7989,-0.7387,-0.7176,-0.6896,-0.6446,-0.6278,-0.6175,-0.623,-0.6473,-0.6492,-0.7125,-0.8215,-0.8712,-0.8865,-0.9032,-0.8528,-0.7699,-0.6878,-0.6208,-0.5065,-0.3577,-0.171,0.0344,0.087,0.1918,0.279,0.279,0.2615,0.279,0.279,0.2616,0.2616,0.2616,0.279,0.279,0.2611,0.2607,0.243,0.2247,0.2072,0.1728,0.1726,0.2245,0.224,0.2395,0.2565,0.204,0.2016,0.1658,0.1658,0.1824,0.2155,0.2672,-1.6,-1.5882,-1.6569,-1.6597,-1.6157,-1.629,-1.6186,-1.5897,-1.5293,-1.4995,-1.4846,-1.4705,-1.4406,-1.4249,-1.4241,-1.4092,-1.3935,-1.4092,-1.454,-1.5136,-1.5285,-1.5442,-1.56,-1.56,-1.5591,-1.5783,-1.6298,-1.6634,-1.6646,-1.6881,-1.7082,-1.716,-1.7195,-1.7325,-1.7551,-1.708,-1.7018,-1.7294,-1.6242,-1.5436,-1.492,-1.4495,-1.4207,-1.3871,-1.4036,-1.4728,-1.5235,-1.6691,-1.7664,-1.8152,-1.7778,-1.7234,-1.6632,-1.6389,-1.5692,-1.4661,-1.4325,-1.3582,-1.2004,-1.1219,-1.0446,-0.9516,-0.8886,-0.834,-0.7973,-0.7558,-0.711,-0.6785,-0.6671,-0.6729,-0.6993,-0.7184,-0.7807,-0.9157,-0.9305,-0.9329,-0.9506,-0.9319,-0.8646,-0.7509,-0.6535,-0.5593,-0.4331,-0.2678,-0.0841,0.0,0.1194,0.1885,0.1895,0.1896,0.2248,0.2265,0.2442,0.2267,0.2616,0.279,0.2428,0.2239,0.2063,0.2059,0.1531,0.1356,0.0849,0.0849,0.136,0.1695,0.2016,0.1836,0.1158,0.0818,0.0975,0.1296,0.1458,0.1791,0.2461,-1.5052,-1.5743,-1.6608,-1.6787,-1.67,-1.6433,-1.6308,-1.6299,-1.5889,-1.5749,-1.5749,-1.5915,-1.5608,-1.56,-1.5293,-1.5285,-1.5277,-1.5442,-1.5749,-1.5749,-1.5749,-1.5749,-1.5897,-1.6055,-1.6203,-1.6334,-1.664,-1.7139,-1.7316,-1.7371,-1.7553,-1.7863,-1.7678,-1.7696,-1.7963,-1.716,-1.7018,-1.7334,-1.6951,-1.6433,-1.5945,-1.6234,-1.6406,-1.6445,-1.6553,-1.7038,-1.8256,-1.8118,-1.8098,-1.8555,-1.819,-1.7642,-1.7052,-1.6792,-1.632,-1.5292,-1.4895,-1.398,-1.2922,-1.2013,-1.1097,-1.0035,-0.942,-0.8952,-0.855,-0.8076,-0.7709,-0.7411,-0.7208,-0.7172,-0.7663,-0.8147,-0.8769,-0.962,-0.9718,-0.9879,-1.0221,-1.0414,-0.9934,-0.8441,-0.729,-0.6034,-0.507,-0.3928,-0.2463,-0.0824,-0.0165,0.0,0.0169,0.0677,0.1195,0.1209,0.1385,0.1557,0.2084,0.2611,0.2063,0.1531,0.1186,0.1013,0.0502,0.0,-0.0334,-0.0501,-0.0,0.0334,0.0662,0.0328,-0.0162,-0.0319,0.0318,0.0475,0.1266,0.2062,0.2404,-1.4916,-1.5061,-1.5743,-1.6493,-1.6838,-1.651,-1.6379,-1.627,-1.6219,-1.6186,-1.6037,-1.5897,-1.5757,-1.5749,-1.56,-1.5889,-1.6317,-1.6465,-1.6483,-1.6622,-1.6474,-1.6474,-1.6474,-1.6622,-1.6622,-1.677,-1.6918,-1.6973,-1.7102,-1.712,-1.7185,-1.7313,-1.7143,-1.728,-1.7526,-1.7407,-1.7404,-1.7777,-1.7451,-1.7337,-1.7241,-1.721,-1.721,-1.7537,-1.7639,-1.7859,-1.8192,-1.8075,-1.8163,-1.8278,-1.7947,-1.7526,-1.738,-1.6974,-1.6608,-1.6055,-1.5889,-1.5293,-1.4077,-1.3001,-1.2007,-1.1113,-1.024,-0.955,-0.8846,-0.8748,-0.8556,-0.8162,-0.799,-0.8166,-0.8545,-0.9425,-1.0125,-1.044,-1.028,-1.028,-1.0275,-1.0125,-0.9826,-0.9216,-0.7976,-0.6768,-0.5881,-0.4947,-0.3861,-0.3103,-0.2616,-0.2131,-0.1817,-0.1324,-0.1162,-0.0501,0.0,0.0512,0.0511,-0.0169,-0.1002,-0.083,-0.1157,-0.0661,-0.0823,-0.1315,-0.1807,-0.1969,-0.1639,-0.1147,-0.114,-0.1291,-0.1428,-0.1554,-0.1084,0.0156,0.155,0.2322,0.2349,-1.4659,-1.4655,-1.5463,-1.6065,-1.6413,-1.6233,-1.611,-1.6138,-1.6099,-1.6053,-1.6071,-1.6068,-1.5993,-1.5984,-1.5843,-1.6053,-1.6477,-1.6631,-1.6631,-1.6477,-1.6631,-1.6631,-1.6477,-1.6333,-1.6333,-1.6477,-1.6622,-1.6705,-1.6679,-1.6698,-1.6771,-1.6891,-1.6918,-1.7028,-1.7258,-1.7313,-1.7433,-1.7671,-1.7708,-1.7741,-1.7797,-1.7635,-1.7647,-1.8039,-1.8075,-1.8121,-1.8121,-1.7984,-1.7919,-1.7919,-1.7534,-1.7313,-1.7286,-1.7065,-1.677,-1.6613,-1.6358,-1.569,-1.4759,-1.3754,-1.2706,-1.1687,-1.0956,-1.0174,-0.9489,-0.9173,-0.898,-0.8587,-0.8743,-0.9004,-0.9379,-1.0025,-1.0526,-1.0537,-1.0454,-1.0368,-1.0064,-0.9991,-0.99,-0.9602,-0.884,-0.7502,-0.6521,-0.5764,-0.5019,-0.4611,-0.4464,-0.4161,-0.3706,-0.3394,-0.3084,-0.2618,-0.1987,-0.1666,-0.1988,-0.3274,-0.3587,-0.3246,-0.2907,-0.258,-0.2234,-0.2701,-0.2707,-0.2859,-0.2697,-0.2378,-0.2057,-0.2196,-0.2032,-0.2148,-0.1992,-0.046,0.2139,0.2457,0.2318,-1.463,-1.4694,-1.5475,-1.5656,-1.5685,-1.5794,-1.5678,-1.5825,-1.5733,-1.5733,-1.5825,-1.6138,-1.6294,-1.6239,-1.5926,-1.5871,-1.5871,-1.6055,-1.6065,-1.5927,-1.6055,-1.6018,-1.5706,-1.5559,-1.5587,-1.5954,-1.6111,-1.627,-1.6427,-1.6445,-1.6496,-1.6964,-1.6946,-1.6845,-1.6891,-1.6891,-1.69,-1.7028,-1.735,-1.7552,-1.7616,-1.7744,-1.789,-1.7908,-1.8048,-1.8002,-1.7993,-1.7699,-1.7515,-1.7515,-1.7148,-1.6937,-1.6918,-1.6891,-1.6863,-1.6836,-1.6234,-1.5597,-1.5108,-1.41,-1.2936,-1.1956,-1.1339,-1.0937,-1.0055,-0.9412,-0.9159,-0.9025,-0.922,-0.9545,-0.9957,-1.0245,-1.0368,-1.0374,-1.0411,-1.0373,-0.995,-1.0146,-1.0158,-0.9717,-0.9425,-0.8541,-0.7014,-0.6395,-0.581,-0.5361,-0.5505,-0.5546,-0.5497,-0.5205,-0.4926,-0.4674,-0.471,-0.5183,-0.6046,-0.5734,-0.5441,-0.4929,-0.4568,-0.4551,-0.4168,-0.3816,-0.3672,-0.3527,-0.3393,-0.3241,-0.3218,-0.3059,-0.2754,-0.2449,-0.2139,-0.1222,0.1069,0.1986,0.1991,-1.5263,-1.5282,-1.5526,-1.5309,-1.4943,-1.5354,-1.5532,-1.5694,-1.5723,-1.5706,-1.5724,-1.5825,-1.5999,-1.6191,-1.6335,-1.6411,-1.6392,-1.6108,-1.5981,-1.5999,-1.6146,-1.5999,-1.5853,-1.5706,-1.5853,-1.5999,-1.5962,-1.6156,-1.6565,-1.6584,-1.6632,-1.6737,-1.6766,-1.6778,-1.6891,-1.6938,-1.6943,-1.69,-1.7019,-1.724,-1.746,-1.7341,-1.7249,-1.7249,-1.724,-1.7249,-1.724,-1.7139,-1.7084,-1.7084,-1.6983,-1.6918,-1.6909,-1.6652,-1.6496,-1.6459,-1.5969,-1.5602,-1.5436,-1.428,-1.3143,-1.231,-1.1417,-1.0641,-1.0151,-0.9898,-0.9735,-0.9622,-0.9811,-0.9978,-1.0316,-1.074,-1.0988,-1.0861,-1.0778,-1.0558,-1.0428,-1.0205,-0.9926,-0.9795,-0.9622,-0.9289,-0.8523,-0.7769,-0.731,-0.6703,-0.671,-0.6736,-0.6451,-0.6315,-0.6017,-0.574,-0.552,-0.5989,-0.7124,-0.7,-0.6356,-0.6004,-0.5706,-0.539,-0.505,-0.4424,-0.4117,-0.4424,-0.3816,-0.3513,-0.3513,-0.3208,-0.2906,-0.2597,-0.1986,-0.1069,-0.0153,-0.0153,-0.0,-1.6041,-1.6313,-1.6324,-1.5778,-1.5127,-1.5504,-1.563,-1.5529,-1.5647,-1.5609,-1.5609,-1.5618,-1.575,-1.5938,-1.6174,-1.6282,-1.6292,-1.6017,-1.5884,-1.5894,-1.5761,-1.5751,-1.5618,-1.5751,-1.5761,-1.5894,-1.5874,-1.5874,-1.6188,-1.6335,-1.651,-1.6666,-1.6695,-1.6684,-1.6896,-1.6814,-1.6882,-1.6943,-1.6816,-1.6853,-1.7055,-1.6985,-1.6928,-1.7079,-1.7098,-1.7173,-1.7343,-1.7371,-1.7287,-1.7117,-1.7098,-1.7032,-1.6862,-1.6636,-1.6504,-1.6495,-1.6259,-1.6052,-1.5593,-1.4429,-1.3435,-1.2509,-1.1677,-1.0796,-1.0294,-1.0169,-1.0145,-1.0019,-1.0277,-1.0409,-1.0429,-1.0691,-1.0931,-1.0944,-1.0906,-1.0702,-1.0565,-1.0233,-0.9958,-0.9837,-0.9605,-0.9452,-0.9163,-0.8778,-0.8376,-0.7921,-0.7921,-0.7765,-0.7462,-0.7458,-0.7306,-0.7166,-0.7079,-0.7559,-0.8112,-0.7765,-0.7466,-0.731,-0.6858,-0.6558,-0.6406,-0.5791,-0.5332,-0.5335,-0.4729,-0.4121,-0.3816,-0.3513,-0.3057,-0.275,-0.2139,-0.168,-0.168,-0.168,-0.1527,-1.7069,-1.7627,-1.7627,-1.6943,-1.5844,-1.601,-1.5904,-1.5672,-1.5525,-1.5642,-1.5945,-1.5768,-1.5924,-1.5778,-1.5914,-1.5945,-1.5945,-1.6051,-1.6071,-1.5808,-1.5379,-1.5389,-1.5701,-1.5672,-1.5652,-1.5682,-1.5818,-1.5858,-1.5995,-1.6217,-1.6454,-1.6791,-1.6685,-1.6685,-1.6764,-1.693,-1.6871,-1.6816,-1.6523,-1.6485,-1.6695,-1.6676,-1.6999,-1.7383,-1.7392,-1.7589,-1.7787,-1.8002,-1.7805,-1.7442,-1.7392,-1.7225,-1.6744,-1.6783,-1.6754,-1.6764,-1.6705,-1.6393,-1.5731,-1.4705,-1.3639,-1.2608,-1.1967,-1.1189,-1.0545,-1.0133,-1.0114,-1.0261,-1.041,-1.0443,-1.0552,-1.0579,-1.0612,-1.0515,-1.0687,-1.0685,-1.0442,-1.024,-0.9987,-0.9579,-0.9506,-0.9363,-0.9389,-0.9251,-0.8928,-0.8613,-0.8646,-0.8679,-0.8527,-0.8527,-0.8527,-0.8679,-0.8835,-0.9143,-0.9143,-0.883,-0.8679,-0.8523,-0.8229,-0.8077,-0.7773,-0.7314,-0.6855,-0.6399,-0.5794,-0.5033,-0.4576,-0.4121,-0.3361,-0.3208,-0.2903,-0.2597,-0.2597,-0.2445,-0.243,-1.8412,-1.8981,-1.8981,-1.8287,-1.7065,-1.713,-1.6775,-1.6293,-1.601,-1.6639,-1.7766,-1.7891,-1.7766,-1.7754,-1.7879,-1.7641,-1.7527,-1.7788,-1.7435,-1.6796,-1.6419,-1.6283,-1.6293,-1.6293,-1.6545,-1.6796,-1.6911,-1.7026,-1.7037,-1.7134,-1.7263,-1.7339,-1.7521,-1.7306,-1.6679,-1.7005,-1.6827,-1.6193,-1.65,-1.6722,-1.6666,-1.6676,-1.6715,-1.6812,-1.695,-1.6861,-1.6958,-1.6978,-1.6919,-1.697,-1.6822,-1.6773,-1.6676,-1.6777,-1.673,-1.6689,-1.6917,-1.6796,-1.632,-1.5321,-1.4258,-1.3247,-1.2344,-1.1567,-1.0904,-1.0205,-0.9949,-1.01,-1.0271,-1.0532,-1.0532,-1.0539,-1.0552,-1.0552,-1.0489,-1.0535,-1.0411,-1.0372,-1.0266,-1.0161,-0.9685,-0.9414,-0.9452,-0.9331,-0.918,-0.921,-0.9338,-0.9436,-0.9446,-0.9446,-0.9446,-0.9446,-0.9446,-0.9597,-0.9602,-0.9446,-0.9446,-0.9446,-0.9143,-0.8987,-0.8835,-0.8229,-0.7622,-0.731,-0.6703,-0.6085,-0.518,-0.4569,-0.426,-0.3648,-0.3341,-0.3045,-0.289,-0.2738,-0.2568,-1.9678,-2.036,-2.0484,-1.9653,-1.8296,-1.8094,-1.7766,-1.738,-1.7406,-1.7795,-1.8515,-1.8275,-1.818,-1.8048,-1.8048,-1.7929,-1.7701,-1.8067,-1.7929,-1.7339,-1.7314,-1.7288,-1.7162,-1.7288,-1.7424,-1.7538,-1.7766,-1.7891,-1.7891,-1.8015,-1.7902,-1.8027,-1.8322,-1.8198,-1.7521,-1.7297,-1.7,-1.6469,-1.687,-1.7037,-1.7025,-1.6761,-1.6862,-1.7189,-1.7179,-1.7281,-1.7622,-1.7643,-1.7675,-1.7457,-1.7169,-1.7067,-1.7288,-1.7306,-1.7306,-1.7342,-1.7462,-1.7338,-1.6872,-1.6017,-1.4926,-1.334,-1.2236,-1.1621,-1.1359,-1.0601,-1.0146,-0.9905,-0.9915,-1.008,-1.0205,-1.0219,-1.0398,-1.0654,-1.0545,-1.0545,-1.0565,-1.0306,-1.0114,-1.0145,-0.9688,-0.9301,-0.9301,-0.9235,-0.9262,-0.9395,-0.949,-0.9632,-0.9733,-0.9754,-0.9754,-0.9754,-0.9754,-0.9754,-0.9754,-0.9754,-0.9749,-1.0046,-0.9895,-0.9743,-0.9895,-0.9284,-0.883,-0.8523,-0.7685,-0.6904,-0.6142,-0.5501,-0.4875,-0.4137,-0.3694,-0.325,-0.2953,-0.2805,-0.2634,-2.0815,-2.1742,-2.1879,-2.1034,-1.9664,-1.9061,-1.8838,-1.8826,-1.9101,-1.8956,-1.8813,-1.8235,-1.8011,-1.8011,-1.8024,-1.7898,-1.7671,-1.811,-1.8094,-1.7894,-1.7981,-1.8091,-1.8172,-1.8172,-1.8218,-1.8276,-1.8501,-1.8626,-1.8626,-1.8626,-1.8637,-1.8762,-1.9182,-1.9194,-1.8797,-1.7891,-1.7452,-1.7479,-1.7485,-1.7538,-1.731,-1.6807,-1.686,-1.7608,-1.763,-1.7966,-1.8636,-1.8647,-1.8593,-1.8171,-1.7705,-1.7627,-1.8071,-1.816,-1.8173,-1.8261,-1.8318,-1.8122,-1.7683,-1.709,-1.5821,-1.3842,-1.2358,-1.1733,-1.1982,-1.1219,-1.0424,-1.0066,-0.99,-0.9778,-0.9991,-1.0031,-1.0372,-1.0857,-1.0793,-1.0666,-1.0759,-1.0392,-1.0157,-1.0088,-0.9526,-0.9258,-0.9192,-0.9125,-0.9208,-0.9236,-0.9299,-0.9432,-0.9611,-0.968,-0.9664,-0.9696,-0.9727,-0.9754,-0.9905,-0.9754,-0.99,-1.0348,-1.0309,-1.0414,-1.0563,-1.0064,-0.9574,-0.9617,-0.8718,-0.7757,-0.7158,-0.6313,-0.5708,-0.4848,-0.4423,-0.3847,-0.3279,-0.3106,-0.2942,-2.1891,-2.2435,-2.2994,-2.2435,-2.1172,-2.0451,-2.0342,-2.0561,-1.9851,0.0,0.0,-1.9616,-1.9575,-1.9674,-1.9813,-1.9813,-1.9575,-1.9319,-1.9033,-1.8832,-1.8018,-1.8196,-1.885,-1.8251,-1.8503,-1.9146,-1.9146,-1.9134,-1.9282,-1.9282,-1.9406,-1.9777,-2.0185,-2.0432,-2.0516,-1.9888,-1.9306,-1.8981,-1.8548,-1.7891,-1.7173,-1.6807,-1.6713,-1.7166,-1.7166,-1.7325,-1.7666,-1.7793,-1.7876,-1.8038,-1.8164,-1.8183,-1.8143,-1.9006,-1.9229,-1.8743,-1.9246,-1.9432,-1.9325,-1.8763,-1.7974,-1.6941,-1.4671,-1.3129,-1.3177,-1.2151,-1.1221,-1.077,-1.0678,-1.0622,-1.0673,-1.0681,-1.0829,-1.1127,-1.1142,-1.103,-1.0895,-1.0768,-1.0658,-1.0386,-0.9988,-0.9713,-0.9301,-0.9286,-0.9054,-0.8972,-0.9138,-0.9194,-0.9373,-0.931,-0.9257,-0.9437,-0.959,-0.9878,-1.0035,-1.0169,-1.0348,-1.0604,-1.0602,-1.049,-1.0449,-1.0303,-0.989,-0.9781,-0.9436,-0.8685,-0.7826,-0.7499,-0.708,-0.5947,-0.5241,-0.4673,-0.4239,-0.4112,-0.3727,-2.2863,-2.3557,-2.3844,-2.3285,0.0,-2.137,-2.1081,-2.0881,-2.0385,-1.9967,-1.9647,-1.9569,-1.9521,-1.9535,-1.9761,-1.9761,-1.9549,-1.9644,-1.9566,-1.9143,-1.8771,-1.8705,-1.8987,-1.8769,-1.8792,-1.928,-1.9398,-1.9503,-1.9529,-1.9529,-1.9646,-1.9999,-2.0247,-2.0482,-2.0833,-2.0634,-2.0302,-1.9688,-1.9111,-1.8264,-1.7288,-1.6796,-1.6671,-1.7048,-1.7048,0.0,0.0,0.0,0.0,0.0,0.0,0.0,0.0,-1.9361,0.0,-1.9244,-1.9704,-1.9641,-1.9105,-1.8545,-1.8062,-1.7621,-1.5862,-1.4824,-1.485,-1.3603,-1.248,-1.1721,-1.1454,-1.1301,-1.1472,-1.1489,-1.1677,-1.2216,-1.2007,-1.189,-1.1765,-1.1539,-1.1139,-1.0827,-1.05,-1.0138,-0.9669,-0.9543,-0.9345,-0.908,-0.9071,-0.9229,-0.9283,-0.9159,-0.9234,-0.9474,-0.9626,-0.9686,-0.9972,-0.9966,-1.0403,-1.0977,-1.1022,-1.1083,-1.1355,-1.1097,-1.0861,-1.0582,-1.0338,-0.984,-0.8998,-0.863,-0.8147,-0.7066,-0.6249,-0.5825,-0.5607,-0.5091,-0.4477,-2.3544,-2.4471,-2.4347,-2.3632,-2.2638,-2.1621,-2.1075,-2.0834,-2.0376,-1.9939,-1.9427,-1.925,-1.9134,-1.9134,-1.9436,-1.9537,-1.938,-1.9805,-1.98,-1.9393,-1.9333,-1.9291,-1.9177,-1.9177,-1.9119,-1.9351,-1.9575,-1.9687,-1.9799,-1.9813,-1.9925,-2.0246,-2.0246,-2.0579,-2.1192,0.0,0.0,0.0,-1.9264,-1.8284,-1.7402,-1.6671,-1.6545,-1.6922,-1.7048,0.0,-1.8027,-1.814,-1.8365,-1.8889,-1.8853,0.0,0.0,0.0,0.0,0.0,0.0,0.0,0.0,0.0,0.0,0.0,-1.6856,-1.6464,-1.653,-1.5176,-1.3829,-1.2858,-1.2443,-1.2216,-1.251,-1.2537,-1.2897,-1.3678,-1.327,-1.2937,-1.2937,-1.2471,-1.1825,-1.1311,-1.1269,-1.1125,-1.0482,-1.0219,-1.0106,-0.9651,-0.9426,-0.9383,-0.9433,-0.9558,-0.9535,-0.9622,-0.9551,-0.9568,-0.9747,-1.0045,-1.0631,-1.1127,-1.1386,-1.1616,-1.2017,-1.1844,-1.1658,-1.1507,-1.1208,-1.0633,-1.0087,-0.9795,-0.916,-0.7964,-0.7306,-0.697,-0.6752,-0.5957,-0.5084,-2.3811,-2.4434,-2.3667,-2.3334,-2.3191,-2.0765,-2.0002,-2.0393,-1.9393,-1.8887,-1.8802,-1.9264,-1.9436,-1.9436,-2.0053,-2.0237,-2.0253,-2.0144,-1.9988,-1.9887,-1.9352,-1.9375,-1.989,-1.942,-1.9592,-2.026,-2.0009,-2.0009,-2.0288,-2.0288,-2.0622,-2.1178,-2.1178,-2.162,-2.2485,-2.1988,-2.1301,-2.0661,-1.8846,-1.746,-1.666,-1.6041,-1.603,-1.6555,-1.6555,-1.7037,-1.8027,-1.814,-1.8325,-1.8623,-1.8882,-1.909,-1.9306,-1.9479,-1.9702,0.0,-2.0172,0.0,0.0,0.0,0.0,0.0,0.0,0.0,0.0,-1.6642,-1.5575,-1.4183,-1.391,-1.397,-1.4233,-1.4233,-1.4465,-1.4962,-1.488,-1.4468,-1.4035,-1.3716,-1.3226,-1.2275,-1.2647,-1.2546,-1.1758,-1.1606,-1.1424,-1.0701,-1.032,-1.0197,-1.0502,-1.0489,-1.0306,-1.0192,-0.9965,-0.9906,-1.0356,-1.0829,-1.1247,-1.1657,-1.1897,-1.1869,-1.1989,-1.1779,-1.1583,-1.1453,-1.1439,-1.126,-1.0851,-1.0572,-1.0036,-0.9243,-0.8311,-0.7666,-0.7319,-0.6856,-0.6142,-2.3318,-2.3112,-2.2954,-2.2842,-2.2527,-2.0747,-2.0251,-2.0566,-1.9554,-1.9019,-1.8817,-1.9019,-1.9321,-1.9838,-2.0337,-2.0735,-2.085,-2.0536,-2.0353,-2.0153,-1.9752,-1.9613,-1.9673,-1.9438,-1.9583,-1.9886,-1.9977,-1.9977,-2.0217,-2.0322,-2.0726,-2.1248,-2.1248,-2.1871,-2.2884,-2.2062,-2.1262,-2.0591,-1.8949,-1.7596,-1.6513,-1.5904,-1.5768,-1.6146,-1.6146,-1.665,-1.7652,-1.763,-1.7997,-1.8832,-1.882,-1.8979,-1.9261,-1.9627,-1.9774,0.0,0.0,0.0,0.0,0.0,0.0,0.0,0.0,0.0,0.0,0.0,-1.6748,-1.5861,-1.5463,-1.5415,-1.5884,-1.5755,-1.576,-1.6271,-1.6271,-1.5972,-1.5384,-1.5444,-1.5081,-1.4129,-1.4232,-1.3914,-1.3074,-1.3026,-1.2779,-1.1781,-1.1974,-1.2213,-1.2115,-1.1674,-1.1214,-1.0728,-1.0496,-1.0528,-1.1052,-1.16,-1.2006,-1.2391,-1.254,-1.2578,-1.2709,-1.2445,-1.2336,-1.2336,-1.208,-1.1959,-1.156,-1.1439,-1.1118,-1.0219,-0.9556,-0.8941,-0.823,-0.7808,-0.7118,-2.2923,-2.2533,-2.2741,-2.2765,-2.2422,-2.1265,-2.0665,-2.0441,-1.9453,-1.9092,-1.8881,-1.8571,-1.8866,-1.9807,-2.0166,-2.0617,-2.0988,-2.0777,-2.0676,-2.0536,-2.0353,-2.0153,-1.9838,-1.9838,-1.9823,-1.9923,-2.0253,-2.0437,-2.0452,-2.0751,-2.1115,-2.1608,-2.1456,-2.1853,-2.2885,-2.1829,-2.0897,-2.0011,-1.8611,-1.735,-1.6189,-1.5668,-1.5516,-1.5884,-1.601,-1.6461,-1.7226,-1.7237,-1.7752,-1.8666,-1.8598,-1.8715,-1.92,-1.9491,0.0,0.0,0.0,0.0,0.0,0.0,0.0,0.0,0.0,-1.7236,-1.7519,0.0,-1.7147,0.0,-1.654,-1.6593,-1.7105,-1.6841,0.0,0.0,-1.7413,-1.7224,-1.6776,-1.6912,-1.6753,-1.593,-1.5885,-1.5634,-1.476,-1.4786,-1.4522,-1.3566,-1.419,-1.4525,-1.3736,-1.3055,-1.2397,-1.1719,-1.1412,-1.1451,-1.1843,-1.2345,-1.2729,-1.3212,-1.3212,-1.3221,-1.3479,-1.3221,-1.2962,-1.2971,-1.2595,-1.2352,-1.207,-1.2086,-1.1705,-1.1172,-1.0792,-1.0395,-0.9401,-0.8789,-0.8113,-2.2884,-2.3969,-2.3297,-2.341,-2.3977,-2.2441,-2.1019,-1.9694,-1.8634,-1.8303,-1.8318,-1.7818,-1.8045,-1.894,-1.9206,0.0,-2.0467,-2.0467,-2.073,-2.1147,-2.1131,-2.1032,-2.1032,-2.1032,-2.1131,-2.1444,-2.1427,-2.1526,-2.1821,-2.2017,-2.2505,-2.2956,-2.2301,-2.2099,-2.2315,-2.1023,-1.985,-1.886,-1.718,-1.5874,-1.5141,-1.5113,-1.5146,-1.5642,-1.6167,-1.6584,-1.6774,-1.7285,-1.7769,-1.7935,-1.791,-1.8289,-1.8984,0.0,0.0,0.0,0.0,0.0,0.0,0.0,0.0,0.0,0.0,0.0,0.0,0.0,0.0,-1.6384,-1.6635,0.0,-1.7439,-1.7562,0.0,0.0,0.0,-1.8075,-1.7819,-1.8014,-1.7917,-1.7407,0.0,0.0,-1.7141,-1.6983,-1.6835,-1.689,-1.6671,-1.6154,-1.5237,-1.445,-1.3667,-1.321,-1.267,-1.2443,-1.2975,-1.3202,-1.3573,-1.3799,-1.3616,-1.3672,-1.3682,-1.3193,-1.2696,-1.2731,-1.246,-1.2258,-1.2242,-1.2124,-1.1991,-1.2426,-1.1975,-1.1402,-1.0862,-1.0022,-0.9153,-2.2699,-2.3455,-2.3308,-2.3388,-2.3379,-2.2164,-2.11,-2.0111,-1.9247,-1.8505,-1.8071,-1.8073,-1.8283,-1.8819,-1.9247,0.0,0.0,0.0,-2.0462,-2.0984,-2.0793,-2.1021,-2.1411,-2.1624,-2.1821,-2.2115,-2.2391,-2.2345,-2.2105,-2.2387,-2.2535,-2.2808,0.0,-2.1868,-2.145,-2.074,-1.9444,-1.7741,-1.673,-1.5684,-1.4807,-1.4697,-1.4886,-1.5369,-1.5613,-1.6088,-1.7049,-1.733,-1.7709,-1.8209,-1.8475,-1.8434,0.0,0.0,0.0,0.0,0.0,0.0,0.0,0.0,0.0,0.0,0.0,-1.6242,-1.6277,0.0,0.0,0.0,-1.7136,-1.7558,-1.8295,-1.8088,0.0,0.0,0.0,0.0,0.0,0.0,0.0,-1.9131,-1.8763,-1.8516,-1.8384,-1.8645,-1.8714,-1.8155,-1.7608,-1.6802,-1.5834,0.0,-1.4724,-1.3918,-1.4032,-1.4305,-1.4891,-1.5122,-1.5456,-1.58,-1.5477,-1.5132,-1.5132,-1.4566,-1.4103,-1.3987,-1.3523,-1.3067,-1.3067,-1.3337,-1.3591,-1.3539,-1.3274,-1.2807,-1.2221,-1.154,-1.0797,-2.1882,0.0,0.0,0.0,0.0,-2.0979,-2.0105,-1.9406,-1.8688,-1.7895,-1.7204,-1.7496,0.0,0.0,0.0,0.0,0.0,0.0,-2.006,-2.0687,-2.0538,-2.0694,-2.1286,-2.1588,-2.1839,-2.2216,-2.2703,-2.2678,-2.239,-2.2131,-2.189,-2.1664,0.0,0.0,0.0,0.0,-1.8824,-1.6993,-1.6145,-1.533,-1.445,-1.4168,-1.4379,-1.4988,-1.5404,-1.594,-1.6875,-1.7261,-1.766,-1.8204,-1.8314,0.0,0.0,0.0,0.0,0.0,0.0,0.0,0.0,0.0,0.0,0.0,0.0,0.0,0.0,0.0,0.0,0.0,0.0,0.0,-1.8322,-1.8159,-1.816,0.0,0.0,0.0,0.0,0.0,0.0,0.0,0.0,0.0,-1.9544,-1.9733,-1.9513,0.0,0.0,-1.7101,-1.6279,-1.5874,-1.5464,-1.4881,-1.5385,0.0,-1.6519,-1.695,-1.7269,-1.7489,-1.7171,-1.674,-1.6618,-1.5963,-1.5417,-1.5294,-1.4633,-1.4194,-1.4269,-1.4525,-1.4726,-1.4478,-1.4175,-1.386,-1.3444,-1.2834,-1.2251,0.0,0.0,0.0,0.0,-2.1013,0.0,0.0,0.0,-1.6338,-1.596,0.0,-1.5873,0.0,0.0,0.0,0.0,-1.8845,-1.8745,0.0,0.0,-2.0425,-2.0476,-2.0704,-2.0896,-2.1402,-2.1971,-2.2143,-2.2428,-2.2764,-2.1414,-2.0368,0.0,0.0,0.0,0.0,0.0,-1.7546,-1.6746,-1.5385,-1.4567,-1.4189,-1.3551,-1.3756,-1.4727,-1.5862,-1.6297,-1.6102,-1.6999,-1.753,-1.7729,-1.7131,0.0,0.0,0.0,0.0,0.0,0.0,0.0,0.0,0.0,0.0,0.0,0.0,0.0,0.0,0.0,0.0,0.0,0.0,0.0,0.0,-1.7601,0.0,0.0,0.0,0.0,0.0,0.0,0.0,0.0,0.0,-2.088,-2.0804,-1.9868,-1.9166,-1.9348,0.0,0.0,0.0,0.0,-1.6005,-1.62,-1.651,-1.6935,-1.768,-1.8279,-1.8556,-1.8672,0.0,0.0,-1.7613,-1.7025,-1.6651,-1.6316,-1.5798,-1.5439,-1.5699,-1.553,-1.528,-1.5094,-1.4827,-1.4567,-1.4474,-1.3996,-1.3449,0.0,0.0,0.0,0.0,0.0,0.0,0.0,0.0,0.0,-1.6245,-1.6093,-1.6196,0.0,0.0,0.0,0.0,0.0,0.0,0.0,0.0,-1.9731,-2.0288,-2.1467,-2.2068,-2.2495,-2.2964,-2.2729,-2.2107,0.0,0.0,0.0,0.0,0.0,0.0,0.0,0.0,-1.7431,-1.6168,-1.5082,-1.4438,-1.416,-1.3603,-1.367,-1.4425,-1.516,-1.5979,-1.6754,-1.7391,-1.7518,0.0,0.0,0.0,0.0,0.0,0.0,0.0,0.0,0.0,0.0,0.0,0.0,0.0,0.0,0.0,0.0,0.0,0.0,0.0,0.0,0.0,0.0,0.0,-1.7956,0.0,0.0,0.0,0.0,0.0,0.0,0.0,0.0,0.0,-2.0285,-2.0171,-1.9838,-1.9307,-1.8347,-1.7497,-1.6768,0.0,0.0,0.0,0.0,0.0,0.0,0.0,-2.0122,-2.0322,-2.0406,-2.0306,-1.9693,-1.9076,-1.8531,-1.7881,0.0,0.0,-1.7577,-1.7263,-1.6916,-1.6916,-1.6706,-1.6496,-1.6496,-1.5872,-1.5295,0.0,0.0,0.0,0.0,0.0,0.0,0.0,0.0,0.0,-1.5897,-1.5833,0.0,0.0,0.0,0.0,0.0,0.0,0.0,0.0,0.0,0.0,0.0,-2.0708,-2.1256,0.0,0.0,0.0,0.0,0.0,0.0,0.0,0.0,0.0,0.0,0.0,0.0,-1.6865,-1.5936,-1.4823,-1.4204,-1.3963,-1.3494,-1.3484,-1.4097,-1.4942,-1.5803,-1.6827,0.0,0.0,0.0,0.0,0.0,0.0,0.0,0.0,0.0,0.0,0.0,0.0,0.0,0.0,0.0,0.0,0.0,0.0,0.0,0.0,0.0,0.0,0.0,0.0,0.0,-1.8225,0.0,0.0,0.0,0.0,0.0,0.0,0.0,0.0,0.0,0.0,-2.0773,-2.0504,-1.9508,-1.8699,-1.7803,-1.6986,-1.6678,-1.6691,0.0,0.0,0.0,0.0,0.0,0.0,0.0,0.0,0.0,0.0,0.0,0.0,0.0,-1.8731,-1.8509,-1.8645,-1.8345,-1.7939,-1.7633,0.0,0.0,0.0,0.0,0.0,0.0,0.0,0.0,0.0,0.0,0.0,0.0,0.0,0.0,0.0,-1.4826,0.0,0.0,-1.5261,0.0,0.0,0.0,0.0,0.0,0.0,0.0,0.0,0.0,0.0,0.0,0.0,0.0,0.0,0.0,0.0,0.0,0.0,0.0,0.0,0.0,0.0,-1.5994,-1.5909,-1.4588,-1.3769,-1.357,-1.3339,-1.345,-1.4032,-1.5077,-1.5674,-1.5939,0.0,0.0,0.0,0.0,0.0,0.0,0.0,0.0,0.0,0.0,0.0,0.0,0.0,0.0,0.0,0.0,0.0,0.0,0.0,0.0,0.0,0.0,0.0,0.0,0.0,0.0,-1.7772,-1.7951,-1.833,0.0,0.0,0.0,0.0,0.0,0.0,0.0,0.0,0.0,-2.0175,-1.9243,-1.8284,-1.7319,-1.7127,-1.7217,-1.7511,-1.821,-1.9005,-1.9938,-2.0452,-2.1131,0.0,0.0,0.0,0.0,0.0,0.0,0.0,0.0,0.0,0.0,0.0,0.0,0.0,0.0,0.0,0.0,0.0,0.0,0.0,0.0,0.0,0.0,0.0,0.0,0.0,0.0,0.0,0.0,0.0,0.0,0.0,0.0,0.0,0.0,0.0,0.0,0.0,0.0,0.0,0.0,0.0,0.0,0.0,0.0,0.0,0.0,0.0,0.0,0.0,0.0,0.0,0.0,0.0,0.0,-1.62,-1.6182,-1.4576,-1.3758,-1.357,-1.3285,-1.3363,-1.3991,-1.5306,-1.6071,0.0,0.0,0.0,0.0,0.0,0.0,0.0,0.0,0.0,0.0,0.0,0.0,0.0,0.0,0.0,0.0,0.0,0.0,0.0,0.0,0.0,0.0,0.0,0.0,0.0,0.0,0.0,0.0,-1.7861,-1.8127,-1.9174,0.0,0.0,0.0,0.0,0.0,0.0,0.0,0.0,0.0,0.0,-1.8484,-1.804,-1.7715,-1.7715,-1.7993,-1.8716,-1.9422,-2.0237,-2.1032,-2.1919,-2.2877,0.0,0.0,0.0,0.0,0.0,0.0,0.0,0.0,0.0,0.0,0.0,0.0,0.0,0.0,0.0,0.0,0.0,0.0,0.0,0.0,0.0,0.0,0.0,0.0,0.0,0.0,0.0,0.0,0.0,0.0,0.0,0.0,0.0,0.0,0.0,0.0,0.0,0.0,0.0,0.0,0.0,0.0,0.0,0.0,0.0,0.0,0.0,0.0,0.0,0.0,0.0,0.0,0.0,-1.6262,-1.644,-1.4552,-1.3471,-1.3393,-1.3175,-1.3368,-1.4061,-1.5592,-1.653,0.0,0.0,0.0,0.0,0.0,0.0,0.0,0.0,0.0,0.0,0.0,0.0,0.0,0.0,0.0,0.0,0.0,0.0,0.0,0.0,0.0,0.0,0.0,0.0,0.0,0.0,0.0,0.0,-1.7883,-1.8332,-1.9089,0.0,0.0,0.0,0.0,0.0,0.0,0.0,0.0,0.0,0.0,-1.9343,-1.9018,-1.8817,0.0,0.0,-1.9422,-1.9953,-2.0452,-2.123,-2.2196,-2.342,-2.3782,0.0,0.0,0.0,0.0,0.0,0.0,0.0,0.0,0.0,0.0,0.0,0.0,0.0,0.0,0.0,0.0,0.0,0.0,0.0,0.0,0.0,0.0,0.0,0.0,0.0,0.0,0.0,0.0,0.0,0.0,0.0,0.0,0.0,0.0,0.0,0.0,0.0,0.0,0.0,0.0,0.0,0.0,0.0,0.0,0.0,0.0,0.0,0.0,0.0,0.0,0.0,0.0,-1.6045,-1.6488,-1.4413,-1.3231,-1.3102,-1.3037,-1.3332,-1.4169,-1.5829,-1.7011,0.0,0.0,0.0,0.0,0.0,0.0,0.0,0.0,0.0,0.0,0.0,0.0,0.0,0.0,0.0,0.0,0.0,0.0,0.0,0.0,0.0,0.0,0.0,0.0,0.0,0.0,0.0,0.0,0.0,0.0,0.0,0.0,0.0,0.0,0.0,0.0,0.0,0.0,0.0,0.0,0.0,-2.0533,-2.0411,-2.0222,-2.0023,0.0,-2.0337,-2.0636,-2.0834,-2.128,-2.2192,-2.3867,0.0,0.0,0.0,0.0,0.0,0.0,0.0,0.0,0.0,0.0,0.0,0.0,0.0,0.0,0.0,0.0,0.0,0.0,0.0,0.0,0.0,0.0,0.0,0.0,0.0,0.0,0.0,0.0,0.0,0.0,0.0,0.0,0.0,0.0,0.0,0.0,0.0,0.0,0.0,0.0,0.0,0.0,0.0,0.0,0.0,0.0,0.0,0.0,0.0,0.0,0.0,0.0,0.0,0.0,-1.6787,-1.4678,-1.3414,-1.3332,-1.3152,-1.3332,-1.4169,-1.6229,0.0,0.0,0.0,0.0,0.0,0.0,0.0,0.0,0.0,0.0,0.0,0.0,0.0,0.0,0.0,0.0,0.0,0.0,0.0,0.0,0.0,0.0,0.0,0.0,0.0,0.0,0.0,-1.7513,0.0,0.0,0.0,0.0,0.0,0.0,0.0,0.0,0.0,0.0,0.0,0.0,0.0,0.0,-2.1274,-2.2027,-2.1902,-2.1706,0.0,0.0,-2.2098,-2.2017,-2.2027,-2.2472,0.0,0.0,0.0,0.0,0.0,0.0,0.0,0.0,0.0,0.0,0.0,0.0,0.0,0.0,0.0,0.0,0.0,0.0,0.0,0.0,0.0,0.0,0.0,0.0,0.0,0.0,0.0,0.0,0.0,0.0,0.0,0.0,0.0,0.0,0.0,0.0,0.0,0.0,0.0,0.0,0.0,0.0,0.0,0.0,0.0,0.0,0.0,0.0,0.0,0.0,0.0,0.0,0.0,0.0,-1.69,-1.7178,-1.5126,-1.3792,-1.3437,-1.3267,-1.3552,-1.4388,-1.6435,-1.7685,0.0,0.0,0.0,0.0,0.0,0.0,0.0,0.0,0.0,0.0,0.0,0.0,0.0,0.0,0.0,0.0,0.0,0.0,0.0,0.0,0.0,0.0,0.0,0.0,0.0,0.0,0.0,0.0,0.0,0.0,0.0,0.0,0.0,0.0,0.0,0.0,0.0,0.0,0.0,0.0,0.0,0.0,-2.351,-2.323,0.0,0.0,0.0,-2.2146,-2.1886,0.0,0.0,0.0,0.0,0.0,0.0,0.0,0.0,0.0,0.0,0.0,0.0,0.0,0.0,0.0,0.0,0.0,0.0,0.0,0.0,0.0,0.0,0.0,0.0,0.0,0.0,0.0,0.0,0.0,0.0,0.0,0.0,0.0,0.0,0.0,0.0,0.0,0.0,0.0,0.0,0.0,0.0,0.0,0.0,0.0,0.0,0.0,0.0,0.0,0.0,0.0,0.0,0.0,0.0,0.0,0.0,0.0,-1.747,-1.5596,-1.4132,-1.3449,-1.3447,-1.3793,-1.4619,-1.6537,-1.7965,0.0,0.0,0.0,0.0,0.0,0.0,0.0,0.0,0.0,0.0,0.0,0.0,0.0,0.0,0.0,0.0,0.0,0.0,0.0,0.0,0.0,0.0,0.0,0.0,0.0,0.0,0.0,0.0,0.0,0.0,0.0,0.0,0.0,0.0,0.0,0.0,0.0,0.0,0.0,0.0,0.0,-2.3671,-2.4957,-2.4405,-2.3837,0.0,0.0,-2.1946,-2.1535,-2.1805,0.0,0.0,0.0,0.0,0.0,0.0,0.0,0.0,0.0,0.0,0.0,0.0,0.0,0.0,0.0,0.0,0.0,0.0,0.0,0.0,0.0,0.0,0.0,0.0,0.0,0.0,0.0,0.0,0.0,0.0,0.0,0.0,0.0,0.0,0.0,0.0,0.0,0.0,0.0,0.0,0.0,0.0,0.0,0.0,0.0,0.0,0.0,0.0,0.0,0.0,0.0,0.0,0.0,0.0,0.0,0.0,-1.67,-1.5029,-1.3912,-1.3397,-1.3387,-1.3793,-1.4608,-1.6627,-1.8145,0.0,0.0,0.0,0.0,0.0,0.0,0.0,0.0,0.0,0.0,0.0,0.0,0.0,0.0,0.0,0.0,0.0,0.0,0.0,0.0,0.0,0.0,0.0,0.0,0.0,0.0,0.0,0.0,0.0,0.0,0.0,0.0,0.0,0.0,0.0,0.0,0.0,0.0,0.0,0.0,0.0,-2.5103,-2.6811,-2.6139,0.0,0.0,0.0,0.0,-2.3132,-2.2729,0.0,0.0,0.0,0.0,0.0,0.0,0.0,0.0,0.0,0.0,0.0,0.0,0.0,0.0,0.0,0.0,0.0,0.0,0.0,0.0,0.0,0.0,0.0,0.0,0.0,0.0,0.0,0.0,0.0,0.0,0.0,0.0,0.0,0.0,0.0,0.0,0.0,0.0,0.0,0.0,0.0,0.0,0.0,0.0,0.0,0.0,0.0,0.0,0.0,0.0,0.0,0.0,0.0,0.0,0.0,0.0,-1.6845,-1.5709,-1.462,-1.3567,-1.3541,-1.3887,-1.4608,-1.6742,-1.8325,0.0,0.0,0.0,0.0,0.0,0.0,0.0,0.0,0.0,0.0,0.0,0.0,0.0,0.0,0.0,0.0,0.0,0.0,0.0,0.0,0.0,0.0,0.0,0.0,0.0,0.0,0.0,0.0,0.0,0.0,0.0,0.0,0.0,0.0,0.0,0.0,0.0,0.0,0.0,0.0,-2.59,-2.612,-2.7483,0.0,0.0,0.0,0.0,0.0,0.0,-2.2745,-2.2736,0.0,0.0,0.0,0.0,0.0,0.0,0.0,0.0,0.0,0.0,0.0,0.0,0.0,0.0,0.0,0.0,0.0,0.0,0.0,0.0,0.0,0.0,0.0,0.0,0.0,0.0,0.0,0.0,0.0,0.0,0.0,0.0,0.0,0.0,0.0,0.0,0.0,0.0,0.0,0.0,0.0,0.0,0.0,0.0,0.0,0.0,0.0,0.0,0.0,0.0,0.0,0.0,0.0,0.0,0.0,-1.7135,-1.667,-1.5452,-1.3644,-1.3722,-1.4011,-1.4608,-1.6653,-1.8263,-1.9385,0.0,0.0,0.0,0.0,0.0,0.0,0.0,0.0,0.0,0.0,0.0,0.0,0.0,0.0,0.0,0.0,0.0,0.0,0.0,0.0,0.0,0.0,0.0,0.0,0.0,0.0,0.0,0.0,0.0,0.0,0.0,0.0,0.0,0.0,0.0,0.0,0.0,0.0,0.0,-2.6668,-2.6974,0.0,0.0,0.0,0.0,0.0,0.0,0.0,0.0,-2.2865,0.0,0.0,0.0,0.0,0.0,0.0,0.0,0.0,0.0,0.0,0.0,0.0,0.0,0.0,0.0,0.0,0.0,0.0,0.0,0.0,0.0,0.0,0.0,0.0,0.0,0.0,0.0,0.0,0.0,0.0,0.0,0.0,0.0,0.0,0.0,0.0,0.0,0.0,0.0,0.0,0.0,0.0,0.0,0.0,0.0,0.0,0.0,0.0,0.0,0.0,0.0,0.0,0.0,0.0,0.0,0.0,-1.6593,-1.5667,-1.3703,-1.3524,-1.378,-1.4597,-1.6283,-1.7902,-1.9207,0.0,0.0,0.0,0.0,0.0,0.0,0.0,0.0,0.0,0.0,0.0,0.0,0.0,0.0,0.0,0.0,0.0,0.0,0.0,0.0,0.0,0.0,0.0,0.0,0.0,0.0,0.0,0.0,0.0,0.0,0.0,0.0,0.0,0.0,0.0,0.0,0.0,0.0,-2.5637,-2.6872,0.0,0.0,0.0,0.0,0.0,0.0,0.0,0.0,-2.3665,0.0,0.0,0.0,0.0,0.0,0.0,0.0,0.0,0.0,0.0,0.0,0.0,0.0,0.0,0.0,0.0,0.0,0.0,0.0,0.0,0.0,0.0,0.0,0.0,0.0,0.0,0.0,0.0,0.0,0.0,0.0,0.0,0.0,0.0,0.0,0.0,0.0,0.0,0.0,0.0,0.0,0.0,0.0,0.0,0.0,0.0,0.0,0.0,0.0,0.0,0.0,0.0,0.0,0.0,0.0,0.0,0.0,0.0,-1.6058,-1.392,-1.3597,-1.3695,-1.4191,-1.5769,-1.7573,0.0,0.0,0.0,0.0,0.0,0.0,0.0,0.0,0.0,0.0,0.0,0.0,0.0,0.0,0.0,0.0,0.0,0.0,0.0,0.0,0.0,0.0,0.0,0.0,0.0,0.0,0.0,0.0,0.0,0.0,0.0,0.0,0.0,0.0,0.0,0.0,0.0,0.0,0.0,0.0,0.0,0.0,0.0,0.0,0.0,0.0,0.0,0.0,0.0,0.0,0.0,0.0,0.0,0.0,0.0,0.0,0.0,0.0,0.0,0.0,0.0,0.0,0.0,0.0,0.0,0.0,0.0,0.0,0.0,0.0,0.0,0.0,0.0,0.0,0.0,0.0,0.0,0.0,0.0,0.0,0.0,0.0,0.0,0.0,0.0,0.0,0.0,0.0,0.0,0.0,0.0,0.0,0.0,0.0,0.0,0.0,0.0,0.0,0.0,0.0,0.0,0.0,0.0,0.0,0.0,0.0,0.0,0.0,-1.6282,-1.4243,-1.3697,-1.36,-1.3972,-1.5535,-1.7256,0.0,0.0,0.0,0.0,0.0,0.0,0.0,0.0,0.0,0.0,0.0,0.0,0.0,0.0,0.0,0.0,0.0,0.0,0.0,0.0,0.0,0.0,0.0,0.0,0.0,0.0,0.0,0.0,0.0,0.0,0.0,0.0,0.0,0.0,0.0,0.0,0.0,0.0,0.0,0.0,0.0,0.0,0.0,0.0,0.0,0.0,0.0,0.0,-2.4842,0.0,0.0,0.0,0.0,0.0,0.0,0.0,0.0,0.0,0.0,0.0,0.0,0.0,0.0,0.0,0.0,0.0,0.0,0.0,0.0,0.0,0.0,0.0,0.0,0.0,0.0,0.0,0.0,0.0,0.0,0.0,0.0,0.0,0.0,0.0,0.0,0.0,0.0,0.0,0.0,0.0,0.0,0.0,0.0,0.0,0.0,0.0,0.0,0.0,0.0,0.0,0.0,0.0,0.0,0.0,0.0,0.0,0.0,0.0,-1.6061,-1.4898,-1.4056,-1.3781,-1.4296,-1.5743,-1.6982,0.0,0.0,0.0,0.0,0.0,0.0,0.0,0.0,0.0,0.0,0.0,0.0,0.0,0.0,0.0,0.0,0.0,0.0,0.0,0.0,0.0,0.0,0.0,0.0,0.0,0.0,0.0,0.0,0.0,0.0,0.0,0.0,0.0,0.0,0.0,0.0,0.0,0.0,0.0,0.0,0.0,0.0,0.0,0.0,0.0,0.0,0.0,0.0,0.0,0.0,0.0,0.0,0.0,0.0,0.0,0.0,0.0,0.0,0.0,0.0,0.0,0.0,0.0,0.0,0.0,0.0,0.0,0.0,0.0,0.0,0.0,0.0,0.0,0.0,0.0,0.0,0.0,0.0,0.0,0.0,0.0,0.0,0.0,0.0,0.0,0.0,0.0,0.0,0.0,0.0,0.0,0.0,0.0,0.0,0.0,0.0,0.0,0.0,0.0,0.0,0.0,0.0,0.0,0.0,0.0,0.0,0.0,0.0,-1.6459,-1.4778,-1.439,-1.4537,-1.5489,-1.6152,-1.7008,0.0,0.0,0.0,0.0,0.0,0.0,0.0,0.0,0.0,0.0,0.0,0.0,0.0,0.0,0.0,0.0,0.0,0.0,0.0,0.0,0.0,0.0,0.0,0.0,0.0,0.0,0.0,0.0,0.0,0.0,0.0,0.0,0.0,0.0,0.0,0.0,0.0,0.0,0.0,0.0,0.0,0.0,0.0,0.0,0.0,0.0,0.0,0.0,0.0,0.0,0.0,0.0,0.0,0.0,0.0,0.0,0.0,0.0,0.0,0.0,0.0,0.0,0.0,0.0,0.0,0.0,0.0,0.0,0.0,0.0,0.0,0.0,0.0,0.0,0.0,0.0,0.0,0.0,0.0,0.0,0.0,0.0,0.0,0.0,0.0,0.0,0.0,0.0,0.0,0.0,0.0,0.0,0.0,0.0,0.0,0.0,0.0,0.0,0.0,0.0,0.0,0.0,0.0,0.0,0.0,0.0,0.0,0.0,0.0,-1.5053,-1.5171,-1.5638,-1.6451,-1.6768,-1.7235,0.0,0.0,0.0,0.0,0.0,0.0,0.0,0.0,0.0,0.0,0.0,0.0,0.0,0.0,0.0,0.0,0.0,0.0,0.0,0.0,0.0,0.0,0.0,0.0,0.0,0.0,0.0,0.0,0.0,0.0,0.0,0.0,0.0,0.0,0.0,0.0,0.0,0.0,0.0,0.0,0.0,0.0,0.0,0.0,0.0,0.0,0.0,0.0,0.0,0.0,0.0,0.0,0.0,0.0,0.0,0.0,0.0,0.0,0.0,0.0,0.0,0.0,0.0,0.0,0.0,0.0,0.0,0.0,0.0,0.0,0.0,0.0,0.0,0.0,0.0,0.0,0.0,0.0,0.0,0.0,0.0,0.0,0.0,0.0,0.0,0.0,0.0,0.0,0.0,0.0,0.0,0.0,0.0,0.0,0.0,0.0,0.0,0.0,0.0,0.0,0.0,0.0,0.0,0.0,0.0,0.0,0.0,0.0,0.0,-1.601,-1.6647,-1.6956,-1.7046,-1.7502,-1.7549,0.0,0.0,0.0,0.0,0.0,0.0,0.0,0.0,0.0,0.0,0.0,0.0,0.0,0.0,0.0,0.0,0.0,0.0,0.0,0.0,0.0,0.0,0.0,0.0,0.0,0.0,0.0,0.0,0.0,0.0,0.0,0.0,0.0,0.0,0.0,0.0,0.0,0.0,0.0,0.0,0.0,0.0,0.0,0.0,0.0,0.0,0.0,0.0,0.0,0.0,0.0,0.0,0.0,0.0,0.0,0.0,0.0,0.0,0.0,0.0,0.0,0.0,0.0,0.0,0.0,0.0,0.0,0.0,0.0,0.0,0.0,0.0,0.0,0.0,0.0,0.0,0.0,0.0,0.0,0.0,0.0,0.0,0.0,0.0,0.0,0.0,0.0,0.0,0.0,0.0,0.0,0.0,0.0,0.0,0.0,0.0,0.0,0.0,0.0,0.0,0.0,0.0,0.0,0.0,0.0,0.0,0.0,0.0,0.0,-1.6807,-1.7234,-1.7444,-1.7325,-1.7276,-1.7262,-1.7381,0.0,0.0,0.0,0.0,0.0,0.0,0.0,0.0,0.0,0.0,0.0,0.0,0.0,0.0,0.0,0.0,0.0,0.0,0.0,0.0,0.0,0.0,0.0,0.0,0.0,0.0,0.0,0.0,0.0,0.0,0.0,0.0,0.0,0.0,0.0,0.0,0.0,0.0,0.0,0.0,0.0,0.0,0.0,0.0,0.0,0.0,0.0,0.0,0.0,0.0,0.0,0.0,0.0,0.0,0.0,0.0,0.0,0.0,0.0,0.0,0.0,0.0,0.0,0.0,0.0,0.0,0.0,0.0,0.0,0.0,0.0,0.0,0.0,0.0,0.0,0.0,0.0,0.0,0.0,0.0,0.0,0.0,0.0,0.0,0.0,0.0,0.0,0.0,0.0,0.0,0.0,0.0,0.0,0.0,0.0,0.0,0.0,0.0,0.0,0.0,0.0,0.0,0.0,0.0,0.0,0.0,0.0,0.0,-1.7617,-1.7723,-1.779,-1.7662,-1.7442,-1.7476,0.0,0.0,0.0,0.0,0.0,0.0,0.0,0.0,0.0,0.0,0.0,0.0,0.0,0.0,0.0,0.0,0.0,0.0,0.0,0.0,0.0,0.0,0.0,0.0,0.0,0.0,0.0,0.0,0.0,0.0,0.0,0.0,0.0,0.0,0.0,0.0,0.0,0.0,0.0,0.0,0.0,0.0,0.0,0.0,0.0,0.0,0.0,0.0,0.0,0.0,0.0,0.0,0.0,0.0,0.0,0.0,0.0,0.0,0.0,0.0,0.0,0.0,0.0,0.0,0.0,0.0,0.0,0.0,0.0,0.0,0.0,0.0,0.0,0.0,0.0,0.0,0.0,0.0,0.0,0.0,0.0,0.0,0.0,0.0,0.0,0.0,0.0,0.0,0.0,0.0,0.0,0.0,0.0,0.0,0.0,0.0,0.0,0.0,0.0,0.0,0.0,0.0,0.0,0.0,0.0,0.0,0.0,0.0,-1.9038,-1.8633,-1.8232,-1.8076,-1.8076,-1.8131,-1.8105,0.0,0.0,0.0,0.0,0.0,0.0,0.0,0.0,0.0,0.0,0.0,0.0,0.0,0.0,0.0,0.0,0.0,0.0,0.0,0.0,0.0,0.0,0.0,0.0,0.0,0.0,0.0,0.0,0.0,0.0,0.0,0.0,0.0,0.0,0.0,0.0,0.0,0.0,0.0,0.0,0.0,0.0,0.0,0.0,0.0,0.0,0.0,0.0,0.0,0.0,0.0,0.0,0.0,0.0,0.0,0.0,0.0,0.0,0.0,0.0,0.0,0.0,0.0,0.0,0.0,0.0,0.0,0.0,0.0,0.0,0.0,0.0,0.0,0.0,0.0,0.0,0.0,0.0,0.0,0.0,0.0,0.0,0.0,0.0,0.0,0.0,0.0,0.0,0.0,0.0,0.0,0.0,0.0,0.0,0.0,0.0,0.0,0.0,0.0,0.0,0.0,0.0,0.0,0.0,0.0,0.0,0.0,0.0,0.0,-1.8933,0.0,-1.7989,-1.7847,-1.7957,-1.8049,0.0,0.0,0.0,0.0,0.0,0.0,0.0,0.0,0.0,0.0,0.0,0.0,0.0,0.0,0.0,0.0,0.0,0.0,0.0,0.0,0.0,0.0,0.0,0.0,0.0,0.0,0.0,0.0,0.0,0.0,0.0,0.0,0.0,0.0,0.0,0.0,0.0,0.0,0.0,0.0,0.0,0.0,0.0,0.0,0.0,0.0,0.0,0.0,0.0,0.0,0.0,0.0,0.0,0.0,0.0,0.0,0.0,0.0,0.0,0.0,0.0,0.0,0.0,0.0,0.0,0.0,0.0,0.0,0.0,0.0,0.0,0.0,0.0,0.0,0.0,0.0,0.0,0.0,0.0,0.0,0.0,0.0,0.0,0.0,0.0,0.0,0.0,0.0,0.0,0.0,0.0,0.0,0.0,0.0,0.0,0.0,0.0,0.0,0.0,0.0,0.0,0.0,0.0,0.0,0.0,0.0,0.0,0.0,0.0,-1.933,-1.8749,-1.8258,-1.7968,-1.7998,-1.8154,0.0,0.0,0.0,0.0,0.0,0.0,0.0,0.0,0.0,0.0,0.0,0.0,0.0,0.0,0.0,0.0,0.0,0.0,0.0,0.0,0.0,0.0,0.0,0.0,0.0,0.0,0.0,0.0,0.0,0.0,0.0,0.0,0.0,0.0,0.0,0.0,0.0,0.0,0.0,0.0,0.0,0.0,0.0,0.0,0.0,0.0,0.0,0.0,0.0,0.0,0.0,0.0,0.0,0.0,0.0,0.0,0.0,0.0,0.0,0.0,0.0,0.0,0.0,0.0,0.0,0.0,0.0,0.0,0.0,0.0,0.0,0.0,0.0,0.0,0.0,0.0,0.0,0.0,0.0,0.0,0.0,0.0,0.0,0.0,0.0,0.0,0.0,0.0,0.0,0.0,0.0,0.0,0.0,0.0,0.0,0.0,0.0,0.0,0.0,0.0,0.0,0.0,0.0,0.0,0.0,0.0,0.0,0.0,0.0,-1.9872,-1.933,-1.8875,-1.8489,-1.831,-1.8414,0.0,0.0,0.0,0.0,0.0,0.0,0.0,0.0,0.0,0.0,0.0,0.0,0.0,0.0,0.0,0.0,0.0,0.0,0.0,0.0,0.0,0.0,0.0,0.0,0.0,0.0,0.0,0.0,0.0,0.0,0.0,0.0,0.0,0.0,0.0,0.0,0.0,0.0,0.0,0.0,0.0,0.0,0.0,0.0,0.0,0.0,0.0,0.0,0.0,0.0,0.0,0.0,0.0,0.0,0.0,0.0,0.0,0.0,0.0,0.0,0.0,0.0,0.0,0.0,0.0,0.0,0.0,0.0,0.0,0.0,0.0,0.0,0.0,0.0,0.0,0.0,0.0,0.0,0.0,0.0,0.0,0.0,0.0,0.0,0.0,0.0,0.0,0.0,0.0,0.0,0.0,0.0,0.0,0.0,0.0,0.0,0.0,0.0,0.0,0.0,0.0,0.0,0.0,0.0,0.0,0.0,0.0,0.0,0.0,0.0,-1.9627,-1.9205,-1.8851,-1.8494,-1.8339,-1.8489,0.0,0.0,0.0,0.0,0.0,0.0,0.0,0.0,0.0,0.0,0.0,0.0,0.0,0.0,0.0,0.0,0.0,0.0,0.0,0.0,0.0,0.0,0.0,0.0,0.0,0.0,0.0,0.0,0.0,0.0,0.0,0.0,0.0,0.0,0.0,0.0,0.0,0.0,0.0,0.0,0.0,0.0,0.0,0.0,0.0,0.0,0.0,0.0,0.0,0.0,0.0,0.0,0.0,0.0,0.0,0.0,0.0,0.0,0.0,0.0,0.0,0.0,0.0,0.0,0.0,0.0,0.0,0.0,0.0,0.0,0.0,0.0,0.0,0.0,0.0,0.0,0.0,0.0,0.0,0.0,0.0,0.0,0.0,0.0,0.0,0.0,0.0,0.0,0.0,0.0,0.0,0.0,0.0,0.0,0.0,0.0,0.0,0.0,0.0,0.0,0.0,0.0,0.0,0.0,0.0,0.0,0.0,0.0,0.0,0.0,-1.9553,-1.9154,-1.8647,-1.8414,0.0,0.0,0.0,0.0,0.0,0.0,0.0,0.0,0.0,0.0,0.0,0.0,0.0,0.0,0.0,0.0,0.0,0.0,0.0,0.0,0.0,0.0,0.0,0.0,0.0,0.0,0.0,0.0,0.0,0.0,0.0,0.0,0.0,0.0,0.0,0.0,0.0,0.0,0.0,0.0,0.0,0.0,0.0,0.0,0.0,0.0,0.0,0.0,0.0,0.0,0.0,0.0,0.0,0.0,0.0,0.0,0.0,0.0,0.0,0.0,0.0,0.0,0.0,0.0,0.0,0.0,0.0,0.0,0.0,0.0,0.0,0.0,0.0,0.0,0.0,0.0,0.0,0.0,0.0,0.0,0.0,0.0,0.0,0.0,0.0,0.0,0.0,0.0,0.0,0.0,0.0,0.0,0.0,0.0,0.0,0.0,0.0,0.0,0.0,0.0,0.0,0.0,0.0,0.0,0.0,0.0,0.0,0.0,0.0,0.0,0.0,-1.9972,-1.923,-1.8875,0.0,-1.8102,0.0,0.0,0.0,0.0,0.0,0.0,0.0,0.0,0.0,0.0,0.0,0.0,0.0,0.0,0.0,0.0,0.0,0.0,0.0,0.0,0.0,0.0,0.0,0.0,0.0,0.0,0.0,0.0,0.0,0.0,0.0,0.0,0.0,0.0,0.0,0.0,0.0,0.0,0.0,0.0,0.0,0.0,0.0,0.0,0.0,0.0,0.0,0.0,0.0,0.0,0.0,0.0,0.0,0.0,0.0,0.0,0.0,0.0,0.0,0.0,0.0,0.0,0.0,0.0,0.0,0.0,0.0,0.0,0.0,0.0,0.0,0.0,0.0,0.0,0.0,0.0,0.0,0.0,0.0,0.0,0.0,0.0,0.0,0.0,0.0,0.0,0.0,0.0,0.0,0.0,0.0,0.0,0.0,0.0,0.0,0.0,0.0,0.0,0.0,0.0,0.0,0.0,0.0,0.0,0.0,0.0,0.0,0.0,0.0,0.0,0.0,0.0,-1.8926,-1.8437,-1.7945,0.0,0.0,0.0,0.0,0.0,0.0,0.0,0.0,0.0,0.0,0.0,0.0,0.0,0.0,0.0,0.0,0.0,0.0,0.0,0.0,0.0,0.0,0.0,0.0,0.0,0.0,0.0,0.0,0.0,0.0,0.0,0.0,0.0,0.0,0.0,0.0,0.0,0.0,0.0,0.0,0.0,0.0,0.0,0.0,0.0,0.0,0.0,0.0,0.0,0.0,0.0,0.0,0.0,0.0,0.0,0.0,0.0,0.0,0.0,0.0,0.0,0.0,0.0,0.0,0.0,0.0,0.0,0.0,0.0,0.0,0.0,0.0,0.0,0.0,0.0,0.0,0.0,0.0,0.0,0.0,0.0,0.0,0.0,0.0,0.0,0.0,0.0,0.0,0.0,0.0,0.0,0.0,0.0,0.0,0.0,0.0,0.0,0.0,0.0,0.0,0.0,0.0,0.0,0.0,0.0,0.0,0.0,0.0,0.0,0.0,-2.1094,-1.9676,-1.8953,-1.8489,-1.7998,0.0,0.0,0.0,0.0,0.0,0.0,0.0,0.0,0.0,0.0,0.0,0.0,0.0,0.0,0.0,0.0,0.0,0.0,0.0,0.0,0.0,0.0,0.0,0.0,0.0,0.0,0.0,0.0,0.0,0.0,0.0,0.0,0.0,0.0,0.0,0.0,0.0,0.0,0.0,0.0,0.0,0.0,0.0,0.0,0.0,0.0,0.0,0.0,0.0,0.0,0.0,0.0,0.0,0.0,0.0,0.0,0.0,0.0,0.0,0.0,0.0,0.0,0.0,0.0,0.0,0.0,0.0,0.0,0.0,0.0,0.0,0.0,0.0,0.0,0.0,0.0,0.0,0.0,0.0,0.0,0.0,0.0,0.0,0.0,0.0,0.0,0.0,0.0,0.0,0.0,0.0,0.0,0.0,0.0,0.0,0.0,0.0,0.0,0.0,0.0,0.0,0.0,0.0,0.0,0.0,0.0,0.0,0.0,0.0,0.0,0.0,0.0,0.0,0.0,-1.8102,0.0,0.0,0.0,0.0,0.0,0.0,0.0,0.0,0.0,0.0,0.0,0.0,0.0,0.0,0.0,0.0,0.0,0.0,0.0,0.0,0.0,0.0,0.0,0.0,0.0,0.0,0.0,0.0,0.0,0.0,0.0,0.0,0.0,0.0,0.0,0.0,0.0,0.0,0.0,0.0,0.0,0.0,0.0,0.0,0.0,0.0,0.0,0.0,0.0,0.0,0.0,0.0,0.0,0.0,0.0,0.0,0.0,0.0,0.0,0.0,0.0,0.0,0.0,0.0,0.0,0.0,0.0,0.0,0.0,0.0,0.0,0.0,0.0,0.0,0.0,0.0,0.0,0.0,0.0,0.0,0.0,0.0,0.0,0.0,0.0,0.0,0.0,0.0,0.0,0.0,0.0,0.0,0.0,0.0,0.0,0.0,0.0,0.0,0.0,0.0,0.0,0.0,0.0,0.0,0.0,0.0,0.0,0.0,0.0,0.0,0.0,0.0,0.0,0.0,0.0,0.0,0.0,0.0,0.0,0.0,0.0,0.0,0.0,0.0,0.0,0.0,0.0,0.0,0.0,0.0,0.0,0.0,0.0,0.0,0.0,0.0,0.0,0.0,0.0,0.0,0.0,0.0,0.0,0.0,0.0,0.0,0.0,0.0,0.0,0.0,0.0,0.0,0.0,0.0,0.0,0.0,0.0,0.0,0.0,0.0,0.0,0.0,0.0,0.0,0.0,0.0,0.0,0.0,0.0,0.0,0.0,0.0,0.0,0.0,0.0,0.0,0.0,0.0,0.0,0.0,0.0,0.0,0.0,0.0,0.0,0.0,0.0,0.0,0.0,0.0,0.0,0.0,0.0,0.0,0.0,0.0,0.0,0.0,0.0,0.0,0.0,0.0,0.0,0.0,0.0,0.0,0.0,0.0,0.0,0.0,0.0,0.0,0.0,0.0,0.0,0.0,0.0,0.0,0.0,0.0,0.0,0.0,0.0,0.0,0.0,0.0,0.0,0.0,0.0,0.0,0.0,0.0,0.0,0.0,0.0,0.0,0.0,0.0,0.0,0.0,0.0,0.0,0.0,0.0,0.0,0.0,0.0,0.0,0.0,0.0,0.0,0.0,0.0,0.0,0.0,0.0,0.0,0.0,0.0,0.0,0.0,0.0,0.0,0.0,0.0,0.0,0.0,0.0,0.0,0.0,0.0,0.0,0.0,0.0,0.0,0.0,0.0,0.0,0.0,0.0,0.0,0.0,0.0,0.0,0.0,0.0,0.0,0.0,0.0,0.0,0.0,0.0,0.0,0.0,0.0,0.0,0.0,0.0,0.0,0.0,0.0,0.0,0.0,0.0,0.0,0.0,0.0,0.0,0.0,0.0,0.0,0.0,0.0,0.0,0.0,0.0,0.0,0.0,0.0,0.0,0.0,0.0,0.0,0.0,0.0,0.0,0.0,0.0,0.0,0.0,0.0,0.0,0.0,0.0,0.0,0.0,0.0,0.0,0.0,0.0,0.0,0.0,0.0,0.0,0.0,0.0,0.0,0.0,0.0,0.0,0.0,0.0,0.0,0.0,0.0,0.0,0.0,0.0,0.0,0.0,0.0,0.0,0.0,0.0,0.0,0.0,0.0,0.0,0.0,0.0,0.0,0.0,0.0,0.0,0.0,0.0,0.0,0.0,0.0,0.0,0.0,0.0,0.0,0.0,0.0,0.0,0.0,0.0,0.0,0.0,0.0,0.0,0.0,0.0,0.0,0.0,0.0,0.0,0.0,0.0,0.0,0.0,0.0,0.0,0.0,0.0,0.0,0.0,0.0,0.0,0.0,0.0,0.0,0.0,0.0,0.0,0.0,0.0,0.0,0.0,0.0,0.0,0.0,0.0,0.0,0.0,0.0,0.0,0.0,0.0,0.0,0.0,0.0,0.0,0.0,0.0,0.0,0.0,0.0,0.0,0.0,0.0,0.0,0.0,0.0,0.0,0.0,0.0,0.0,0.0,0.0,0.0,0.0,0.0,0.0,0.0,0.0,0.0,0.0,0.0,0.0,0.0,0.0,0.0,0.0,0.0,0.0,0.0,0.0,0.0,0.0,0.0,0.0,0.0,0.0,0.0,0.0,0.0,0.0,0.0,0.0,0.0,0.0,0.0,0.0,0.0,0.0,0.0,0.0,0.0,0.0,0.0,0.0,0.0,0.0,0.0,0.0,0.0,0.0,0.0,0.0,0.0,0.0,0.0,0.0,0.0,0.0,0.0,0.0,0.0,0.0,0.0,0.0,0.0,0.0,0.0,0.0,0.0,0.0,0.0,0.0,0.0,0.0,0.0,0.0,0.0,0.0,0.0,0.0,0.0,0.0,0.0,0.0,0.0,0.0,0.0,0.0,0.0,0.0,0.0,0.0,0.0,0.0,0.0,0.0,0.0,0.0,0.0,0.0,0.0,0.0,0.0,0.0,0.0,0.0,0.0,0.0,0.0,0.0,0.0,0.0,0.0,0.0,0.0,0.0,0.0,0.0,0.0,0.0,0.0,0.0,0.0,0.0,0.0,0.0,0.0,0.0,0.0,0.0,0.0,0.0,0.0,0.0,0.0,0.0,0.0,0.0,0.0,0.0,0.0,0.0,0.0,0.0,0.0,0.0,0.0,0.0,0.0,0.0,0.0,0.0,0.0,0.0,0.0,0.0,0.0,0.0,0.0,0.0,0.0,0.0,0.0,0.0,0.0,0.0,0.0,0.0,0.0,0.0,0.0,0.0,0.0,0.0,0.0,0.0,0.0,0.0,0.0,0.0,0.0,0.0,0.0,0.0,0.0,0.0,0.0,0.0,0.0,0.0,0.0,0.0,0.0,0.0,0.0,0.0,0.0,0.0,0.0,0.0,0.0,0.0,0.0,0.0,0.0,0.0,0.0,0.0,0.0,0.0,0.0,0.0,0.0,0.0,0.0,0.0,0.0,0.0,0.0,0.0,0.0,0.0,0.0,0.0,0.0,0.0,0.0,0.0,0.0,0.0,0.0,0.0,0.0,0.0,0.0,0.0,0.0,0.0,0.0,0.0,0.0,0.0,0.0,0.0,0.0,0.0,0.0,0.0,0.0,0.0,0.0,0.0,0.0,0.0,0.0,0.0,0.0,0.0,0.0,0.0,0.0,0.0,0.0,0.0,0.0,0.0,0.0,0.0,0.0,0.0,0.0,0.0,0.0,0.0,0.0,0.0,0.0,0.0,0.0,0.0,0.0,0.0,0.0,0.0,0.0,0.0,0.0,0.0,0.0,0.0,0.0,0.0,0.0,0.0,0.0,0.0,0.0,0.0,0.0,0.0,0.0,0.0,0.0,0.0,0.0,0.0,0.0,0.0,0.0,0.0,0.0,0.0,0.0,0.0,0.0,0.0,0.0,0.0,0.0,0.0,0.0,0.0,0.0,0.0,0.0,0.0,0.0,0.0,0.0,0.0,0.0,0.0,0.0,0.0,0.0,0.0,0.0,0.0,0.0,0.0,0.0,0.0,0.0,0.0,0.0,0.0,0.0,0.0,0.0,0.0,0.0,0.0,0.0,0.0,0.0,0.0,0.0,0.0,0.0,0.0,0.0,0.0,0.0,0.0,0.0,0.0,0.0,0.0,0.0,0.0,0.0,0.0,0.0,0.0,0.0,0.0,0.0,0.0,0.0,0.0,0.0,0.0,0.0,0.0,0.0,0.0,0.0,0.0,0.0,0.0,0.0,0.0,0.0,0.0,0.0,0.0,0.0,0.0,0.0,0.0,0.0,0.0,0.0,0.0,0.0,0.0,0.0,0.0,0.0,0.0,0.0,0.0,0.0,0.0,0.0,0.0,0.0,0.0,0.0,0.0,0.0,0.0,0.0,0.0,0.0,0.0,0.0,0.0,0.0,0.0,0.0,0.0,0.0,0.0,0.0,0.0,0.0,0.0,0.0,0.0,0.0,0.0,0.0,0.0,0.0,0.0,0.0,0.0,0.0,0.0,0.0,0.0,0.0,0.0,0.0,0.0,0.0,0.0,0.0,0.0,0.0,0.0,0.0,0.0,0.0,0.0,0.0,0.0,0.0,0.0,0.0,0.0,0.0,0.0,0.0,0.0,0.0,0.0,0.0,0.0,0.0,0.0,0.0,0.0,0.0,0.0,0.0,0.0,0.0,0.0,0.0,0.0,0.0,0.0,0.0,0.0,0.0,0.0,0.0,0.0,0.0,0.0,0.0,0.0,0.0,0.0,0.0,0.0,0.0,0.0,0.0,0.0,0.0,0.0,0.0,0.0,0.0,0.0,0.0,0.0,0.0,0.0,0.0,0.0,0.0,0.0,0.0,0.0,0.0,0.0,0.0,0.0,0.0,0.0,0.0,0.0,0.0,0.0,0.0]}]]]